<?xml version="1.0" encoding="UTF-8" standalone="no" ?>
<gpx xmlns="http://www.topografix.com/GPX/1/1" xmlns:xsi="http://www.w3.org/2001/XMLSchema-instance" xsi:schemaLocation="http://www.topografix.com/GPX/1/1 http://www.topografix.com/GPX/1/1/gpx.xsd" version="1.1" creator="VisuGPX - https://www.visugpx.com">
  <metadata>
    <name>Bouvante le Haut à Léoncel Aller-Retour</name>
    <desc><![CDATA[Jolie balade
moitie en sous bois moitié à découvert
Une descente vers Léoncel et une remontée au pas du grand Chaillon assez verticales
Abbaye de Léoncel très jolie, même si ne reste plus que la chapelle qui se visite]]></desc>
  </metadata>
  <trk>
    <name><![CDATA[Bouvante]]></name>
    <cmt><![CDATA[Bouvante-col du lion-leoncel]]></cmt>
    <desc><![CDATA[comment ...]]></desc>
    <trkseg>
      <trkpt lat="44.9305" lon="5.2657">
        <ele>603</ele>
        <time>2015-08-19T06:40:28Z</time>
      </trkpt>
      <trkpt lat="44.93049" lon="5.2657">
        <ele>603</ele>
        <time>2015-08-19T06:40:29Z</time>
      </trkpt>
      <trkpt lat="44.93046" lon="5.26572">
        <ele>603</ele>
        <time>2015-08-19T06:40:34Z</time>
      </trkpt>
      <trkpt lat="44.93036" lon="5.26576">
        <ele>603</ele>
        <time>2015-08-19T06:40:42Z</time>
      </trkpt>
      <trkpt lat="44.93026" lon="5.26576">
        <ele>603</ele>
        <time>2015-08-19T06:40:50Z</time>
      </trkpt>
      <trkpt lat="44.93021" lon="5.26586">
        <ele>614</ele>
        <time>2015-08-19T06:42:08Z</time>
      </trkpt>
      <trkpt lat="44.93015" lon="5.26587">
        <ele>613</ele>
        <time>2015-08-19T06:42:09Z</time>
      </trkpt>
      <trkpt lat="44.9301" lon="5.26578">
        <ele>605</ele>
        <time>2015-08-19T06:42:29Z</time>
      </trkpt>
      <trkpt lat="44.9299" lon="5.26573">
        <ele>604</ele>
        <time>2015-08-19T06:42:59Z</time>
      </trkpt>
      <trkpt lat="44.92942" lon="5.26561">
        <ele>602</ele>
        <time>2015-08-19T06:43:30Z</time>
      </trkpt>
      <trkpt lat="44.92932" lon="5.26561">
        <ele>603</ele>
        <time>2015-08-19T06:43:38Z</time>
      </trkpt>
      <trkpt lat="44.92928" lon="5.26563">
        <ele>604</ele>
        <time>2015-08-19T06:43:41Z</time>
      </trkpt>
      <trkpt lat="44.92923" lon="5.26562">
        <ele>604</ele>
        <time>2015-08-19T06:43:45Z</time>
      </trkpt>
      <trkpt lat="44.92884" lon="5.26571">
        <ele>602</ele>
        <time>2015-08-19T06:44:19Z</time>
      </trkpt>
      <trkpt lat="44.9288" lon="5.26573">
        <ele>602</ele>
        <time>2015-08-19T06:44:23Z</time>
      </trkpt>
      <trkpt lat="44.92838" lon="5.26581">
        <ele>605</ele>
        <time>2015-08-19T06:44:56Z</time>
      </trkpt>
      <trkpt lat="44.92795" lon="5.26592">
        <ele>609</ele>
        <time>2015-08-19T06:45:28Z</time>
      </trkpt>
      <trkpt lat="44.92756" lon="5.26608">
        <ele>606</ele>
        <time>2015-08-19T06:46:00Z</time>
      </trkpt>
      <trkpt lat="44.92746" lon="5.26612">
        <ele>600</ele>
        <time>2015-08-19T06:46:07Z</time>
      </trkpt>
      <trkpt lat="44.92735" lon="5.26611">
        <ele>600</ele>
        <time>2015-08-19T06:46:16Z</time>
      </trkpt>
      <trkpt lat="44.9273" lon="5.26616">
        <ele>601</ele>
        <time>2015-08-19T06:46:19Z</time>
      </trkpt>
      <trkpt lat="44.92687" lon="5.26612">
        <ele>600</ele>
        <time>2015-08-19T06:46:49Z</time>
      </trkpt>
      <trkpt lat="44.92649" lon="5.26612">
        <ele>595</ele>
        <time>2015-08-19T06:47:20Z</time>
      </trkpt>
      <trkpt lat="44.92602" lon="5.26632">
        <ele>597</ele>
        <time>2015-08-19T06:47:51Z</time>
      </trkpt>
      <trkpt lat="44.92598" lon="5.26636">
        <ele>597</ele>
        <time>2015-08-19T06:47:55Z</time>
      </trkpt>
      <trkpt lat="44.92592" lon="5.26636">
        <ele>597</ele>
        <time>2015-08-19T06:48:00Z</time>
      </trkpt>
      <trkpt lat="44.92586" lon="5.26643">
        <ele>598</ele>
        <time>2015-08-19T06:48:03Z</time>
      </trkpt>
      <trkpt lat="44.92577" lon="5.26637">
        <ele>593</ele>
        <time>2015-08-19T06:48:10Z</time>
      </trkpt>
      <trkpt lat="44.92567" lon="5.26641">
        <ele>593</ele>
        <time>2015-08-19T06:48:19Z</time>
      </trkpt>
      <trkpt lat="44.92556" lon="5.26648">
        <ele>593</ele>
        <time>2015-08-19T06:48:28Z</time>
      </trkpt>
      <trkpt lat="44.92553" lon="5.26643">
        <ele>592</ele>
        <time>2015-08-19T06:48:32Z</time>
      </trkpt>
      <trkpt lat="44.92543" lon="5.26638">
        <ele>591</ele>
        <time>2015-08-19T06:48:40Z</time>
      </trkpt>
      <trkpt lat="44.92528" lon="5.26644">
        <ele>591</ele>
        <time>2015-08-19T06:48:51Z</time>
      </trkpt>
      <trkpt lat="44.92488" lon="5.26653">
        <ele>589</ele>
        <time>2015-08-19T06:49:21Z</time>
      </trkpt>
      <trkpt lat="44.92444" lon="5.26663">
        <ele>587</ele>
        <time>2015-08-19T06:49:52Z</time>
      </trkpt>
      <trkpt lat="44.9244" lon="5.26664">
        <ele>587</ele>
        <time>2015-08-19T06:49:56Z</time>
      </trkpt>
      <trkpt lat="44.92434" lon="5.26665">
        <ele>587</ele>
        <time>2015-08-19T06:49:59Z</time>
      </trkpt>
      <trkpt lat="44.92396" lon="5.2666">
        <ele>588</ele>
        <time>2015-08-19T06:50:35Z</time>
      </trkpt>
      <trkpt lat="44.92362" lon="5.26635">
        <ele>589</ele>
        <time>2015-08-19T06:51:00Z</time>
      </trkpt>
      <trkpt lat="44.92338" lon="5.26608">
        <ele>588</ele>
        <time>2015-08-19T06:51:21Z</time>
      </trkpt>
      <trkpt lat="44.923" lon="5.26569">
        <ele>590</ele>
        <time>2015-08-19T06:51:53Z</time>
      </trkpt>
      <trkpt lat="44.92267" lon="5.26528">
        <ele>590</ele>
        <time>2015-08-19T06:52:25Z</time>
      </trkpt>
      <trkpt lat="44.92261" lon="5.26519">
        <ele>589</ele>
        <time>2015-08-19T06:52:33Z</time>
      </trkpt>
      <trkpt lat="44.92252" lon="5.26514">
        <ele>589</ele>
        <time>2015-08-19T06:52:40Z</time>
      </trkpt>
      <trkpt lat="44.92249" lon="5.26509">
        <ele>591</ele>
        <time>2015-08-19T06:52:43Z</time>
      </trkpt>
      <trkpt lat="44.9221" lon="5.26485">
        <ele>591</ele>
        <time>2015-08-19T06:53:15Z</time>
      </trkpt>
      <trkpt lat="44.92206" lon="5.26486">
        <ele>591</ele>
        <time>2015-08-19T06:53:18Z</time>
      </trkpt>
      <trkpt lat="44.92201" lon="5.26484">
        <ele>591</ele>
        <time>2015-08-19T06:53:22Z</time>
      </trkpt>
      <trkpt lat="44.92169" lon="5.26447">
        <ele>592</ele>
        <time>2015-08-19T06:53:53Z</time>
      </trkpt>
      <trkpt lat="44.92159" lon="5.26445">
        <ele>594</ele>
        <time>2015-08-19T06:54:01Z</time>
      </trkpt>
      <trkpt lat="44.92139" lon="5.26434">
        <ele>594</ele>
        <time>2015-08-19T06:54:15Z</time>
      </trkpt>
      <trkpt lat="44.92136" lon="5.26429">
        <ele>594</ele>
        <time>2015-08-19T06:54:18Z</time>
      </trkpt>
      <trkpt lat="44.92132" lon="5.26425">
        <ele>594</ele>
        <time>2015-08-19T06:54:22Z</time>
      </trkpt>
      <trkpt lat="44.92129" lon="5.26421">
        <ele>594</ele>
        <time>2015-08-19T06:54:25Z</time>
      </trkpt>
      <trkpt lat="44.921" lon="5.26399">
        <ele>594</ele>
        <time>2015-08-19T06:54:57Z</time>
      </trkpt>
      <trkpt lat="44.92092" lon="5.26394">
        <ele>594</ele>
        <time>2015-08-19T06:55:05Z</time>
      </trkpt>
      <trkpt lat="44.92083" lon="5.26391">
        <ele>595</ele>
        <time>2015-08-19T06:55:13Z</time>
      </trkpt>
      <trkpt lat="44.92081" lon="5.2638">
        <ele>595</ele>
        <time>2015-08-19T06:55:19Z</time>
      </trkpt>
      <trkpt lat="44.92077" lon="5.26376">
        <ele>595</ele>
        <time>2015-08-19T06:55:23Z</time>
      </trkpt>
      <trkpt lat="44.92069" lon="5.26371">
        <ele>596</ele>
        <time>2015-08-19T06:55:30Z</time>
      </trkpt>
      <trkpt lat="44.92065" lon="5.26371">
        <ele>596</ele>
        <time>2015-08-19T06:55:33Z</time>
      </trkpt>
      <trkpt lat="44.92059" lon="5.26372">
        <ele>596</ele>
        <time>2015-08-19T06:57:07Z</time>
      </trkpt>
      <trkpt lat="44.92058" lon="5.26371">
        <ele>596</ele>
        <time>2015-08-19T06:57:42Z</time>
      </trkpt>
      <trkpt lat="44.92057" lon="5.26369">
        <ele>596</ele>
        <time>2015-08-19T06:57:50Z</time>
      </trkpt>
      <trkpt lat="44.92057" lon="5.26365">
        <ele>596</ele>
        <time>2015-08-19T07:00:30Z</time>
      </trkpt>
      <trkpt lat="44.92059" lon="5.2636">
        <ele>596</ele>
        <time>2015-08-19T07:00:33Z</time>
      </trkpt>
      <trkpt lat="44.9206" lon="5.2636">
        <ele>596</ele>
        <time>2015-08-19T07:00:36Z</time>
      </trkpt>
      <trkpt lat="44.92061" lon="5.26358">
        <ele>596</ele>
        <time>2015-08-19T07:00:37Z</time>
      </trkpt>
      <trkpt lat="44.92074" lon="5.26346">
        <ele>597</ele>
        <time>2015-08-19T07:00:48Z</time>
      </trkpt>
      <trkpt lat="44.92077" lon="5.26348">
        <ele>597</ele>
        <time>2015-08-19T07:00:50Z</time>
      </trkpt>
      <trkpt lat="44.92085" lon="5.2635">
        <ele>597</ele>
        <time>2015-08-19T07:00:56Z</time>
      </trkpt>
      <trkpt lat="44.92088" lon="5.26347">
        <ele>597</ele>
        <time>2015-08-19T07:00:59Z</time>
      </trkpt>
      <trkpt lat="44.9211" lon="5.26348">
        <ele>596</ele>
        <time>2015-08-19T07:01:21Z</time>
      </trkpt>
      <trkpt lat="44.92112" lon="5.26344">
        <ele>596</ele>
        <time>2015-08-19T07:01:22Z</time>
      </trkpt>
      <trkpt lat="44.9212" lon="5.26345">
        <ele>596</ele>
        <time>2015-08-19T07:01:26Z</time>
      </trkpt>
      <trkpt lat="44.92126" lon="5.26337">
        <ele>596</ele>
        <time>2015-08-19T07:01:30Z</time>
      </trkpt>
      <trkpt lat="44.9213" lon="5.26338">
        <ele>596</ele>
        <time>2015-08-19T07:01:32Z</time>
      </trkpt>
      <trkpt lat="44.92135" lon="5.26335">
        <ele>596</ele>
        <time>2015-08-19T07:01:39Z</time>
      </trkpt>
      <trkpt lat="44.92174" lon="5.26339">
        <ele>598</ele>
        <time>2015-08-19T07:02:10Z</time>
      </trkpt>
      <trkpt lat="44.9221" lon="5.26339">
        <ele>598</ele>
        <time>2015-08-19T07:02:41Z</time>
      </trkpt>
      <trkpt lat="44.92216" lon="5.26341">
        <ele>598</ele>
        <time>2015-08-19T07:02:44Z</time>
      </trkpt>
      <trkpt lat="44.92217" lon="5.26342">
        <ele>598</ele>
        <time>2015-08-19T07:02:46Z</time>
      </trkpt>
      <trkpt lat="44.92229" lon="5.26346">
        <ele>599</ele>
        <time>2015-08-19T07:02:56Z</time>
      </trkpt>
      <trkpt lat="44.9223" lon="5.26348">
        <ele>599</ele>
        <time>2015-08-19T07:02:58Z</time>
      </trkpt>
      <trkpt lat="44.92261" lon="5.26365">
        <ele>599</ele>
        <time>2015-08-19T07:03:25Z</time>
      </trkpt>
      <trkpt lat="44.92262" lon="5.26364">
        <ele>599</ele>
        <time>2015-08-19T07:03:27Z</time>
      </trkpt>
      <trkpt lat="44.92297" lon="5.26356">
        <ele>599</ele>
        <time>2015-08-19T07:03:57Z</time>
      </trkpt>
      <trkpt lat="44.92308" lon="5.26352">
        <ele>600</ele>
        <time>2015-08-19T07:04:04Z</time>
      </trkpt>
      <trkpt lat="44.92316" lon="5.26345">
        <ele>601</ele>
        <time>2015-08-19T07:04:14Z</time>
      </trkpt>
      <trkpt lat="44.92357" lon="5.26355">
        <ele>600</ele>
        <time>2015-08-19T07:04:43Z</time>
      </trkpt>
      <trkpt lat="44.92388" lon="5.26364">
        <ele>599</ele>
        <time>2015-08-19T07:05:13Z</time>
      </trkpt>
      <trkpt lat="44.92418" lon="5.26367">
        <ele>598</ele>
        <time>2015-08-19T07:05:43Z</time>
      </trkpt>
      <trkpt lat="44.92465" lon="5.26373">
        <ele>597</ele>
        <time>2015-08-19T07:06:14Z</time>
      </trkpt>
      <trkpt lat="44.92505" lon="5.26354">
        <ele>598</ele>
        <time>2015-08-19T07:06:49Z</time>
      </trkpt>
      <trkpt lat="44.92508" lon="5.26348">
        <ele>598</ele>
        <time>2015-08-19T07:06:53Z</time>
      </trkpt>
      <trkpt lat="44.92531" lon="5.26313">
        <ele>605</ele>
        <time>2015-08-19T07:07:24Z</time>
      </trkpt>
      <trkpt lat="44.92537" lon="5.26301">
        <ele>605</ele>
        <time>2015-08-19T07:07:34Z</time>
      </trkpt>
      <trkpt lat="44.92541" lon="5.26301">
        <ele>605</ele>
        <time>2015-08-19T07:07:37Z</time>
      </trkpt>
      <trkpt lat="44.92548" lon="5.26287">
        <ele>606</ele>
        <time>2015-08-19T07:07:46Z</time>
      </trkpt>
      <trkpt lat="44.92551" lon="5.26286">
        <ele>606</ele>
        <time>2015-08-19T07:07:49Z</time>
      </trkpt>
      <trkpt lat="44.92554" lon="5.26278">
        <ele>607</ele>
        <time>2015-08-19T07:07:54Z</time>
      </trkpt>
      <trkpt lat="44.92558" lon="5.26277">
        <ele>607</ele>
        <time>2015-08-19T07:07:57Z</time>
      </trkpt>
      <trkpt lat="44.92577" lon="5.26241">
        <ele>611</ele>
        <time>2015-08-19T07:08:27Z</time>
      </trkpt>
      <trkpt lat="44.92579" lon="5.2624">
        <ele>611</ele>
        <time>2015-08-19T07:08:29Z</time>
      </trkpt>
      <trkpt lat="44.9258" lon="5.26237">
        <ele>612</ele>
        <time>2015-08-19T07:08:31Z</time>
      </trkpt>
      <trkpt lat="44.92585" lon="5.2623">
        <ele>610</ele>
        <time>2015-08-19T07:08:38Z</time>
      </trkpt>
      <trkpt lat="44.92585" lon="5.26226">
        <ele>610</ele>
        <time>2015-08-19T07:08:40Z</time>
      </trkpt>
      <trkpt lat="44.92587" lon="5.26225">
        <ele>610</ele>
        <time>2015-08-19T07:08:42Z</time>
      </trkpt>
      <trkpt lat="44.92587" lon="5.26216">
        <ele>610</ele>
        <time>2015-08-19T07:08:46Z</time>
      </trkpt>
      <trkpt lat="44.92589" lon="5.26215">
        <ele>610</ele>
        <time>2015-08-19T07:08:48Z</time>
      </trkpt>
      <trkpt lat="44.9259" lon="5.26211">
        <ele>611</ele>
        <time>2015-08-19T07:08:50Z</time>
      </trkpt>
      <trkpt lat="44.92592" lon="5.26209">
        <ele>611</ele>
        <time>2015-08-19T07:08:53Z</time>
      </trkpt>
      <trkpt lat="44.92593" lon="5.26204">
        <ele>611</ele>
        <time>2015-08-19T07:08:55Z</time>
      </trkpt>
      <trkpt lat="44.92596" lon="5.262">
        <ele>611</ele>
        <time>2015-08-19T07:08:59Z</time>
      </trkpt>
      <trkpt lat="44.92607" lon="5.26176">
        <ele>612</ele>
        <time>2015-08-19T07:09:19Z</time>
      </trkpt>
      <trkpt lat="44.92606" lon="5.26174">
        <ele>612</ele>
        <time>2015-08-19T07:09:21Z</time>
      </trkpt>
      <trkpt lat="44.92623" lon="5.26147">
        <ele>617</ele>
        <time>2015-08-19T07:10:09Z</time>
      </trkpt>
      <trkpt lat="44.92622" lon="5.26144">
        <ele>617</ele>
        <time>2015-08-19T07:10:12Z</time>
      </trkpt>
      <trkpt lat="44.92625" lon="5.26142">
        <ele>617</ele>
        <time>2015-08-19T07:10:15Z</time>
      </trkpt>
      <trkpt lat="44.92642" lon="5.26102">
        <ele>618</ele>
        <time>2015-08-19T07:10:46Z</time>
      </trkpt>
      <trkpt lat="44.92642" lon="5.26095">
        <ele>618</ele>
        <time>2015-08-19T07:10:51Z</time>
      </trkpt>
      <trkpt lat="44.92642" lon="5.26087">
        <ele>618</ele>
        <time>2015-08-19T07:10:57Z</time>
      </trkpt>
      <trkpt lat="44.92645" lon="5.26078">
        <ele>623</ele>
        <time>2015-08-19T07:11:03Z</time>
      </trkpt>
      <trkpt lat="44.92647" lon="5.26077">
        <ele>623</ele>
        <time>2015-08-19T07:11:06Z</time>
      </trkpt>
      <trkpt lat="44.92649" lon="5.26074">
        <ele>623</ele>
        <time>2015-08-19T07:11:08Z</time>
      </trkpt>
      <trkpt lat="44.9265" lon="5.26067">
        <ele>623</ele>
        <time>2015-08-19T07:11:10Z</time>
      </trkpt>
      <trkpt lat="44.92656" lon="5.26048">
        <ele>625</ele>
        <time>2015-08-19T07:11:23Z</time>
      </trkpt>
      <trkpt lat="44.92664" lon="5.26041">
        <ele>625</ele>
        <time>2015-08-19T07:11:31Z</time>
      </trkpt>
      <trkpt lat="44.92677" lon="5.2601">
        <ele>624</ele>
        <time>2015-08-19T07:11:54Z</time>
      </trkpt>
      <trkpt lat="44.9268" lon="5.2601">
        <ele>624</ele>
        <time>2015-08-19T07:11:56Z</time>
      </trkpt>
      <trkpt lat="44.92683" lon="5.25999">
        <ele>629</ele>
        <time>2015-08-19T07:12:03Z</time>
      </trkpt>
      <trkpt lat="44.92687" lon="5.25996">
        <ele>630</ele>
        <time>2015-08-19T07:12:07Z</time>
      </trkpt>
      <trkpt lat="44.92692" lon="5.25992">
        <ele>630</ele>
        <time>2015-08-19T07:12:12Z</time>
      </trkpt>
      <trkpt lat="44.92692" lon="5.25987">
        <ele>630</ele>
        <time>2015-08-19T07:12:14Z</time>
      </trkpt>
      <trkpt lat="44.92694" lon="5.25984">
        <ele>630</ele>
        <time>2015-08-19T07:12:16Z</time>
      </trkpt>
      <trkpt lat="44.92706" lon="5.25968">
        <ele>631</ele>
        <time>2015-08-19T07:12:33Z</time>
      </trkpt>
      <trkpt lat="44.9271" lon="5.25967">
        <ele>631</ele>
        <time>2015-08-19T07:12:37Z</time>
      </trkpt>
      <trkpt lat="44.92711" lon="5.25963">
        <ele>631</ele>
        <time>2015-08-19T07:12:41Z</time>
      </trkpt>
      <trkpt lat="44.92713" lon="5.25962">
        <ele>631</ele>
        <time>2015-08-19T07:12:43Z</time>
      </trkpt>
      <trkpt lat="44.92737" lon="5.25936">
        <ele>634</ele>
        <time>2015-08-19T07:13:14Z</time>
      </trkpt>
      <trkpt lat="44.92742" lon="5.25929">
        <ele>635</ele>
        <time>2015-08-19T07:13:20Z</time>
      </trkpt>
      <trkpt lat="44.92744" lon="5.2593">
        <ele>635</ele>
        <time>2015-08-19T07:13:22Z</time>
      </trkpt>
      <trkpt lat="44.92746" lon="5.25928">
        <ele>635</ele>
        <time>2015-08-19T07:13:24Z</time>
      </trkpt>
      <trkpt lat="44.92753" lon="5.25923">
        <ele>636</ele>
        <time>2015-08-19T07:13:37Z</time>
      </trkpt>
      <trkpt lat="44.92754" lon="5.25919">
        <ele>636</ele>
        <time>2015-08-19T07:13:41Z</time>
      </trkpt>
      <trkpt lat="44.92756" lon="5.25919">
        <ele>636</ele>
        <time>2015-08-19T07:13:45Z</time>
      </trkpt>
      <trkpt lat="44.92757" lon="5.25916">
        <ele>640</ele>
        <time>2015-08-19T07:13:47Z</time>
      </trkpt>
      <trkpt lat="44.92759" lon="5.25915">
        <ele>641</ele>
        <time>2015-08-19T07:13:50Z</time>
      </trkpt>
      <trkpt lat="44.9276" lon="5.25914">
        <ele>641</ele>
        <time>2015-08-19T07:13:51Z</time>
      </trkpt>
      <trkpt lat="44.92762" lon="5.25913">
        <ele>642</ele>
        <time>2015-08-19T07:13:55Z</time>
      </trkpt>
      <trkpt lat="44.92775" lon="5.25894">
        <ele>646</ele>
        <time>2015-08-19T07:14:21Z</time>
      </trkpt>
      <trkpt lat="44.92777" lon="5.25894">
        <ele>646</ele>
        <time>2015-08-19T07:14:22Z</time>
      </trkpt>
      <trkpt lat="44.92777" lon="5.25892">
        <ele>646</ele>
        <time>2015-08-19T07:14:24Z</time>
      </trkpt>
      <trkpt lat="44.92778" lon="5.25889">
        <ele>647</ele>
        <time>2015-08-19T07:14:27Z</time>
      </trkpt>
      <trkpt lat="44.92795" lon="5.25877">
        <ele>648</ele>
        <time>2015-08-19T07:14:46Z</time>
      </trkpt>
      <trkpt lat="44.92802" lon="5.25872">
        <ele>649</ele>
        <time>2015-08-19T07:14:57Z</time>
      </trkpt>
      <trkpt lat="44.92805" lon="5.25872">
        <ele>649</ele>
        <time>2015-08-19T07:15:01Z</time>
      </trkpt>
      <trkpt lat="44.92817" lon="5.25864">
        <ele>650</ele>
        <time>2015-08-19T07:15:14Z</time>
      </trkpt>
      <trkpt lat="44.92842" lon="5.25854">
        <ele>652</ele>
        <time>2015-08-19T07:15:45Z</time>
      </trkpt>
      <trkpt lat="44.92845" lon="5.25853">
        <ele>652</ele>
        <time>2015-08-19T07:15:48Z</time>
      </trkpt>
      <trkpt lat="44.92847" lon="5.2585">
        <ele>652</ele>
        <time>2015-08-19T07:15:50Z</time>
      </trkpt>
      <trkpt lat="44.92851" lon="5.25849">
        <ele>652</ele>
        <time>2015-08-19T07:15:53Z</time>
      </trkpt>
      <trkpt lat="44.92853" lon="5.25847">
        <ele>652</ele>
        <time>2015-08-19T07:15:55Z</time>
      </trkpt>
      <trkpt lat="44.92855" lon="5.25846">
        <ele>652</ele>
        <time>2015-08-19T07:15:57Z</time>
      </trkpt>
      <trkpt lat="44.92859" lon="5.25847">
        <ele>652</ele>
        <time>2015-08-19T07:16:01Z</time>
      </trkpt>
      <trkpt lat="44.92862" lon="5.25843">
        <ele>652</ele>
        <time>2015-08-19T07:16:03Z</time>
      </trkpt>
      <trkpt lat="44.92866" lon="5.25843">
        <ele>651</ele>
        <time>2015-08-19T07:16:06Z</time>
      </trkpt>
      <trkpt lat="44.92871" lon="5.25839">
        <ele>651</ele>
        <time>2015-08-19T07:16:12Z</time>
      </trkpt>
      <trkpt lat="44.92873" lon="5.2584">
        <ele>651</ele>
        <time>2015-08-19T07:16:14Z</time>
      </trkpt>
      <trkpt lat="44.92874" lon="5.25837">
        <ele>652</ele>
        <time>2015-08-19T07:16:16Z</time>
      </trkpt>
      <trkpt lat="44.9288" lon="5.25832">
        <ele>669</ele>
        <time>2015-08-19T07:16:23Z</time>
      </trkpt>
      <trkpt lat="44.92882" lon="5.25833">
        <ele>669</ele>
        <time>2015-08-19T07:16:28Z</time>
      </trkpt>
      <trkpt lat="44.92891" lon="5.25832">
        <ele>668</ele>
        <time>2015-08-19T07:16:35Z</time>
      </trkpt>
      <trkpt lat="44.92894" lon="5.25828">
        <ele>668</ele>
        <time>2015-08-19T07:16:43Z</time>
      </trkpt>
      <trkpt lat="44.92908" lon="5.25821">
        <ele>667</ele>
        <time>2015-08-19T07:16:56Z</time>
      </trkpt>
      <trkpt lat="44.92927" lon="5.25805">
        <ele>670</ele>
        <time>2015-08-19T07:17:18Z</time>
      </trkpt>
      <trkpt lat="44.92935" lon="5.25803">
        <ele>671</ele>
        <time>2015-08-19T07:17:38Z</time>
      </trkpt>
      <trkpt lat="44.9294" lon="5.25797">
        <ele>673</ele>
        <time>2015-08-19T07:17:41Z</time>
      </trkpt>
      <trkpt lat="44.92947" lon="5.25798">
        <ele>672</ele>
        <time>2015-08-19T07:17:43Z</time>
      </trkpt>
      <trkpt lat="44.92951" lon="5.25794">
        <ele>673</ele>
        <time>2015-08-19T07:17:47Z</time>
      </trkpt>
      <trkpt lat="44.92967" lon="5.25787">
        <ele>674</ele>
        <time>2015-08-19T07:18:01Z</time>
      </trkpt>
      <trkpt lat="44.9297" lon="5.25782">
        <ele>675</ele>
        <time>2015-08-19T07:18:04Z</time>
      </trkpt>
      <trkpt lat="44.92982" lon="5.2578">
        <ele>676</ele>
        <time>2015-08-19T07:18:12Z</time>
      </trkpt>
      <trkpt lat="44.92986" lon="5.25775">
        <ele>678</ele>
        <time>2015-08-19T07:20:37Z</time>
      </trkpt>
      <trkpt lat="44.92996" lon="5.25761">
        <ele>684</ele>
        <time>2015-08-19T07:20:47Z</time>
      </trkpt>
      <trkpt lat="44.93001" lon="5.2576">
        <ele>682</ele>
        <time>2015-08-19T07:20:53Z</time>
      </trkpt>
      <trkpt lat="44.93009" lon="5.25754">
        <ele>683</ele>
        <time>2015-08-19T07:21:03Z</time>
      </trkpt>
      <trkpt lat="44.93018" lon="5.25748">
        <ele>694</ele>
        <time>2015-08-19T07:21:14Z</time>
      </trkpt>
      <trkpt lat="44.93024" lon="5.25739">
        <ele>695</ele>
        <time>2015-08-19T07:21:25Z</time>
      </trkpt>
      <trkpt lat="44.93034" lon="5.25742">
        <ele>694</ele>
        <time>2015-08-19T07:21:32Z</time>
      </trkpt>
      <trkpt lat="44.93061" lon="5.25723">
        <ele>694</ele>
        <time>2015-08-19T07:22:09Z</time>
      </trkpt>
      <trkpt lat="44.93068" lon="5.25722">
        <ele>693</ele>
        <time>2015-08-19T07:22:11Z</time>
      </trkpt>
      <trkpt lat="44.93071" lon="5.25716">
        <ele>694</ele>
        <time>2015-08-19T07:22:13Z</time>
      </trkpt>
      <trkpt lat="44.93086" lon="5.25706">
        <ele>688</ele>
        <time>2015-08-19T07:22:31Z</time>
      </trkpt>
      <trkpt lat="44.93088" lon="5.25707">
        <ele>688</ele>
        <time>2015-08-19T07:22:33Z</time>
      </trkpt>
      <trkpt lat="44.93094" lon="5.25706">
        <ele>688</ele>
        <time>2015-08-19T07:22:46Z</time>
      </trkpt>
      <trkpt lat="44.93131" lon="5.25688">
        <ele>690</ele>
        <time>2015-08-19T07:23:16Z</time>
      </trkpt>
      <trkpt lat="44.93133" lon="5.25687">
        <ele>690</ele>
        <time>2015-08-19T07:23:17Z</time>
      </trkpt>
      <trkpt lat="44.93137" lon="5.25687">
        <ele>690</ele>
        <time>2015-08-19T07:23:19Z</time>
      </trkpt>
      <trkpt lat="44.9317" lon="5.25675">
        <ele>692</ele>
        <time>2015-08-19T07:23:49Z</time>
      </trkpt>
      <trkpt lat="44.93202" lon="5.25656">
        <ele>706</ele>
        <time>2015-08-19T07:24:20Z</time>
      </trkpt>
      <trkpt lat="44.93211" lon="5.2565">
        <ele>706</ele>
        <time>2015-08-19T07:24:27Z</time>
      </trkpt>
      <trkpt lat="44.93214" lon="5.25644">
        <ele>707</ele>
        <time>2015-08-19T07:24:31Z</time>
      </trkpt>
      <trkpt lat="44.93222" lon="5.25637">
        <ele>707</ele>
        <time>2015-08-19T07:24:39Z</time>
      </trkpt>
      <trkpt lat="44.93223" lon="5.2563">
        <ele>709</ele>
        <time>2015-08-19T07:24:44Z</time>
      </trkpt>
      <trkpt lat="44.93236" lon="5.25622">
        <ele>710</ele>
        <time>2015-08-19T07:24:55Z</time>
      </trkpt>
      <trkpt lat="44.93251" lon="5.25613">
        <ele>702</ele>
        <time>2015-08-19T07:25:11Z</time>
      </trkpt>
      <trkpt lat="44.93255" lon="5.25602">
        <ele>707</ele>
        <time>2015-08-19T07:25:41Z</time>
      </trkpt>
      <trkpt lat="44.9326" lon="5.256">
        <ele>707</ele>
        <time>2015-08-19T07:25:48Z</time>
      </trkpt>
      <trkpt lat="44.93266" lon="5.25592">
        <ele>707</ele>
        <time>2015-08-19T07:25:59Z</time>
      </trkpt>
      <trkpt lat="44.93272" lon="5.25586">
        <ele>706</ele>
        <time>2015-08-19T07:26:07Z</time>
      </trkpt>
      <trkpt lat="44.93289" lon="5.25558">
        <ele>722</ele>
        <time>2015-08-19T07:26:37Z</time>
      </trkpt>
      <trkpt lat="44.93301" lon="5.25547">
        <ele>722</ele>
        <time>2015-08-19T07:26:53Z</time>
      </trkpt>
      <trkpt lat="44.9331" lon="5.25532">
        <ele>724</ele>
        <time>2015-08-19T07:27:10Z</time>
      </trkpt>
      <trkpt lat="44.93313" lon="5.25527">
        <ele>724</ele>
        <time>2015-08-19T07:27:18Z</time>
      </trkpt>
      <trkpt lat="44.93315" lon="5.25508">
        <ele>726</ele>
        <time>2015-08-19T07:27:35Z</time>
      </trkpt>
      <trkpt lat="44.9332" lon="5.25481">
        <ele>741</ele>
        <time>2015-08-19T07:27:56Z</time>
      </trkpt>
      <trkpt lat="44.9333" lon="5.25465">
        <ele>744</ele>
        <time>2015-08-19T07:28:10Z</time>
      </trkpt>
      <trkpt lat="44.93332" lon="5.25458">
        <ele>746</ele>
        <time>2015-08-19T07:28:15Z</time>
      </trkpt>
      <trkpt lat="44.93333" lon="5.25447">
        <ele>747</ele>
        <time>2015-08-19T07:28:28Z</time>
      </trkpt>
      <trkpt lat="44.93331" lon="5.25439">
        <ele>747</ele>
        <time>2015-08-19T07:28:37Z</time>
      </trkpt>
      <trkpt lat="44.93332" lon="5.25432">
        <ele>747</ele>
        <time>2015-08-19T07:28:45Z</time>
      </trkpt>
      <trkpt lat="44.93333" lon="5.25425">
        <ele>746</ele>
        <time>2015-08-19T07:28:53Z</time>
      </trkpt>
      <trkpt lat="44.93328" lon="5.2542">
        <ele>745</ele>
        <time>2015-08-19T07:28:57Z</time>
      </trkpt>
      <trkpt lat="44.93326" lon="5.25414">
        <ele>752</ele>
        <time>2015-08-19T07:29:04Z</time>
      </trkpt>
      <trkpt lat="44.93322" lon="5.25389">
        <ele>765</ele>
        <time>2015-08-19T07:29:26Z</time>
      </trkpt>
      <trkpt lat="44.93328" lon="5.25366">
        <ele>767</ele>
        <time>2015-08-19T07:29:49Z</time>
      </trkpt>
      <trkpt lat="44.93327" lon="5.2536">
        <ele>767</ele>
        <time>2015-08-19T07:29:54Z</time>
      </trkpt>
      <trkpt lat="44.93324" lon="5.25354">
        <ele>767</ele>
        <time>2015-08-19T07:29:58Z</time>
      </trkpt>
      <trkpt lat="44.93321" lon="5.25342">
        <ele>766</ele>
        <time>2015-08-19T07:30:06Z</time>
      </trkpt>
      <trkpt lat="44.93322" lon="5.25339">
        <ele>765</ele>
        <time>2015-08-19T07:30:09Z</time>
      </trkpt>
      <trkpt lat="44.93323" lon="5.25335">
        <ele>764</ele>
        <time>2015-08-19T07:30:26Z</time>
      </trkpt>
      <trkpt lat="44.93323" lon="5.25322">
        <ele>775</ele>
        <time>2015-08-19T07:30:34Z</time>
      </trkpt>
      <trkpt lat="44.93321" lon="5.25319">
        <ele>778</ele>
        <time>2015-08-19T07:30:37Z</time>
      </trkpt>
      <trkpt lat="44.93326" lon="5.25326">
        <ele>770</ele>
        <time>2015-08-19T07:30:47Z</time>
      </trkpt>
      <trkpt lat="44.93321" lon="5.25315">
        <ele>779</ele>
        <time>2015-08-19T07:31:28Z</time>
      </trkpt>
      <trkpt lat="44.93326" lon="5.253">
        <ele>784</ele>
        <time>2015-08-19T07:31:35Z</time>
      </trkpt>
      <trkpt lat="44.93325" lon="5.25288">
        <ele>786</ele>
        <time>2015-08-19T07:31:39Z</time>
      </trkpt>
      <trkpt lat="44.9333" lon="5.25276">
        <ele>785</ele>
        <time>2015-08-19T07:31:45Z</time>
      </trkpt>
      <trkpt lat="44.93332" lon="5.25269">
        <ele>784</ele>
        <time>2015-08-19T07:31:50Z</time>
      </trkpt>
      <trkpt lat="44.93334" lon="5.25262">
        <ele>763</ele>
        <time>2015-08-19T07:31:56Z</time>
      </trkpt>
      <trkpt lat="44.93337" lon="5.25238">
        <ele>771</ele>
        <time>2015-08-19T07:32:16Z</time>
      </trkpt>
      <trkpt lat="44.93333" lon="5.25229">
        <ele>794</ele>
        <time>2015-08-19T07:32:21Z</time>
      </trkpt>
      <trkpt lat="44.93335" lon="5.25218">
        <ele>772</ele>
        <time>2015-08-19T07:32:54Z</time>
      </trkpt>
      <trkpt lat="44.93334" lon="5.25209">
        <ele>774</ele>
        <time>2015-08-19T07:32:57Z</time>
      </trkpt>
      <trkpt lat="44.93337" lon="5.25201">
        <ele>776</ele>
        <time>2015-08-19T07:33:02Z</time>
      </trkpt>
      <trkpt lat="44.93348" lon="5.25195">
        <ele>776</ele>
        <time>2015-08-19T07:33:12Z</time>
      </trkpt>
      <trkpt lat="44.93351" lon="5.2519">
        <ele>777</ele>
        <time>2015-08-19T07:33:16Z</time>
      </trkpt>
      <trkpt lat="44.93354" lon="5.25185">
        <ele>777</ele>
        <time>2015-08-19T07:33:22Z</time>
      </trkpt>
      <trkpt lat="44.9336" lon="5.2518">
        <ele>776</ele>
        <time>2015-08-19T07:33:27Z</time>
      </trkpt>
      <trkpt lat="44.9336" lon="5.25172">
        <ele>777</ele>
        <time>2015-08-19T07:33:32Z</time>
      </trkpt>
      <trkpt lat="44.93358" lon="5.25158">
        <ele>793</ele>
        <time>2015-08-19T07:33:44Z</time>
      </trkpt>
      <trkpt lat="44.93364" lon="5.25147">
        <ele>792</ele>
        <time>2015-08-19T07:33:55Z</time>
      </trkpt>
      <trkpt lat="44.93363" lon="5.2514">
        <ele>793</ele>
        <time>2015-08-19T07:34:04Z</time>
      </trkpt>
      <trkpt lat="44.9337" lon="5.25132">
        <ele>792</ele>
        <time>2015-08-19T07:34:12Z</time>
      </trkpt>
      <trkpt lat="44.9337" lon="5.25119">
        <ele>795</ele>
        <time>2015-08-19T07:34:29Z</time>
      </trkpt>
      <trkpt lat="44.93367" lon="5.25129">
        <ele>794</ele>
        <time>2015-08-19T07:35:40Z</time>
      </trkpt>
      <trkpt lat="44.93363" lon="5.25132">
        <ele>794</ele>
        <time>2015-08-19T07:35:48Z</time>
      </trkpt>
      <trkpt lat="44.93351" lon="5.25138">
        <ele>796</ele>
        <time>2015-08-19T07:36:06Z</time>
      </trkpt>
      <trkpt lat="44.93349" lon="5.25144">
        <ele>796</ele>
        <time>2015-08-19T07:36:12Z</time>
      </trkpt>
      <trkpt lat="44.93348" lon="5.25152">
        <ele>796</ele>
        <time>2015-08-19T07:36:16Z</time>
      </trkpt>
      <trkpt lat="44.93343" lon="5.25156">
        <ele>797</ele>
        <time>2015-08-19T07:36:20Z</time>
      </trkpt>
      <trkpt lat="44.93339" lon="5.25159">
        <ele>798</ele>
        <time>2015-08-19T07:36:28Z</time>
      </trkpt>
      <trkpt lat="44.93334" lon="5.25156">
        <ele>799</ele>
        <time>2015-08-19T07:36:35Z</time>
      </trkpt>
      <trkpt lat="44.9333" lon="5.2515">
        <ele>816</ele>
        <time>2015-08-19T07:36:40Z</time>
      </trkpt>
      <trkpt lat="44.93333" lon="5.25136">
        <ele>822</ele>
        <time>2015-08-19T07:37:03Z</time>
      </trkpt>
      <trkpt lat="44.93333" lon="5.25123">
        <ele>826</ele>
        <time>2015-08-19T07:37:24Z</time>
      </trkpt>
      <trkpt lat="44.93336" lon="5.25118">
        <ele>803</ele>
        <time>2015-08-19T07:37:28Z</time>
      </trkpt>
      <trkpt lat="44.93337" lon="5.25111">
        <ele>806</ele>
        <time>2015-08-19T07:37:31Z</time>
      </trkpt>
      <trkpt lat="44.93343" lon="5.25101">
        <ele>810</ele>
        <time>2015-08-19T07:37:38Z</time>
      </trkpt>
      <trkpt lat="44.93346" lon="5.25091">
        <ele>814</ele>
        <time>2015-08-19T07:37:53Z</time>
      </trkpt>
      <trkpt lat="44.9335" lon="5.25089">
        <ele>811</ele>
        <time>2015-08-19T07:38:07Z</time>
      </trkpt>
      <trkpt lat="44.93349" lon="5.25085">
        <ele>813</ele>
        <time>2015-08-19T07:38:55Z</time>
      </trkpt>
      <trkpt lat="44.93348" lon="5.25079">
        <ele>827</ele>
        <time>2015-08-19T07:38:58Z</time>
      </trkpt>
      <trkpt lat="44.9335" lon="5.25071">
        <ele>827</ele>
        <time>2015-08-19T07:39:02Z</time>
      </trkpt>
      <trkpt lat="44.93349" lon="5.25064">
        <ele>827</ele>
        <time>2015-08-19T07:39:06Z</time>
      </trkpt>
      <trkpt lat="44.93351" lon="5.25057">
        <ele>828</ele>
        <time>2015-08-19T07:39:10Z</time>
      </trkpt>
      <trkpt lat="44.93353" lon="5.25045">
        <ele>830</ele>
        <time>2015-08-19T07:39:24Z</time>
      </trkpt>
      <trkpt lat="44.9336" lon="5.25034">
        <ele>831</ele>
        <time>2015-08-19T07:39:34Z</time>
      </trkpt>
      <trkpt lat="44.93357" lon="5.25029">
        <ele>834</ele>
        <time>2015-08-19T07:39:41Z</time>
      </trkpt>
      <trkpt lat="44.93353" lon="5.25018">
        <ele>840</ele>
        <time>2015-08-19T07:39:57Z</time>
      </trkpt>
      <trkpt lat="44.93359" lon="5.25013">
        <ele>838</ele>
        <time>2015-08-19T07:40:02Z</time>
      </trkpt>
      <trkpt lat="44.93363" lon="5.25008">
        <ele>837</ele>
        <time>2015-08-19T07:40:05Z</time>
      </trkpt>
      <trkpt lat="44.93366" lon="5.25">
        <ele>849</ele>
        <time>2015-08-19T07:40:12Z</time>
      </trkpt>
      <trkpt lat="44.9337" lon="5.24996">
        <ele>854</ele>
        <time>2015-08-19T07:40:20Z</time>
      </trkpt>
      <trkpt lat="44.93388" lon="5.24975">
        <ele>849</ele>
        <time>2015-08-19T07:41:17Z</time>
      </trkpt>
      <trkpt lat="44.93389" lon="5.24968">
        <ele>851</ele>
        <time>2015-08-19T07:41:20Z</time>
      </trkpt>
      <trkpt lat="44.93393" lon="5.24957">
        <ele>852</ele>
        <time>2015-08-19T07:41:51Z</time>
      </trkpt>
      <trkpt lat="44.93398" lon="5.24952">
        <ele>852</ele>
        <time>2015-08-19T07:41:55Z</time>
      </trkpt>
      <trkpt lat="44.93399" lon="5.24938">
        <ele>854</ele>
        <time>2015-08-19T07:42:04Z</time>
      </trkpt>
      <trkpt lat="44.93413" lon="5.24919">
        <ele>852</ele>
        <time>2015-08-19T07:42:33Z</time>
      </trkpt>
      <trkpt lat="44.93437" lon="5.24911">
        <ele>857</ele>
        <time>2015-08-19T07:42:52Z</time>
      </trkpt>
      <trkpt lat="44.93446" lon="5.24905">
        <ele>858</ele>
        <time>2015-08-19T07:43:06Z</time>
      </trkpt>
      <trkpt lat="44.93453" lon="5.24897">
        <ele>859</ele>
        <time>2015-08-19T07:43:12Z</time>
      </trkpt>
      <trkpt lat="44.93458" lon="5.24894">
        <ele>859</ele>
        <time>2015-08-19T07:43:16Z</time>
      </trkpt>
      <trkpt lat="44.93466" lon="5.24886">
        <ele>860</ele>
        <time>2015-08-19T07:43:37Z</time>
      </trkpt>
      <trkpt lat="44.93468" lon="5.2488">
        <ele>861</ele>
        <time>2015-08-19T07:43:40Z</time>
      </trkpt>
      <trkpt lat="44.93483" lon="5.24875">
        <ele>861</ele>
        <time>2015-08-19T07:43:54Z</time>
      </trkpt>
      <trkpt lat="44.93499" lon="5.24874">
        <ele>861</ele>
        <time>2015-08-19T07:44:13Z</time>
      </trkpt>
      <trkpt lat="44.9351" lon="5.2487">
        <ele>854</ele>
        <time>2015-08-19T07:44:45Z</time>
      </trkpt>
      <trkpt lat="44.93525" lon="5.24863">
        <ele>854</ele>
        <time>2015-08-19T07:45:01Z</time>
      </trkpt>
      <trkpt lat="44.93535" lon="5.24859">
        <ele>854</ele>
        <time>2015-08-19T07:45:23Z</time>
      </trkpt>
      <trkpt lat="44.93544" lon="5.24856">
        <ele>854</ele>
        <time>2015-08-19T07:45:28Z</time>
      </trkpt>
      <trkpt lat="44.93547" lon="5.2485">
        <ele>854</ele>
        <time>2015-08-19T07:45:33Z</time>
      </trkpt>
      <trkpt lat="44.93546" lon="5.24842">
        <ele>855</ele>
        <time>2015-08-19T07:46:02Z</time>
      </trkpt>
      <trkpt lat="44.93545" lon="5.24839">
        <ele>856</ele>
        <time>2015-08-19T07:46:11Z</time>
      </trkpt>
      <trkpt lat="44.93543" lon="5.24838">
        <ele>856</ele>
        <time>2015-08-19T07:47:06Z</time>
      </trkpt>
      <trkpt lat="44.93542" lon="5.24838">
        <ele>856</ele>
        <time>2015-08-19T07:47:08Z</time>
      </trkpt>
      <trkpt lat="44.93533" lon="5.24833">
        <ele>874</ele>
        <time>2015-08-19T07:47:19Z</time>
      </trkpt>
      <trkpt lat="44.93531" lon="5.24833">
        <ele>874</ele>
        <time>2015-08-19T07:47:21Z</time>
      </trkpt>
      <trkpt lat="44.93507" lon="5.24826">
        <ele>876</ele>
        <time>2015-08-19T07:47:51Z</time>
      </trkpt>
      <trkpt lat="44.93493" lon="5.24825">
        <ele>882</ele>
        <time>2015-08-19T07:48:06Z</time>
      </trkpt>
      <trkpt lat="44.93493" lon="5.24822">
        <ele>883</ele>
        <time>2015-08-19T07:48:08Z</time>
      </trkpt>
      <trkpt lat="44.93494" lon="5.24821">
        <ele>883</ele>
        <time>2015-08-19T07:48:10Z</time>
      </trkpt>
      <trkpt lat="44.93496" lon="5.2482">
        <ele>883</ele>
        <time>2015-08-19T07:48:15Z</time>
      </trkpt>
      <trkpt lat="44.93499" lon="5.24819">
        <ele>883</ele>
        <time>2015-08-19T07:48:20Z</time>
      </trkpt>
      <trkpt lat="44.93502" lon="5.24813">
        <ele>877</ele>
        <time>2015-08-19T07:48:28Z</time>
      </trkpt>
      <trkpt lat="44.93504" lon="5.24813">
        <ele>877</ele>
        <time>2015-08-19T07:48:31Z</time>
      </trkpt>
      <trkpt lat="44.93506" lon="5.2481">
        <ele>877</ele>
        <time>2015-08-19T07:48:34Z</time>
      </trkpt>
      <trkpt lat="44.93507" lon="5.24809">
        <ele>877</ele>
        <time>2015-08-19T07:48:36Z</time>
      </trkpt>
      <trkpt lat="44.93508" lon="5.24808">
        <ele>877</ele>
        <time>2015-08-19T07:48:38Z</time>
      </trkpt>
      <trkpt lat="44.93523" lon="5.24796">
        <ele>877</ele>
        <time>2015-08-19T07:49:11Z</time>
      </trkpt>
      <trkpt lat="44.93527" lon="5.24793">
        <ele>877</ele>
        <time>2015-08-19T07:49:16Z</time>
      </trkpt>
      <trkpt lat="44.93528" lon="5.24789">
        <ele>878</ele>
        <time>2015-08-19T07:49:20Z</time>
      </trkpt>
      <trkpt lat="44.93535" lon="5.24784">
        <ele>877</ele>
        <time>2015-08-19T07:49:44Z</time>
      </trkpt>
      <trkpt lat="44.93535" lon="5.24782">
        <ele>877</ele>
        <time>2015-08-19T07:49:47Z</time>
      </trkpt>
      <trkpt lat="44.93538" lon="5.24777">
        <ele>877</ele>
        <time>2015-08-19T07:49:52Z</time>
      </trkpt>
      <trkpt lat="44.93541" lon="5.24766">
        <ele>878</ele>
        <time>2015-08-19T07:49:59Z</time>
      </trkpt>
      <trkpt lat="44.9354" lon="5.24764">
        <ele>878</ele>
        <time>2015-08-19T07:50:06Z</time>
      </trkpt>
      <trkpt lat="44.9354" lon="5.24748">
        <ele>883</ele>
        <time>2015-08-19T07:50:21Z</time>
      </trkpt>
      <trkpt lat="44.93539" lon="5.24747">
        <ele>883</ele>
        <time>2015-08-19T07:50:22Z</time>
      </trkpt>
      <trkpt lat="44.93539" lon="5.24745">
        <ele>883</ele>
        <time>2015-08-19T07:50:24Z</time>
      </trkpt>
      <trkpt lat="44.93539" lon="5.24742">
        <ele>883</ele>
        <time>2015-08-19T07:50:26Z</time>
      </trkpt>
      <trkpt lat="44.93538" lon="5.2474">
        <ele>884</ele>
        <time>2015-08-19T07:50:27Z</time>
      </trkpt>
      <trkpt lat="44.93538" lon="5.24738">
        <ele>883</ele>
        <time>2015-08-19T07:50:29Z</time>
      </trkpt>
      <trkpt lat="44.93537" lon="5.24735">
        <ele>884</ele>
        <time>2015-08-19T07:50:31Z</time>
      </trkpt>
      <trkpt lat="44.93536" lon="5.24733">
        <ele>884</ele>
        <time>2015-08-19T07:50:32Z</time>
      </trkpt>
      <trkpt lat="44.93536" lon="5.2473">
        <ele>884</ele>
        <time>2015-08-19T07:50:45Z</time>
      </trkpt>
      <trkpt lat="44.93535" lon="5.24728">
        <ele>884</ele>
        <time>2015-08-19T07:50:47Z</time>
      </trkpt>
      <trkpt lat="44.93535" lon="5.24725">
        <ele>884</ele>
        <time>2015-08-19T07:50:49Z</time>
      </trkpt>
      <trkpt lat="44.93533" lon="5.24713">
        <ele>884</ele>
        <time>2015-08-19T07:50:57Z</time>
      </trkpt>
      <trkpt lat="44.93531" lon="5.24712">
        <ele>884</ele>
        <time>2015-08-19T07:51:00Z</time>
      </trkpt>
      <trkpt lat="44.93529" lon="5.24711">
        <ele>884</ele>
        <time>2015-08-19T07:51:02Z</time>
      </trkpt>
      <trkpt lat="44.93528" lon="5.24709">
        <ele>885</ele>
        <time>2015-08-19T07:51:03Z</time>
      </trkpt>
      <trkpt lat="44.93526" lon="5.24708">
        <ele>885</ele>
        <time>2015-08-19T07:51:06Z</time>
      </trkpt>
      <trkpt lat="44.93525" lon="5.24706">
        <ele>885</ele>
        <time>2015-08-19T07:51:08Z</time>
      </trkpt>
      <trkpt lat="44.93521" lon="5.24703">
        <ele>886</ele>
        <time>2015-08-19T07:51:12Z</time>
      </trkpt>
      <trkpt lat="44.9352" lon="5.247">
        <ele>886</ele>
        <time>2015-08-19T07:51:15Z</time>
      </trkpt>
      <trkpt lat="44.93518" lon="5.24698">
        <ele>886</ele>
        <time>2015-08-19T07:51:17Z</time>
      </trkpt>
      <trkpt lat="44.93516" lon="5.24693">
        <ele>887</ele>
        <time>2015-08-19T07:51:23Z</time>
      </trkpt>
      <trkpt lat="44.93513" lon="5.24691">
        <ele>888</ele>
        <time>2015-08-19T07:51:27Z</time>
      </trkpt>
      <trkpt lat="44.93509" lon="5.24691">
        <ele>888</ele>
        <time>2015-08-19T07:51:34Z</time>
      </trkpt>
      <trkpt lat="44.93508" lon="5.24689">
        <ele>889</ele>
        <time>2015-08-19T07:51:36Z</time>
      </trkpt>
      <trkpt lat="44.93507" lon="5.24688">
        <ele>889</ele>
        <time>2015-08-19T07:51:37Z</time>
      </trkpt>
      <trkpt lat="44.93505" lon="5.24689">
        <ele>889</ele>
        <time>2015-08-19T07:51:39Z</time>
      </trkpt>
      <trkpt lat="44.93501" lon="5.24686">
        <ele>890</ele>
        <time>2015-08-19T07:51:43Z</time>
      </trkpt>
      <trkpt lat="44.93498" lon="5.24681">
        <ele>900</ele>
        <time>2015-08-19T07:51:50Z</time>
      </trkpt>
      <trkpt lat="44.9349" lon="5.24676">
        <ele>900</ele>
        <time>2015-08-19T07:52:00Z</time>
      </trkpt>
      <trkpt lat="44.93489" lon="5.24674">
        <ele>900</ele>
        <time>2015-08-19T07:52:03Z</time>
      </trkpt>
      <trkpt lat="44.93485" lon="5.2467">
        <ele>900</ele>
        <time>2015-08-19T07:52:09Z</time>
      </trkpt>
      <trkpt lat="44.9348" lon="5.24667">
        <ele>901</ele>
        <time>2015-08-19T07:52:15Z</time>
      </trkpt>
      <trkpt lat="44.9348" lon="5.24665">
        <ele>900</ele>
        <time>2015-08-19T07:52:17Z</time>
      </trkpt>
      <trkpt lat="44.93478" lon="5.24663">
        <ele>900</ele>
        <time>2015-08-19T07:52:51Z</time>
      </trkpt>
      <trkpt lat="44.93477" lon="5.24662">
        <ele>901</ele>
        <time>2015-08-19T07:52:53Z</time>
      </trkpt>
      <trkpt lat="44.93472" lon="5.24661">
        <ele>901</ele>
        <time>2015-08-19T07:53:00Z</time>
      </trkpt>
      <trkpt lat="44.93469" lon="5.24663">
        <ele>901</ele>
        <time>2015-08-19T07:53:07Z</time>
      </trkpt>
      <trkpt lat="44.93468" lon="5.24659">
        <ele>901</ele>
        <time>2015-08-19T07:53:38Z</time>
      </trkpt>
      <trkpt lat="44.93466" lon="5.24657">
        <ele>902</ele>
        <time>2015-08-19T07:53:40Z</time>
      </trkpt>
      <trkpt lat="44.93464" lon="5.24656">
        <ele>902</ele>
        <time>2015-08-19T07:53:42Z</time>
      </trkpt>
      <trkpt lat="44.93461" lon="5.24651">
        <ele>902</ele>
        <time>2015-08-19T07:53:46Z</time>
      </trkpt>
      <trkpt lat="44.93459" lon="5.24649">
        <ele>902</ele>
        <time>2015-08-19T07:53:48Z</time>
      </trkpt>
      <trkpt lat="44.93441" lon="5.2461">
        <ele>902</ele>
        <time>2015-08-19T07:54:18Z</time>
      </trkpt>
      <trkpt lat="44.9344" lon="5.24607">
        <ele>902</ele>
        <time>2015-08-19T07:54:20Z</time>
      </trkpt>
      <trkpt lat="44.93439" lon="5.24605">
        <ele>902</ele>
        <time>2015-08-19T07:54:22Z</time>
      </trkpt>
      <trkpt lat="44.93438" lon="5.24603">
        <ele>902</ele>
        <time>2015-08-19T07:54:24Z</time>
      </trkpt>
      <trkpt lat="44.93438" lon="5.24601">
        <ele>902</ele>
        <time>2015-08-19T07:54:25Z</time>
      </trkpt>
      <trkpt lat="44.93429" lon="5.24579">
        <ele>901</ele>
        <time>2015-08-19T07:55:29Z</time>
      </trkpt>
      <trkpt lat="44.93428" lon="5.24578">
        <ele>901</ele>
        <time>2015-08-19T07:55:30Z</time>
      </trkpt>
      <trkpt lat="44.93427" lon="5.24575">
        <ele>901</ele>
        <time>2015-08-19T07:55:32Z</time>
      </trkpt>
      <trkpt lat="44.93426" lon="5.24574">
        <ele>901</ele>
        <time>2015-08-19T07:55:34Z</time>
      </trkpt>
      <trkpt lat="44.93425" lon="5.24572">
        <ele>901</ele>
        <time>2015-08-19T07:55:35Z</time>
      </trkpt>
      <trkpt lat="44.934" lon="5.24533">
        <ele>905</ele>
        <time>2015-08-19T07:56:06Z</time>
      </trkpt>
      <trkpt lat="44.93379" lon="5.24496">
        <ele>904</ele>
        <time>2015-08-19T07:56:36Z</time>
      </trkpt>
      <trkpt lat="44.93378" lon="5.24495">
        <ele>904</ele>
        <time>2015-08-19T07:56:37Z</time>
      </trkpt>
      <trkpt lat="44.93351" lon="5.24467">
        <ele>906</ele>
        <time>2015-08-19T07:57:08Z</time>
      </trkpt>
      <trkpt lat="44.9335" lon="5.24464">
        <ele>906</ele>
        <time>2015-08-19T07:57:10Z</time>
      </trkpt>
      <trkpt lat="44.93348" lon="5.24462">
        <ele>906</ele>
        <time>2015-08-19T07:57:12Z</time>
      </trkpt>
      <trkpt lat="44.9332" lon="5.24447">
        <ele>914</ele>
        <time>2015-08-19T07:57:42Z</time>
      </trkpt>
      <trkpt lat="44.93317" lon="5.24446">
        <ele>914</ele>
        <time>2015-08-19T07:57:45Z</time>
      </trkpt>
      <trkpt lat="44.93314" lon="5.24443">
        <ele>914</ele>
        <time>2015-08-19T07:57:49Z</time>
      </trkpt>
      <trkpt lat="44.93312" lon="5.24442">
        <ele>914</ele>
        <time>2015-08-19T07:57:51Z</time>
      </trkpt>
      <trkpt lat="44.93285" lon="5.24419">
        <ele>917</ele>
        <time>2015-08-19T07:58:21Z</time>
      </trkpt>
      <trkpt lat="44.93284" lon="5.24418">
        <ele>917</ele>
        <time>2015-08-19T07:58:22Z</time>
      </trkpt>
      <trkpt lat="44.93282" lon="5.24417">
        <ele>917</ele>
        <time>2015-08-19T07:58:24Z</time>
      </trkpt>
      <trkpt lat="44.93274" lon="5.24407">
        <ele>918</ele>
        <time>2015-08-19T07:58:34Z</time>
      </trkpt>
      <trkpt lat="44.93271" lon="5.24406">
        <ele>918</ele>
        <time>2015-08-19T07:58:37Z</time>
      </trkpt>
      <trkpt lat="44.93263" lon="5.24402">
        <ele>919</ele>
        <time>2015-08-19T07:58:43Z</time>
      </trkpt>
      <trkpt lat="44.93262" lon="5.24402">
        <ele>919</ele>
        <time>2015-08-19T07:58:45Z</time>
      </trkpt>
      <trkpt lat="44.93257" lon="5.24403">
        <ele>919</ele>
        <time>2015-08-19T07:58:50Z</time>
      </trkpt>
      <trkpt lat="44.93255" lon="5.24401">
        <ele>919</ele>
        <time>2015-08-19T07:58:52Z</time>
      </trkpt>
      <trkpt lat="44.93252" lon="5.24403">
        <ele>920</ele>
        <time>2015-08-19T07:58:53Z</time>
      </trkpt>
      <trkpt lat="44.9325" lon="5.24401">
        <ele>919</ele>
        <time>2015-08-19T07:58:56Z</time>
      </trkpt>
      <trkpt lat="44.93249" lon="5.24398">
        <ele>924</ele>
        <time>2015-08-19T07:58:58Z</time>
      </trkpt>
      <trkpt lat="44.93244" lon="5.24396">
        <ele>925</ele>
        <time>2015-08-19T07:59:05Z</time>
      </trkpt>
      <trkpt lat="44.93242" lon="5.24394">
        <ele>925</ele>
        <time>2015-08-19T07:59:07Z</time>
      </trkpt>
      <trkpt lat="44.9323" lon="5.24391">
        <ele>925</ele>
        <time>2015-08-19T07:59:20Z</time>
      </trkpt>
      <trkpt lat="44.93227" lon="5.24389">
        <ele>926</ele>
        <time>2015-08-19T07:59:24Z</time>
      </trkpt>
      <trkpt lat="44.93225" lon="5.24387">
        <ele>926</ele>
        <time>2015-08-19T07:59:26Z</time>
      </trkpt>
      <trkpt lat="44.93224" lon="5.24387">
        <ele>926</ele>
        <time>2015-08-19T07:59:28Z</time>
      </trkpt>
      <trkpt lat="44.93219" lon="5.24384">
        <ele>926</ele>
        <time>2015-08-19T07:59:34Z</time>
      </trkpt>
      <trkpt lat="44.93218" lon="5.24382">
        <ele>926</ele>
        <time>2015-08-19T07:59:36Z</time>
      </trkpt>
      <trkpt lat="44.93216" lon="5.24382">
        <ele>926</ele>
        <time>2015-08-19T07:59:37Z</time>
      </trkpt>
      <trkpt lat="44.93212" lon="5.24378">
        <ele>927</ele>
        <time>2015-08-19T07:59:41Z</time>
      </trkpt>
      <trkpt lat="44.93211" lon="5.24377">
        <ele>927</ele>
        <time>2015-08-19T07:59:42Z</time>
      </trkpt>
      <trkpt lat="44.93209" lon="5.24375">
        <ele>927</ele>
        <time>2015-08-19T07:59:45Z</time>
      </trkpt>
      <trkpt lat="44.93209" lon="5.24373">
        <ele>927</ele>
        <time>2015-08-19T07:59:47Z</time>
      </trkpt>
      <trkpt lat="44.93206" lon="5.24369">
        <ele>927</ele>
        <time>2015-08-19T07:59:50Z</time>
      </trkpt>
      <trkpt lat="44.93206" lon="5.24366">
        <ele>927</ele>
        <time>2015-08-19T07:59:53Z</time>
      </trkpt>
      <trkpt lat="44.93203" lon="5.24362">
        <ele>927</ele>
        <time>2015-08-19T07:59:57Z</time>
      </trkpt>
      <trkpt lat="44.93198" lon="5.24349">
        <ele>928</ele>
        <time>2015-08-19T08:00:11Z</time>
      </trkpt>
      <trkpt lat="44.93196" lon="5.24348">
        <ele>928</ele>
        <time>2015-08-19T08:00:13Z</time>
      </trkpt>
      <trkpt lat="44.93195" lon="5.24346">
        <ele>928</ele>
        <time>2015-08-19T08:00:14Z</time>
      </trkpt>
      <trkpt lat="44.93194" lon="5.24344">
        <ele>928</ele>
        <time>2015-08-19T08:00:17Z</time>
      </trkpt>
      <trkpt lat="44.93193" lon="5.24343">
        <ele>928</ele>
        <time>2015-08-19T08:00:18Z</time>
      </trkpt>
      <trkpt lat="44.93189" lon="5.24339">
        <ele>929</ele>
        <time>2015-08-19T08:00:22Z</time>
      </trkpt>
      <trkpt lat="44.93188" lon="5.24337">
        <ele>929</ele>
        <time>2015-08-19T08:00:24Z</time>
      </trkpt>
      <trkpt lat="44.93186" lon="5.24336">
        <ele>929</ele>
        <time>2015-08-19T08:00:27Z</time>
      </trkpt>
      <trkpt lat="44.93183" lon="5.24332">
        <ele>930</ele>
        <time>2015-08-19T08:00:32Z</time>
      </trkpt>
      <trkpt lat="44.93182" lon="5.24332">
        <ele>930</ele>
        <time>2015-08-19T08:00:34Z</time>
      </trkpt>
      <trkpt lat="44.9318" lon="5.2433">
        <ele>930</ele>
        <time>2015-08-19T08:00:36Z</time>
      </trkpt>
      <trkpt lat="44.93179" lon="5.24329">
        <ele>931</ele>
        <time>2015-08-19T08:00:38Z</time>
      </trkpt>
      <trkpt lat="44.93177" lon="5.24329">
        <ele>931</ele>
        <time>2015-08-19T08:00:39Z</time>
      </trkpt>
      <trkpt lat="44.93176" lon="5.24328">
        <ele>931</ele>
        <time>2015-08-19T08:00:42Z</time>
      </trkpt>
      <trkpt lat="44.93172" lon="5.24329">
        <ele>931</ele>
        <time>2015-08-19T08:00:46Z</time>
      </trkpt>
      <trkpt lat="44.9317" lon="5.24328">
        <ele>931</ele>
        <time>2015-08-19T08:00:48Z</time>
      </trkpt>
      <trkpt lat="44.93168" lon="5.24327">
        <ele>931</ele>
        <time>2015-08-19T08:00:50Z</time>
      </trkpt>
      <trkpt lat="44.93167" lon="5.24325">
        <ele>931</ele>
        <time>2015-08-19T08:00:52Z</time>
      </trkpt>
      <trkpt lat="44.93165" lon="5.24324">
        <ele>933</ele>
        <time>2015-08-19T08:00:54Z</time>
      </trkpt>
      <trkpt lat="44.93163" lon="5.24323">
        <ele>933</ele>
        <time>2015-08-19T08:00:56Z</time>
      </trkpt>
      <trkpt lat="44.93159" lon="5.2432">
        <ele>934</ele>
        <time>2015-08-19T08:01:02Z</time>
      </trkpt>
      <trkpt lat="44.93158" lon="5.24321">
        <ele>934</ele>
        <time>2015-08-19T08:01:03Z</time>
      </trkpt>
      <trkpt lat="44.93157" lon="5.24319">
        <ele>934</ele>
        <time>2015-08-19T08:01:05Z</time>
      </trkpt>
      <trkpt lat="44.93155" lon="5.24319">
        <ele>934</ele>
        <time>2015-08-19T08:01:07Z</time>
      </trkpt>
      <trkpt lat="44.93142" lon="5.24301">
        <ele>935</ele>
        <time>2015-08-19T08:01:24Z</time>
      </trkpt>
      <trkpt lat="44.93142" lon="5.24299">
        <ele>935</ele>
        <time>2015-08-19T08:01:26Z</time>
      </trkpt>
      <trkpt lat="44.93135" lon="5.24272">
        <ele>936</ele>
        <time>2015-08-19T08:01:45Z</time>
      </trkpt>
      <trkpt lat="44.93135" lon="5.2427">
        <ele>936</ele>
        <time>2015-08-19T08:01:46Z</time>
      </trkpt>
      <trkpt lat="44.93131" lon="5.24246">
        <ele>935</ele>
        <time>2015-08-19T08:02:01Z</time>
      </trkpt>
      <trkpt lat="44.93106" lon="5.24228">
        <ele>936</ele>
        <time>2015-08-19T08:02:29Z</time>
      </trkpt>
      <trkpt lat="44.93105" lon="5.24229">
        <ele>936</ele>
        <time>2015-08-19T08:02:31Z</time>
      </trkpt>
      <trkpt lat="44.93103" lon="5.24229">
        <ele>936</ele>
        <time>2015-08-19T08:02:33Z</time>
      </trkpt>
      <trkpt lat="44.93074" lon="5.24233">
        <ele>939</ele>
        <time>2015-08-19T08:03:03Z</time>
      </trkpt>
      <trkpt lat="44.93064" lon="5.24235">
        <ele>939</ele>
        <time>2015-08-19T08:03:12Z</time>
      </trkpt>
      <trkpt lat="44.93062" lon="5.24234">
        <ele>939</ele>
        <time>2015-08-19T08:03:14Z</time>
      </trkpt>
      <trkpt lat="44.93029" lon="5.24231">
        <ele>939</ele>
        <time>2015-08-19T08:03:45Z</time>
      </trkpt>
      <trkpt lat="44.92992" lon="5.24224">
        <ele>940</ele>
        <time>2015-08-19T08:04:16Z</time>
      </trkpt>
      <trkpt lat="44.92991" lon="5.24224">
        <ele>940</ele>
        <time>2015-08-19T08:04:17Z</time>
      </trkpt>
      <trkpt lat="44.92989" lon="5.24225">
        <ele>941</ele>
        <time>2015-08-19T08:04:18Z</time>
      </trkpt>
      <trkpt lat="44.92988" lon="5.24226">
        <ele>941</ele>
        <time>2015-08-19T08:04:20Z</time>
      </trkpt>
      <trkpt lat="44.92986" lon="5.24226">
        <ele>941</ele>
        <time>2015-08-19T08:04:22Z</time>
      </trkpt>
      <trkpt lat="44.92983" lon="5.24227">
        <ele>941</ele>
        <time>2015-08-19T08:04:24Z</time>
      </trkpt>
      <trkpt lat="44.92982" lon="5.24226">
        <ele>941</ele>
        <time>2015-08-19T08:04:27Z</time>
      </trkpt>
      <trkpt lat="44.92948" lon="5.24222">
        <ele>941</ele>
        <time>2015-08-19T08:04:59Z</time>
      </trkpt>
      <trkpt lat="44.92946" lon="5.2422">
        <ele>941</ele>
        <time>2015-08-19T08:05:01Z</time>
      </trkpt>
      <trkpt lat="44.92944" lon="5.24219">
        <ele>941</ele>
        <time>2015-08-19T08:05:03Z</time>
      </trkpt>
      <trkpt lat="44.92943" lon="5.24218">
        <ele>941</ele>
        <time>2015-08-19T08:05:05Z</time>
      </trkpt>
      <trkpt lat="44.92905" lon="5.24201">
        <ele>945</ele>
        <time>2015-08-19T08:05:35Z</time>
      </trkpt>
      <trkpt lat="44.92903" lon="5.24198">
        <ele>945</ele>
        <time>2015-08-19T08:05:38Z</time>
      </trkpt>
      <trkpt lat="44.92898" lon="5.24197">
        <ele>945</ele>
        <time>2015-08-19T08:05:42Z</time>
      </trkpt>
      <trkpt lat="44.92895" lon="5.24197">
        <ele>945</ele>
        <time>2015-08-19T08:05:45Z</time>
      </trkpt>
      <trkpt lat="44.92887" lon="5.24194">
        <ele>945</ele>
        <time>2015-08-19T08:05:52Z</time>
      </trkpt>
      <trkpt lat="44.92884" lon="5.24196">
        <ele>946</ele>
        <time>2015-08-19T08:05:55Z</time>
      </trkpt>
      <trkpt lat="44.92882" lon="5.24195">
        <ele>946</ele>
        <time>2015-08-19T08:05:57Z</time>
      </trkpt>
      <trkpt lat="44.92881" lon="5.24195">
        <ele>946</ele>
        <time>2015-08-19T08:06:00Z</time>
      </trkpt>
      <trkpt lat="44.92876" lon="5.24193">
        <ele>946</ele>
        <time>2015-08-19T08:06:06Z</time>
      </trkpt>
      <trkpt lat="44.92876" lon="5.24191">
        <ele>946</ele>
        <time>2015-08-19T08:06:09Z</time>
      </trkpt>
      <trkpt lat="44.92868" lon="5.24188">
        <ele>947</ele>
        <time>2015-08-19T08:06:15Z</time>
      </trkpt>
      <trkpt lat="44.92867" lon="5.24186">
        <ele>947</ele>
        <time>2015-08-19T08:06:16Z</time>
      </trkpt>
      <trkpt lat="44.92866" lon="5.24185">
        <ele>947</ele>
        <time>2015-08-19T08:06:17Z</time>
      </trkpt>
      <trkpt lat="44.92864" lon="5.24184">
        <ele>947</ele>
        <time>2015-08-19T08:06:19Z</time>
      </trkpt>
      <trkpt lat="44.9286" lon="5.24182">
        <ele>947</ele>
        <time>2015-08-19T08:06:23Z</time>
      </trkpt>
      <trkpt lat="44.92859" lon="5.24182">
        <ele>947</ele>
        <time>2015-08-19T08:06:25Z</time>
      </trkpt>
      <trkpt lat="44.92837" lon="5.24164">
        <ele>946</ele>
        <time>2015-08-19T08:06:46Z</time>
      </trkpt>
      <trkpt lat="44.92811" lon="5.24136">
        <ele>950</ele>
        <time>2015-08-19T08:07:17Z</time>
      </trkpt>
      <trkpt lat="44.92795" lon="5.24095">
        <ele>951</ele>
        <time>2015-08-19T08:07:48Z</time>
      </trkpt>
      <trkpt lat="44.92794" lon="5.24093">
        <ele>951</ele>
        <time>2015-08-19T08:07:50Z</time>
      </trkpt>
      <trkpt lat="44.92793" lon="5.24091">
        <ele>951</ele>
        <time>2015-08-19T08:07:52Z</time>
      </trkpt>
      <trkpt lat="44.92791" lon="5.24088">
        <ele>951</ele>
        <time>2015-08-19T08:07:56Z</time>
      </trkpt>
      <trkpt lat="44.92789" lon="5.24077">
        <ele>954</ele>
        <time>2015-08-19T08:08:07Z</time>
      </trkpt>
      <trkpt lat="44.92792" lon="5.24068">
        <ele>953</ele>
        <time>2015-08-19T08:08:17Z</time>
      </trkpt>
      <trkpt lat="44.92794" lon="5.24066">
        <ele>953</ele>
        <time>2015-08-19T08:08:19Z</time>
      </trkpt>
      <trkpt lat="44.92795" lon="5.24064">
        <ele>953</ele>
        <time>2015-08-19T08:08:21Z</time>
      </trkpt>
      <trkpt lat="44.92798" lon="5.24057">
        <ele>953</ele>
        <time>2015-08-19T08:08:27Z</time>
      </trkpt>
      <trkpt lat="44.92798" lon="5.24053">
        <ele>953</ele>
        <time>2015-08-19T08:08:29Z</time>
      </trkpt>
      <trkpt lat="44.92806" lon="5.24028">
        <ele>953</ele>
        <time>2015-08-19T08:08:46Z</time>
      </trkpt>
      <trkpt lat="44.92805" lon="5.24025">
        <ele>954</ele>
        <time>2015-08-19T08:08:48Z</time>
      </trkpt>
      <trkpt lat="44.92803" lon="5.24024">
        <ele>954</ele>
        <time>2015-08-19T08:08:50Z</time>
      </trkpt>
      <trkpt lat="44.92801" lon="5.24023">
        <ele>954</ele>
        <time>2015-08-19T08:08:52Z</time>
      </trkpt>
      <trkpt lat="44.928" lon="5.24022">
        <ele>954</ele>
        <time>2015-08-19T08:08:56Z</time>
      </trkpt>
      <trkpt lat="44.92798" lon="5.24022">
        <ele>954</ele>
        <time>2015-08-19T08:08:59Z</time>
      </trkpt>
      <trkpt lat="44.92797" lon="5.24023">
        <ele>955</ele>
        <time>2015-08-19T08:09:00Z</time>
      </trkpt>
      <trkpt lat="44.92793" lon="5.24024">
        <ele>955</ele>
        <time>2015-08-19T08:09:04Z</time>
      </trkpt>
      <trkpt lat="44.92792" lon="5.24026">
        <ele>955</ele>
        <time>2015-08-19T08:09:05Z</time>
      </trkpt>
      <trkpt lat="44.92791" lon="5.24027">
        <ele>955</ele>
        <time>2015-08-19T08:09:06Z</time>
      </trkpt>
      <trkpt lat="44.92787" lon="5.24028">
        <ele>956</ele>
        <time>2015-08-19T08:09:10Z</time>
      </trkpt>
      <trkpt lat="44.92781" lon="5.24034">
        <ele>956</ele>
        <time>2015-08-19T08:09:18Z</time>
      </trkpt>
      <trkpt lat="44.9278" lon="5.24034">
        <ele>956</ele>
        <time>2015-08-19T08:09:19Z</time>
      </trkpt>
      <trkpt lat="44.92773" lon="5.24037">
        <ele>957</ele>
        <time>2015-08-19T08:09:25Z</time>
      </trkpt>
      <trkpt lat="44.92771" lon="5.24036">
        <ele>957</ele>
        <time>2015-08-19T08:09:27Z</time>
      </trkpt>
      <trkpt lat="44.9277" lon="5.24035">
        <ele>957</ele>
        <time>2015-08-19T08:09:28Z</time>
      </trkpt>
      <trkpt lat="44.92765" lon="5.2403">
        <ele>958</ele>
        <time>2015-08-19T08:09:34Z</time>
      </trkpt>
      <trkpt lat="44.92764" lon="5.24028">
        <ele>958</ele>
        <time>2015-08-19T08:09:37Z</time>
      </trkpt>
      <trkpt lat="44.92765" lon="5.24025">
        <ele>959</ele>
        <time>2015-08-19T08:09:40Z</time>
      </trkpt>
      <trkpt lat="44.92764" lon="5.24022">
        <ele>959</ele>
        <time>2015-08-19T08:10:13Z</time>
      </trkpt>
      <trkpt lat="44.92762" lon="5.2402">
        <ele>960</ele>
        <time>2015-08-19T08:10:14Z</time>
      </trkpt>
      <trkpt lat="44.92762" lon="5.24017">
        <ele>960</ele>
        <time>2015-08-19T08:10:15Z</time>
      </trkpt>
      <trkpt lat="44.92762" lon="5.24014">
        <ele>961</ele>
        <time>2015-08-19T08:10:17Z</time>
      </trkpt>
      <trkpt lat="44.92759" lon="5.24009">
        <ele>962</ele>
        <time>2015-08-19T08:10:23Z</time>
      </trkpt>
      <trkpt lat="44.92756" lon="5.24009">
        <ele>963</ele>
        <time>2015-08-19T08:10:26Z</time>
      </trkpt>
      <trkpt lat="44.92755" lon="5.24007">
        <ele>964</ele>
        <time>2015-08-19T08:10:28Z</time>
      </trkpt>
      <trkpt lat="44.92752" lon="5.24004">
        <ele>966</ele>
        <time>2015-08-19T08:10:33Z</time>
      </trkpt>
      <trkpt lat="44.92749" lon="5.24004">
        <ele>969</ele>
        <time>2015-08-19T08:10:35Z</time>
      </trkpt>
      <trkpt lat="44.92748" lon="5.24002">
        <ele>969</ele>
        <time>2015-08-19T08:10:37Z</time>
      </trkpt>
      <trkpt lat="44.92748" lon="5.24">
        <ele>969</ele>
        <time>2015-08-19T08:10:39Z</time>
      </trkpt>
      <trkpt lat="44.92747" lon="5.23998">
        <ele>970</ele>
        <time>2015-08-19T08:10:40Z</time>
      </trkpt>
      <trkpt lat="44.92746" lon="5.23996">
        <ele>970</ele>
        <time>2015-08-19T08:10:42Z</time>
      </trkpt>
      <trkpt lat="44.92744" lon="5.23996">
        <ele>971</ele>
        <time>2015-08-19T08:10:44Z</time>
      </trkpt>
      <trkpt lat="44.92739" lon="5.23992">
        <ele>973</ele>
        <time>2015-08-19T08:11:04Z</time>
      </trkpt>
      <trkpt lat="44.92737" lon="5.23992">
        <ele>973</ele>
        <time>2015-08-19T08:11:08Z</time>
      </trkpt>
      <trkpt lat="44.92735" lon="5.2399">
        <ele>974</ele>
        <time>2015-08-19T08:11:10Z</time>
      </trkpt>
      <trkpt lat="44.92734" lon="5.2399">
        <ele>974</ele>
        <time>2015-08-19T08:11:11Z</time>
      </trkpt>
      <trkpt lat="44.9273" lon="5.23988">
        <ele>975</ele>
        <time>2015-08-19T08:11:16Z</time>
      </trkpt>
      <trkpt lat="44.92727" lon="5.23988">
        <ele>976</ele>
        <time>2015-08-19T08:11:18Z</time>
      </trkpt>
      <trkpt lat="44.92723" lon="5.23987">
        <ele>977</ele>
        <time>2015-08-19T08:11:22Z</time>
      </trkpt>
      <trkpt lat="44.92721" lon="5.23985">
        <ele>977</ele>
        <time>2015-08-19T08:11:24Z</time>
      </trkpt>
      <trkpt lat="44.9272" lon="5.23985">
        <ele>977</ele>
        <time>2015-08-19T08:11:26Z</time>
      </trkpt>
      <trkpt lat="44.9272" lon="5.23982">
        <ele>977</ele>
        <time>2015-08-19T08:11:27Z</time>
      </trkpt>
      <trkpt lat="44.92718" lon="5.23975">
        <ele>978</ele>
        <time>2015-08-19T08:11:31Z</time>
      </trkpt>
      <trkpt lat="44.92717" lon="5.23973">
        <ele>978</ele>
        <time>2015-08-19T08:11:33Z</time>
      </trkpt>
      <trkpt lat="44.92715" lon="5.23971">
        <ele>978</ele>
        <time>2015-08-19T08:11:35Z</time>
      </trkpt>
      <trkpt lat="44.92713" lon="5.23958">
        <ele>979</ele>
        <time>2015-08-19T08:11:45Z</time>
      </trkpt>
      <trkpt lat="44.9271" lon="5.23954">
        <ele>979</ele>
        <time>2015-08-19T08:11:52Z</time>
      </trkpt>
      <trkpt lat="44.9271" lon="5.23951">
        <ele>979</ele>
        <time>2015-08-19T08:11:53Z</time>
      </trkpt>
      <trkpt lat="44.92708" lon="5.23944">
        <ele>979</ele>
        <time>2015-08-19T08:11:59Z</time>
      </trkpt>
      <trkpt lat="44.92708" lon="5.23942">
        <ele>979</ele>
        <time>2015-08-19T08:12:03Z</time>
      </trkpt>
      <trkpt lat="44.92707" lon="5.23939">
        <ele>979</ele>
        <time>2015-08-19T08:12:05Z</time>
      </trkpt>
      <trkpt lat="44.92708" lon="5.23927">
        <ele>979</ele>
        <time>2015-08-19T08:12:11Z</time>
      </trkpt>
      <trkpt lat="44.92705" lon="5.23922">
        <ele>980</ele>
        <time>2015-08-19T08:12:16Z</time>
      </trkpt>
      <trkpt lat="44.92704" lon="5.23919">
        <ele>980</ele>
        <time>2015-08-19T08:12:19Z</time>
      </trkpt>
      <trkpt lat="44.92703" lon="5.23917">
        <ele>980</ele>
        <time>2015-08-19T08:12:21Z</time>
      </trkpt>
      <trkpt lat="44.92702" lon="5.23916">
        <ele>980</ele>
        <time>2015-08-19T08:12:22Z</time>
      </trkpt>
      <trkpt lat="44.92701" lon="5.23914">
        <ele>980</ele>
        <time>2015-08-19T08:12:23Z</time>
      </trkpt>
      <trkpt lat="44.92698" lon="5.23911">
        <ele>981</ele>
        <time>2015-08-19T08:12:26Z</time>
      </trkpt>
      <trkpt lat="44.92697" lon="5.23908">
        <ele>981</ele>
        <time>2015-08-19T08:12:28Z</time>
      </trkpt>
      <trkpt lat="44.92697" lon="5.23907">
        <ele>981</ele>
        <time>2015-08-19T08:12:29Z</time>
      </trkpt>
      <trkpt lat="44.92693" lon="5.23906">
        <ele>982</ele>
        <time>2015-08-19T08:12:34Z</time>
      </trkpt>
      <trkpt lat="44.92685" lon="5.23899">
        <ele>982</ele>
        <time>2015-08-19T08:12:43Z</time>
      </trkpt>
      <trkpt lat="44.92679" lon="5.23876">
        <ele>982</ele>
        <time>2015-08-19T08:13:03Z</time>
      </trkpt>
      <trkpt lat="44.92679" lon="5.23846">
        <ele>983</ele>
        <time>2015-08-19T08:13:23Z</time>
      </trkpt>
      <trkpt lat="44.92689" lon="5.23803">
        <ele>982</ele>
        <time>2015-08-19T08:13:54Z</time>
      </trkpt>
      <trkpt lat="44.92688" lon="5.23797">
        <ele>982</ele>
        <time>2015-08-19T08:13:57Z</time>
      </trkpt>
      <trkpt lat="44.92689" lon="5.23787">
        <ele>983</ele>
        <time>2015-08-19T08:14:04Z</time>
      </trkpt>
      <trkpt lat="44.92688" lon="5.23785">
        <ele>983</ele>
        <time>2015-08-19T08:14:06Z</time>
      </trkpt>
      <trkpt lat="44.92677" lon="5.23748">
        <ele>990</ele>
        <time>2015-08-19T08:14:36Z</time>
      </trkpt>
      <trkpt lat="44.92676" lon="5.23745">
        <ele>990</ele>
        <time>2015-08-19T08:14:39Z</time>
      </trkpt>
      <trkpt lat="44.92675" lon="5.23744">
        <ele>990</ele>
        <time>2015-08-19T08:14:40Z</time>
      </trkpt>
      <trkpt lat="44.92675" lon="5.23741">
        <ele>990</ele>
        <time>2015-08-19T08:14:42Z</time>
      </trkpt>
      <trkpt lat="44.92674" lon="5.23739">
        <ele>989</ele>
        <time>2015-08-19T08:14:44Z</time>
      </trkpt>
      <trkpt lat="44.92673" lon="5.23738">
        <ele>989</ele>
        <time>2015-08-19T08:14:45Z</time>
      </trkpt>
      <trkpt lat="44.92674" lon="5.23733">
        <ele>989</ele>
        <time>2015-08-19T08:14:49Z</time>
      </trkpt>
      <trkpt lat="44.92672" lon="5.23731">
        <ele>989</ele>
        <time>2015-08-19T08:14:55Z</time>
      </trkpt>
      <trkpt lat="44.92671" lon="5.23729">
        <ele>988</ele>
        <time>2015-08-19T08:14:57Z</time>
      </trkpt>
      <trkpt lat="44.9267" lon="5.23728">
        <ele>988</ele>
        <time>2015-08-19T08:14:59Z</time>
      </trkpt>
      <trkpt lat="44.92669" lon="5.23726">
        <ele>988</ele>
        <time>2015-08-19T08:15:06Z</time>
      </trkpt>
      <trkpt lat="44.92667" lon="5.23724">
        <ele>988</ele>
        <time>2015-08-19T08:15:09Z</time>
      </trkpt>
      <trkpt lat="44.92666" lon="5.23721">
        <ele>1004</ele>
        <time>2015-08-19T08:15:12Z</time>
      </trkpt>
      <trkpt lat="44.92667" lon="5.23717">
        <ele>1005</ele>
        <time>2015-08-19T08:15:15Z</time>
      </trkpt>
      <trkpt lat="44.92665" lon="5.23715">
        <ele>1005</ele>
        <time>2015-08-19T08:15:19Z</time>
      </trkpt>
      <trkpt lat="44.92664" lon="5.23713">
        <ele>1005</ele>
        <time>2015-08-19T08:15:21Z</time>
      </trkpt>
      <trkpt lat="44.92659" lon="5.2371">
        <ele>1006</ele>
        <time>2015-08-19T08:15:25Z</time>
      </trkpt>
      <trkpt lat="44.92659" lon="5.23706">
        <ele>1006</ele>
        <time>2015-08-19T08:15:27Z</time>
      </trkpt>
      <trkpt lat="44.92657" lon="5.23705">
        <ele>1006</ele>
        <time>2015-08-19T08:15:37Z</time>
      </trkpt>
      <trkpt lat="44.92652" lon="5.23701">
        <ele>1007</ele>
        <time>2015-08-19T08:15:43Z</time>
      </trkpt>
      <trkpt lat="44.92651" lon="5.23698">
        <ele>1007</ele>
        <time>2015-08-19T08:15:46Z</time>
      </trkpt>
      <trkpt lat="44.92644" lon="5.2369">
        <ele>1008</ele>
        <time>2015-08-19T08:15:56Z</time>
      </trkpt>
      <trkpt lat="44.92636" lon="5.23676">
        <ele>1009</ele>
        <time>2015-08-19T08:16:11Z</time>
      </trkpt>
      <trkpt lat="44.92633" lon="5.23674">
        <ele>1010</ele>
        <time>2015-08-19T08:16:14Z</time>
      </trkpt>
      <trkpt lat="44.92615" lon="5.23645">
        <ele>1011</ele>
        <time>2015-08-19T08:16:46Z</time>
      </trkpt>
      <trkpt lat="44.9261" lon="5.23641">
        <ele>1012</ele>
        <time>2015-08-19T08:16:52Z</time>
      </trkpt>
      <trkpt lat="44.92609" lon="5.23638">
        <ele>1012</ele>
        <time>2015-08-19T08:16:54Z</time>
      </trkpt>
      <trkpt lat="44.92607" lon="5.23637">
        <ele>1012</ele>
        <time>2015-08-19T08:16:56Z</time>
      </trkpt>
      <trkpt lat="44.92607" lon="5.23634">
        <ele>1011</ele>
        <time>2015-08-19T08:16:58Z</time>
      </trkpt>
      <trkpt lat="44.92605" lon="5.23631">
        <ele>1011</ele>
        <time>2015-08-19T08:17:01Z</time>
      </trkpt>
      <trkpt lat="44.92605" lon="5.23628">
        <ele>1011</ele>
        <time>2015-08-19T08:17:03Z</time>
      </trkpt>
      <trkpt lat="44.92603" lon="5.23625">
        <ele>1011</ele>
        <time>2015-08-19T08:17:05Z</time>
      </trkpt>
      <trkpt lat="44.92602" lon="5.23623">
        <ele>1011</ele>
        <time>2015-08-19T08:17:07Z</time>
      </trkpt>
      <trkpt lat="44.926" lon="5.23621">
        <ele>1011</ele>
        <time>2015-08-19T08:17:09Z</time>
      </trkpt>
      <trkpt lat="44.92599" lon="5.23619">
        <ele>1011</ele>
        <time>2015-08-19T08:17:11Z</time>
      </trkpt>
      <trkpt lat="44.92597" lon="5.23618">
        <ele>1011</ele>
        <time>2015-08-19T08:17:13Z</time>
      </trkpt>
      <trkpt lat="44.92594" lon="5.23613">
        <ele>1011</ele>
        <time>2015-08-19T08:17:19Z</time>
      </trkpt>
      <trkpt lat="44.92594" lon="5.23611">
        <ele>1011</ele>
        <time>2015-08-19T08:17:20Z</time>
      </trkpt>
      <trkpt lat="44.92593" lon="5.23609">
        <ele>1011</ele>
        <time>2015-08-19T08:17:22Z</time>
      </trkpt>
      <trkpt lat="44.92591" lon="5.23606">
        <ele>1011</ele>
        <time>2015-08-19T08:17:25Z</time>
      </trkpt>
      <trkpt lat="44.9259" lon="5.23603">
        <ele>1011</ele>
        <time>2015-08-19T08:17:27Z</time>
      </trkpt>
      <trkpt lat="44.92584" lon="5.23595">
        <ele>1012</ele>
        <time>2015-08-19T08:17:35Z</time>
      </trkpt>
      <trkpt lat="44.92583" lon="5.23592">
        <ele>1020</ele>
        <time>2015-08-19T08:17:37Z</time>
      </trkpt>
      <trkpt lat="44.92581" lon="5.23591">
        <ele>1019</ele>
        <time>2015-08-19T08:17:39Z</time>
      </trkpt>
      <trkpt lat="44.92578" lon="5.23588">
        <ele>1019</ele>
        <time>2015-08-19T08:17:43Z</time>
      </trkpt>
      <trkpt lat="44.92575" lon="5.23586">
        <ele>1019</ele>
        <time>2015-08-19T08:17:46Z</time>
      </trkpt>
      <trkpt lat="44.92574" lon="5.23583">
        <ele>1016</ele>
        <time>2015-08-19T08:17:48Z</time>
      </trkpt>
      <trkpt lat="44.92557" lon="5.23569">
        <ele>1019</ele>
        <time>2015-08-19T08:18:08Z</time>
      </trkpt>
      <trkpt lat="44.92556" lon="5.23566">
        <ele>1019</ele>
        <time>2015-08-19T08:18:10Z</time>
      </trkpt>
      <trkpt lat="44.92555" lon="5.23562">
        <ele>1019</ele>
        <time>2015-08-19T08:18:13Z</time>
      </trkpt>
      <trkpt lat="44.92553" lon="5.23559">
        <ele>1019</ele>
        <time>2015-08-19T08:18:16Z</time>
      </trkpt>
      <trkpt lat="44.92551" lon="5.23556">
        <ele>1019</ele>
        <time>2015-08-19T08:18:18Z</time>
      </trkpt>
      <trkpt lat="44.9254" lon="5.23535">
        <ele>1020</ele>
        <time>2015-08-19T08:18:37Z</time>
      </trkpt>
      <trkpt lat="44.92537" lon="5.23535">
        <ele>1020</ele>
        <time>2015-08-19T08:18:38Z</time>
      </trkpt>
      <trkpt lat="44.92536" lon="5.23533">
        <ele>1020</ele>
        <time>2015-08-19T08:18:40Z</time>
      </trkpt>
      <trkpt lat="44.92531" lon="5.23524">
        <ele>1020</ele>
        <time>2015-08-19T08:18:48Z</time>
      </trkpt>
      <trkpt lat="44.92507" lon="5.23496">
        <ele>1022</ele>
        <time>2015-08-19T08:19:20Z</time>
      </trkpt>
      <trkpt lat="44.92505" lon="5.23494">
        <ele>1022</ele>
        <time>2015-08-19T08:19:22Z</time>
      </trkpt>
      <trkpt lat="44.92504" lon="5.23493">
        <ele>1022</ele>
        <time>2015-08-19T08:19:23Z</time>
      </trkpt>
      <trkpt lat="44.92493" lon="5.2348">
        <ele>1031</ele>
        <time>2015-08-19T08:19:36Z</time>
      </trkpt>
      <trkpt lat="44.92493" lon="5.23477">
        <ele>1032</ele>
        <time>2015-08-19T08:19:38Z</time>
      </trkpt>
      <trkpt lat="44.9249" lon="5.23475">
        <ele>1033</ele>
        <time>2015-08-19T08:19:41Z</time>
      </trkpt>
      <trkpt lat="44.92488" lon="5.23468">
        <ele>1033</ele>
        <time>2015-08-19T08:19:47Z</time>
      </trkpt>
      <trkpt lat="44.92482" lon="5.23463">
        <ele>1034</ele>
        <time>2015-08-19T08:19:54Z</time>
      </trkpt>
      <trkpt lat="44.92479" lon="5.23453">
        <ele>1035</ele>
        <time>2015-08-19T08:20:02Z</time>
      </trkpt>
      <trkpt lat="44.92475" lon="5.23454">
        <ele>1035</ele>
        <time>2015-08-19T08:20:05Z</time>
      </trkpt>
      <trkpt lat="44.92473" lon="5.23453">
        <ele>1036</ele>
        <time>2015-08-19T08:20:07Z</time>
      </trkpt>
      <trkpt lat="44.92471" lon="5.23451">
        <ele>1036</ele>
        <time>2015-08-19T08:20:11Z</time>
      </trkpt>
      <trkpt lat="44.92471" lon="5.23447">
        <ele>1036</ele>
        <time>2015-08-19T08:20:13Z</time>
      </trkpt>
      <trkpt lat="44.92468" lon="5.23445">
        <ele>1036</ele>
        <time>2015-08-19T08:20:16Z</time>
      </trkpt>
      <trkpt lat="44.92466" lon="5.23442">
        <ele>1036</ele>
        <time>2015-08-19T08:20:19Z</time>
      </trkpt>
      <trkpt lat="44.92452" lon="5.23414">
        <ele>1037</ele>
        <time>2015-08-19T08:20:49Z</time>
      </trkpt>
      <trkpt lat="44.92449" lon="5.23413">
        <ele>1037</ele>
        <time>2015-08-19T08:20:52Z</time>
      </trkpt>
      <trkpt lat="44.92447" lon="5.23412">
        <ele>1037</ele>
        <time>2015-08-19T08:20:54Z</time>
      </trkpt>
      <trkpt lat="44.92443" lon="5.23406">
        <ele>1038</ele>
        <time>2015-08-19T08:20:59Z</time>
      </trkpt>
      <trkpt lat="44.92442" lon="5.23403">
        <ele>1038</ele>
        <time>2015-08-19T08:21:02Z</time>
      </trkpt>
      <trkpt lat="44.92441" lon="5.23401">
        <ele>1038</ele>
        <time>2015-08-19T08:21:05Z</time>
      </trkpt>
      <trkpt lat="44.92441" lon="5.23399">
        <ele>1038</ele>
        <time>2015-08-19T08:21:07Z</time>
      </trkpt>
      <trkpt lat="44.9244" lon="5.23392">
        <ele>1038</ele>
        <time>2015-08-19T08:21:11Z</time>
      </trkpt>
      <trkpt lat="44.92439" lon="5.2339">
        <ele>1038</ele>
        <time>2015-08-19T08:21:13Z</time>
      </trkpt>
      <trkpt lat="44.92439" lon="5.23388">
        <ele>1037</ele>
        <time>2015-08-19T08:21:15Z</time>
      </trkpt>
      <trkpt lat="44.92437" lon="5.23386">
        <ele>1038</ele>
        <time>2015-08-19T08:21:18Z</time>
      </trkpt>
      <trkpt lat="44.92435" lon="5.23386">
        <ele>1038</ele>
        <time>2015-08-19T08:21:20Z</time>
      </trkpt>
      <trkpt lat="44.92434" lon="5.23383">
        <ele>1038</ele>
        <time>2015-08-19T08:21:22Z</time>
      </trkpt>
      <trkpt lat="44.92432" lon="5.23381">
        <ele>1038</ele>
        <time>2015-08-19T08:21:25Z</time>
      </trkpt>
      <trkpt lat="44.92431" lon="5.23378">
        <ele>1038</ele>
        <time>2015-08-19T08:21:28Z</time>
      </trkpt>
      <trkpt lat="44.92429" lon="5.23376">
        <ele>1038</ele>
        <time>2015-08-19T08:21:30Z</time>
      </trkpt>
      <trkpt lat="44.92428" lon="5.23372">
        <ele>1038</ele>
        <time>2015-08-19T08:21:33Z</time>
      </trkpt>
      <trkpt lat="44.92427" lon="5.2337">
        <ele>1038</ele>
        <time>2015-08-19T08:21:35Z</time>
      </trkpt>
      <trkpt lat="44.92427" lon="5.23367">
        <ele>1038</ele>
        <time>2015-08-19T08:21:38Z</time>
      </trkpt>
      <trkpt lat="44.9242" lon="5.23322">
        <ele>1038</ele>
        <time>2015-08-19T08:22:08Z</time>
      </trkpt>
      <trkpt lat="44.92416" lon="5.23309">
        <ele>1045</ele>
        <time>2015-08-19T08:22:17Z</time>
      </trkpt>
      <trkpt lat="44.92416" lon="5.23307">
        <ele>1046</ele>
        <time>2015-08-19T08:22:20Z</time>
      </trkpt>
      <trkpt lat="44.92415" lon="5.23304">
        <ele>1046</ele>
        <time>2015-08-19T08:22:21Z</time>
      </trkpt>
      <trkpt lat="44.92416" lon="5.23303">
        <ele>1046</ele>
        <time>2015-08-19T08:22:23Z</time>
      </trkpt>
      <trkpt lat="44.92408" lon="5.23257">
        <ele>1043</ele>
        <time>2015-08-19T08:22:53Z</time>
      </trkpt>
      <trkpt lat="44.92408" lon="5.23255">
        <ele>1043</ele>
        <time>2015-08-19T08:22:55Z</time>
      </trkpt>
      <trkpt lat="44.92408" lon="5.23253">
        <ele>1043</ele>
        <time>2015-08-19T08:22:56Z</time>
      </trkpt>
      <trkpt lat="44.92407" lon="5.23251">
        <ele>1043</ele>
        <time>2015-08-19T08:22:57Z</time>
      </trkpt>
      <trkpt lat="44.92407" lon="5.23246">
        <ele>1043</ele>
        <time>2015-08-19T08:23:00Z</time>
      </trkpt>
      <trkpt lat="44.92405" lon="5.23244">
        <ele>1043</ele>
        <time>2015-08-19T08:23:02Z</time>
      </trkpt>
      <trkpt lat="44.92406" lon="5.23216">
        <ele>1045</ele>
        <time>2015-08-19T08:23:17Z</time>
      </trkpt>
      <trkpt lat="44.92405" lon="5.23215">
        <ele>1045</ele>
        <time>2015-08-19T08:23:19Z</time>
      </trkpt>
      <trkpt lat="44.92404" lon="5.23211">
        <ele>1045</ele>
        <time>2015-08-19T08:23:21Z</time>
      </trkpt>
      <trkpt lat="44.92402" lon="5.23209">
        <ele>1045</ele>
        <time>2015-08-19T08:23:24Z</time>
      </trkpt>
      <trkpt lat="44.92403" lon="5.23194">
        <ele>1045</ele>
        <time>2015-08-19T08:23:37Z</time>
      </trkpt>
      <trkpt lat="44.92401" lon="5.23191">
        <ele>1046</ele>
        <time>2015-08-19T08:24:00Z</time>
      </trkpt>
      <trkpt lat="44.92401" lon="5.23188">
        <ele>1045</ele>
        <time>2015-08-19T08:24:39Z</time>
      </trkpt>
      <trkpt lat="44.92401" lon="5.23186">
        <ele>1045</ele>
        <time>2015-08-19T08:24:41Z</time>
      </trkpt>
      <trkpt lat="44.92401" lon="5.23183">
        <ele>1045</ele>
        <time>2015-08-19T08:24:43Z</time>
      </trkpt>
      <trkpt lat="44.92401" lon="5.23181">
        <ele>1045</ele>
        <time>2015-08-19T08:24:45Z</time>
      </trkpt>
      <trkpt lat="44.92401" lon="5.23178">
        <ele>1045</ele>
        <time>2015-08-19T08:24:47Z</time>
      </trkpt>
      <trkpt lat="44.92381" lon="5.23142">
        <ele>1045</ele>
        <time>2015-08-19T08:25:18Z</time>
      </trkpt>
      <trkpt lat="44.92379" lon="5.23134">
        <ele>1045</ele>
        <time>2015-08-19T08:25:22Z</time>
      </trkpt>
      <trkpt lat="44.92377" lon="5.23131">
        <ele>1045</ele>
        <time>2015-08-19T08:25:24Z</time>
      </trkpt>
      <trkpt lat="44.92377" lon="5.23128">
        <ele>1045</ele>
        <time>2015-08-19T08:25:26Z</time>
      </trkpt>
      <trkpt lat="44.92376" lon="5.23126">
        <ele>1045</ele>
        <time>2015-08-19T08:25:28Z</time>
      </trkpt>
      <trkpt lat="44.92376" lon="5.23124">
        <ele>1045</ele>
        <time>2015-08-19T08:25:29Z</time>
      </trkpt>
      <trkpt lat="44.92374" lon="5.23118">
        <ele>1045</ele>
        <time>2015-08-19T08:25:32Z</time>
      </trkpt>
      <trkpt lat="44.92351" lon="5.23083">
        <ele>1045</ele>
        <time>2015-08-19T08:26:02Z</time>
      </trkpt>
      <trkpt lat="44.92348" lon="5.2308">
        <ele>1045</ele>
        <time>2015-08-19T08:26:04Z</time>
      </trkpt>
      <trkpt lat="44.92347" lon="5.23077">
        <ele>1045</ele>
        <time>2015-08-19T08:26:06Z</time>
      </trkpt>
      <trkpt lat="44.92346" lon="5.23074">
        <ele>1045</ele>
        <time>2015-08-19T08:26:08Z</time>
      </trkpt>
      <trkpt lat="44.92344" lon="5.23073">
        <ele>1045</ele>
        <time>2015-08-19T08:26:10Z</time>
      </trkpt>
      <trkpt lat="44.92343" lon="5.23068">
        <ele>1045</ele>
        <time>2015-08-19T08:26:12Z</time>
      </trkpt>
      <trkpt lat="44.9234" lon="5.23062">
        <ele>1044</ele>
        <time>2015-08-19T08:26:17Z</time>
      </trkpt>
      <trkpt lat="44.9234" lon="5.23057">
        <ele>1044</ele>
        <time>2015-08-19T08:26:20Z</time>
      </trkpt>
      <trkpt lat="44.92338" lon="5.23055">
        <ele>1044</ele>
        <time>2015-08-19T08:26:22Z</time>
      </trkpt>
      <trkpt lat="44.92337" lon="5.23052">
        <ele>1044</ele>
        <time>2015-08-19T08:26:23Z</time>
      </trkpt>
      <trkpt lat="44.92335" lon="5.23051">
        <ele>1044</ele>
        <time>2015-08-19T08:26:25Z</time>
      </trkpt>
      <trkpt lat="44.92333" lon="5.23048">
        <ele>1044</ele>
        <time>2015-08-19T08:26:27Z</time>
      </trkpt>
      <trkpt lat="44.92333" lon="5.23046">
        <ele>1050</ele>
        <time>2015-08-19T08:26:28Z</time>
      </trkpt>
      <trkpt lat="44.92332" lon="5.23043">
        <ele>1050</ele>
        <time>2015-08-19T08:26:30Z</time>
      </trkpt>
      <trkpt lat="44.92331" lon="5.2304">
        <ele>1050</ele>
        <time>2015-08-19T08:26:32Z</time>
      </trkpt>
      <trkpt lat="44.9233" lon="5.23037">
        <ele>1050</ele>
        <time>2015-08-19T08:26:34Z</time>
      </trkpt>
      <trkpt lat="44.92328" lon="5.23034">
        <ele>1050</ele>
        <time>2015-08-19T08:26:39Z</time>
      </trkpt>
      <trkpt lat="44.92319" lon="5.23022">
        <ele>1050</ele>
        <time>2015-08-19T08:26:48Z</time>
      </trkpt>
      <trkpt lat="44.92315" lon="5.23007">
        <ele>1050</ele>
        <time>2015-08-19T08:26:58Z</time>
      </trkpt>
      <trkpt lat="44.92313" lon="5.23006">
        <ele>1050</ele>
        <time>2015-08-19T08:27:00Z</time>
      </trkpt>
      <trkpt lat="44.92311" lon="5.23003">
        <ele>1050</ele>
        <time>2015-08-19T08:27:02Z</time>
      </trkpt>
      <trkpt lat="44.9231" lon="5.23002">
        <ele>1050</ele>
        <time>2015-08-19T08:27:03Z</time>
      </trkpt>
      <trkpt lat="44.92309" lon="5.22998">
        <ele>1052</ele>
        <time>2015-08-19T08:27:05Z</time>
      </trkpt>
      <trkpt lat="44.92306" lon="5.22996">
        <ele>1052</ele>
        <time>2015-08-19T08:27:08Z</time>
      </trkpt>
      <trkpt lat="44.92304" lon="5.22992">
        <ele>1053</ele>
        <time>2015-08-19T08:27:11Z</time>
      </trkpt>
      <trkpt lat="44.92304" lon="5.22988">
        <ele>1053</ele>
        <time>2015-08-19T08:27:13Z</time>
      </trkpt>
      <trkpt lat="44.92298" lon="5.22972">
        <ele>1054</ele>
        <time>2015-08-19T08:27:22Z</time>
      </trkpt>
      <trkpt lat="44.92296" lon="5.22971">
        <ele>1054</ele>
        <time>2015-08-19T08:27:24Z</time>
      </trkpt>
      <trkpt lat="44.92294" lon="5.22968">
        <ele>1054</ele>
        <time>2015-08-19T08:27:26Z</time>
      </trkpt>
      <trkpt lat="44.92291" lon="5.22958">
        <ele>1055</ele>
        <time>2015-08-19T08:27:34Z</time>
      </trkpt>
      <trkpt lat="44.92291" lon="5.22956">
        <ele>1055</ele>
        <time>2015-08-19T08:27:36Z</time>
      </trkpt>
      <trkpt lat="44.92289" lon="5.22953">
        <ele>1055</ele>
        <time>2015-08-19T08:27:38Z</time>
      </trkpt>
      <trkpt lat="44.9229" lon="5.22949">
        <ele>1055</ele>
        <time>2015-08-19T08:27:39Z</time>
      </trkpt>
      <trkpt lat="44.92289" lon="5.22947">
        <ele>1055</ele>
        <time>2015-08-19T08:27:41Z</time>
      </trkpt>
      <trkpt lat="44.92287" lon="5.22942">
        <ele>1056</ele>
        <time>2015-08-19T08:27:45Z</time>
      </trkpt>
      <trkpt lat="44.92285" lon="5.2294">
        <ele>1056</ele>
        <time>2015-08-19T08:27:48Z</time>
      </trkpt>
      <trkpt lat="44.92283" lon="5.22939">
        <ele>1056</ele>
        <time>2015-08-19T08:27:50Z</time>
      </trkpt>
      <trkpt lat="44.92278" lon="5.22935">
        <ele>1056</ele>
        <time>2015-08-19T08:27:58Z</time>
      </trkpt>
      <trkpt lat="44.92279" lon="5.22932">
        <ele>1056</ele>
        <time>2015-08-19T08:28:01Z</time>
      </trkpt>
      <trkpt lat="44.92279" lon="5.22927">
        <ele>1057</ele>
        <time>2015-08-19T08:28:09Z</time>
      </trkpt>
      <trkpt lat="44.92276" lon="5.22923">
        <ele>1057</ele>
        <time>2015-08-19T08:28:13Z</time>
      </trkpt>
      <trkpt lat="44.92272" lon="5.22919">
        <ele>1057</ele>
        <time>2015-08-19T08:28:18Z</time>
      </trkpt>
      <trkpt lat="44.92272" lon="5.22916">
        <ele>1062</ele>
        <time>2015-08-19T08:28:20Z</time>
      </trkpt>
      <trkpt lat="44.92271" lon="5.22914">
        <ele>1062</ele>
        <time>2015-08-19T08:28:22Z</time>
      </trkpt>
      <trkpt lat="44.9227" lon="5.22911">
        <ele>1062</ele>
        <time>2015-08-19T08:28:24Z</time>
      </trkpt>
      <trkpt lat="44.92268" lon="5.22909">
        <ele>1062</ele>
        <time>2015-08-19T08:28:26Z</time>
      </trkpt>
      <trkpt lat="44.9226" lon="5.22893">
        <ele>1063</ele>
        <time>2015-08-19T08:28:42Z</time>
      </trkpt>
      <trkpt lat="44.92259" lon="5.22889">
        <ele>1063</ele>
        <time>2015-08-19T08:28:46Z</time>
      </trkpt>
      <trkpt lat="44.92263" lon="5.22879">
        <ele>1064</ele>
        <time>2015-08-19T08:28:55Z</time>
      </trkpt>
      <trkpt lat="44.92265" lon="5.22876">
        <ele>1064</ele>
        <time>2015-08-19T08:28:56Z</time>
      </trkpt>
      <trkpt lat="44.92269" lon="5.22861">
        <ele>1065</ele>
        <time>2015-08-19T08:29:08Z</time>
      </trkpt>
      <trkpt lat="44.92268" lon="5.22858">
        <ele>1065</ele>
        <time>2015-08-19T08:29:18Z</time>
      </trkpt>
      <trkpt lat="44.92267" lon="5.22856">
        <ele>1066</ele>
        <time>2015-08-19T08:29:21Z</time>
      </trkpt>
      <trkpt lat="44.92268" lon="5.22854">
        <ele>1066</ele>
        <time>2015-08-19T08:29:24Z</time>
      </trkpt>
      <trkpt lat="44.92268" lon="5.22852">
        <ele>1066</ele>
        <time>2015-08-19T08:29:26Z</time>
      </trkpt>
      <trkpt lat="44.92267" lon="5.2285">
        <ele>1066</ele>
        <time>2015-08-19T08:29:29Z</time>
      </trkpt>
      <trkpt lat="44.92267" lon="5.22846">
        <ele>1067</ele>
        <time>2015-08-19T08:29:32Z</time>
      </trkpt>
      <trkpt lat="44.92276" lon="5.22824">
        <ele>1073</ele>
        <time>2015-08-19T08:30:03Z</time>
      </trkpt>
      <trkpt lat="44.92278" lon="5.22815">
        <ele>1074</ele>
        <time>2015-08-19T08:30:12Z</time>
      </trkpt>
      <trkpt lat="44.92279" lon="5.22813">
        <ele>1074</ele>
        <time>2015-08-19T08:30:15Z</time>
      </trkpt>
      <trkpt lat="44.92278" lon="5.22811">
        <ele>1074</ele>
        <time>2015-08-19T08:30:18Z</time>
      </trkpt>
      <trkpt lat="44.92278" lon="5.22802">
        <ele>1075</ele>
        <time>2015-08-19T08:30:30Z</time>
      </trkpt>
      <trkpt lat="44.92276" lon="5.22799">
        <ele>1075</ele>
        <time>2015-08-19T08:30:33Z</time>
      </trkpt>
      <trkpt lat="44.92276" lon="5.22797">
        <ele>1075</ele>
        <time>2015-08-19T08:30:35Z</time>
      </trkpt>
      <trkpt lat="44.92274" lon="5.22789">
        <ele>1076</ele>
        <time>2015-08-19T08:30:44Z</time>
      </trkpt>
      <trkpt lat="44.92273" lon="5.22785">
        <ele>1077</ele>
        <time>2015-08-19T08:30:56Z</time>
      </trkpt>
      <trkpt lat="44.92272" lon="5.22784">
        <ele>1077</ele>
        <time>2015-08-19T08:31:01Z</time>
      </trkpt>
      <trkpt lat="44.92272" lon="5.22781">
        <ele>1077</ele>
        <time>2015-08-19T08:31:06Z</time>
      </trkpt>
      <trkpt lat="44.92274" lon="5.22768">
        <ele>1079</ele>
        <time>2015-08-19T08:31:28Z</time>
      </trkpt>
      <trkpt lat="44.92276" lon="5.2275">
        <ele>1086</ele>
        <time>2015-08-19T08:31:43Z</time>
      </trkpt>
      <trkpt lat="44.92274" lon="5.22747">
        <ele>1087</ele>
        <time>2015-08-19T08:31:47Z</time>
      </trkpt>
      <trkpt lat="44.92272" lon="5.22746">
        <ele>1087</ele>
        <time>2015-08-19T08:31:50Z</time>
      </trkpt>
      <trkpt lat="44.92273" lon="5.22736">
        <ele>1087</ele>
        <time>2015-08-19T08:32:03Z</time>
      </trkpt>
      <trkpt lat="44.92276" lon="5.2273">
        <ele>1087</ele>
        <time>2015-08-19T08:32:11Z</time>
      </trkpt>
      <trkpt lat="44.92276" lon="5.22728">
        <ele>1087</ele>
        <time>2015-08-19T08:32:13Z</time>
      </trkpt>
      <trkpt lat="44.92275" lon="5.22724">
        <ele>1087</ele>
        <time>2015-08-19T08:32:16Z</time>
      </trkpt>
      <trkpt lat="44.92273" lon="5.22722">
        <ele>1088</ele>
        <time>2015-08-19T08:32:18Z</time>
      </trkpt>
      <trkpt lat="44.92273" lon="5.22719">
        <ele>1088</ele>
        <time>2015-08-19T08:32:20Z</time>
      </trkpt>
      <trkpt lat="44.92273" lon="5.22713">
        <ele>1088</ele>
        <time>2015-08-19T08:32:24Z</time>
      </trkpt>
      <trkpt lat="44.92272" lon="5.2271">
        <ele>1088</ele>
        <time>2015-08-19T08:32:29Z</time>
      </trkpt>
      <trkpt lat="44.92267" lon="5.22708">
        <ele>1089</ele>
        <time>2015-08-19T08:32:33Z</time>
      </trkpt>
      <trkpt lat="44.92265" lon="5.22706">
        <ele>1089</ele>
        <time>2015-08-19T08:32:35Z</time>
      </trkpt>
      <trkpt lat="44.92265" lon="5.22703">
        <ele>1089</ele>
        <time>2015-08-19T08:32:38Z</time>
      </trkpt>
      <trkpt lat="44.92264" lon="5.22701">
        <ele>1089</ele>
        <time>2015-08-19T08:32:40Z</time>
      </trkpt>
      <trkpt lat="44.92262" lon="5.22701">
        <ele>1090</ele>
        <time>2015-08-19T08:32:42Z</time>
      </trkpt>
      <trkpt lat="44.9226" lon="5.22699">
        <ele>1090</ele>
        <time>2015-08-19T08:32:45Z</time>
      </trkpt>
      <trkpt lat="44.92257" lon="5.22699">
        <ele>1090</ele>
        <time>2015-08-19T08:32:48Z</time>
      </trkpt>
      <trkpt lat="44.92254" lon="5.22687">
        <ele>1092</ele>
        <time>2015-08-19T08:32:57Z</time>
      </trkpt>
      <trkpt lat="44.92251" lon="5.22683">
        <ele>1093</ele>
        <time>2015-08-19T08:33:01Z</time>
      </trkpt>
      <trkpt lat="44.92247" lon="5.22682">
        <ele>1096</ele>
        <time>2015-08-19T08:33:05Z</time>
      </trkpt>
      <trkpt lat="44.92232" lon="5.22656">
        <ele>1102</ele>
        <time>2015-08-19T08:33:36Z</time>
      </trkpt>
      <trkpt lat="44.92228" lon="5.22654">
        <ele>1103</ele>
        <time>2015-08-19T08:33:40Z</time>
      </trkpt>
      <trkpt lat="44.92221" lon="5.22648">
        <ele>1104</ele>
        <time>2015-08-19T08:33:50Z</time>
      </trkpt>
      <trkpt lat="44.92221" lon="5.2264">
        <ele>1105</ele>
        <time>2015-08-19T08:34:20Z</time>
      </trkpt>
      <trkpt lat="44.9222" lon="5.22638">
        <ele>1105</ele>
        <time>2015-08-19T08:34:23Z</time>
      </trkpt>
      <trkpt lat="44.92218" lon="5.2264">
        <ele>1105</ele>
        <time>2015-08-19T08:35:18Z</time>
      </trkpt>
      <trkpt lat="44.92216" lon="5.22639">
        <ele>1105</ele>
        <time>2015-08-19T08:35:54Z</time>
      </trkpt>
      <trkpt lat="44.92216" lon="5.22637">
        <ele>1105</ele>
        <time>2015-08-19T08:36:00Z</time>
      </trkpt>
      <trkpt lat="44.92216" lon="5.22635">
        <ele>1105</ele>
        <time>2015-08-19T08:36:03Z</time>
      </trkpt>
      <trkpt lat="44.92214" lon="5.22633">
        <ele>1105</ele>
        <time>2015-08-19T08:36:43Z</time>
      </trkpt>
      <trkpt lat="44.92209" lon="5.2263">
        <ele>1106</ele>
        <time>2015-08-19T08:36:48Z</time>
      </trkpt>
      <trkpt lat="44.92207" lon="5.22628">
        <ele>1106</ele>
        <time>2015-08-19T08:36:50Z</time>
      </trkpt>
      <trkpt lat="44.92201" lon="5.22626">
        <ele>1106</ele>
        <time>2015-08-19T08:36:55Z</time>
      </trkpt>
      <trkpt lat="44.92192" lon="5.22623">
        <ele>1107</ele>
        <time>2015-08-19T08:37:03Z</time>
      </trkpt>
      <trkpt lat="44.92191" lon="5.2262">
        <ele>1107</ele>
        <time>2015-08-19T08:37:05Z</time>
      </trkpt>
      <trkpt lat="44.92189" lon="5.22618">
        <ele>1107</ele>
        <time>2015-08-19T08:37:08Z</time>
      </trkpt>
      <trkpt lat="44.92181" lon="5.22607">
        <ele>1108</ele>
        <time>2015-08-19T08:37:20Z</time>
      </trkpt>
      <trkpt lat="44.92179" lon="5.22607">
        <ele>1108</ele>
        <time>2015-08-19T08:37:22Z</time>
      </trkpt>
      <trkpt lat="44.92177" lon="5.22598">
        <ele>1109</ele>
        <time>2015-08-19T08:37:32Z</time>
      </trkpt>
      <trkpt lat="44.92177" lon="5.22594">
        <ele>1109</ele>
        <time>2015-08-19T08:37:34Z</time>
      </trkpt>
      <trkpt lat="44.92176" lon="5.22591">
        <ele>1109</ele>
        <time>2015-08-19T08:37:36Z</time>
      </trkpt>
      <trkpt lat="44.92175" lon="5.22589">
        <ele>1110</ele>
        <time>2015-08-19T08:37:39Z</time>
      </trkpt>
      <trkpt lat="44.92174" lon="5.22586">
        <ele>1110</ele>
        <time>2015-08-19T08:37:41Z</time>
      </trkpt>
      <trkpt lat="44.92173" lon="5.22584">
        <ele>1110</ele>
        <time>2015-08-19T08:37:43Z</time>
      </trkpt>
      <trkpt lat="44.92172" lon="5.22581">
        <ele>1112</ele>
        <time>2015-08-19T08:37:45Z</time>
      </trkpt>
      <trkpt lat="44.9217" lon="5.22578">
        <ele>1112</ele>
        <time>2015-08-19T08:37:49Z</time>
      </trkpt>
      <trkpt lat="44.92169" lon="5.22575">
        <ele>1113</ele>
        <time>2015-08-19T08:37:51Z</time>
      </trkpt>
      <trkpt lat="44.92168" lon="5.22572">
        <ele>1113</ele>
        <time>2015-08-19T08:37:53Z</time>
      </trkpt>
      <trkpt lat="44.92166" lon="5.22564">
        <ele>1117</ele>
        <time>2015-08-19T08:37:58Z</time>
      </trkpt>
      <trkpt lat="44.92166" lon="5.2256">
        <ele>1118</ele>
        <time>2015-08-19T08:38:01Z</time>
      </trkpt>
      <trkpt lat="44.92164" lon="5.22558">
        <ele>1119</ele>
        <time>2015-08-19T08:38:03Z</time>
      </trkpt>
      <trkpt lat="44.92162" lon="5.22554">
        <ele>1119</ele>
        <time>2015-08-19T08:38:06Z</time>
      </trkpt>
      <trkpt lat="44.92158" lon="5.22554">
        <ele>1119</ele>
        <time>2015-08-19T08:38:10Z</time>
      </trkpt>
      <trkpt lat="44.92152" lon="5.22547">
        <ele>1120</ele>
        <time>2015-08-19T08:38:16Z</time>
      </trkpt>
      <trkpt lat="44.9215" lon="5.22541">
        <ele>1121</ele>
        <time>2015-08-19T08:38:28Z</time>
      </trkpt>
      <trkpt lat="44.92147" lon="5.22538">
        <ele>1121</ele>
        <time>2015-08-19T08:38:31Z</time>
      </trkpt>
      <trkpt lat="44.92147" lon="5.22536">
        <ele>1122</ele>
        <time>2015-08-19T08:38:33Z</time>
      </trkpt>
      <trkpt lat="44.92147" lon="5.22534">
        <ele>1122</ele>
        <time>2015-08-19T08:38:37Z</time>
      </trkpt>
      <trkpt lat="44.92144" lon="5.22534">
        <ele>1122</ele>
        <time>2015-08-19T08:38:39Z</time>
      </trkpt>
      <trkpt lat="44.92143" lon="5.22531">
        <ele>1122</ele>
        <time>2015-08-19T08:38:42Z</time>
      </trkpt>
      <trkpt lat="44.92141" lon="5.22531">
        <ele>1122</ele>
        <time>2015-08-19T08:38:45Z</time>
      </trkpt>
      <trkpt lat="44.92139" lon="5.22531">
        <ele>1122</ele>
        <time>2015-08-19T08:38:47Z</time>
      </trkpt>
      <trkpt lat="44.92138" lon="5.22529">
        <ele>1122</ele>
        <time>2015-08-19T08:38:49Z</time>
      </trkpt>
      <trkpt lat="44.92136" lon="5.22528">
        <ele>1123</ele>
        <time>2015-08-19T08:38:51Z</time>
      </trkpt>
      <trkpt lat="44.9213" lon="5.22523">
        <ele>1123</ele>
        <time>2015-08-19T08:38:58Z</time>
      </trkpt>
      <trkpt lat="44.92127" lon="5.22522">
        <ele>1123</ele>
        <time>2015-08-19T08:39:00Z</time>
      </trkpt>
      <trkpt lat="44.92124" lon="5.22519">
        <ele>1124</ele>
        <time>2015-08-19T08:39:06Z</time>
      </trkpt>
      <trkpt lat="44.92122" lon="5.22519">
        <ele>1124</ele>
        <time>2015-08-19T08:39:08Z</time>
      </trkpt>
      <trkpt lat="44.9212" lon="5.22518">
        <ele>1124</ele>
        <time>2015-08-19T08:39:11Z</time>
      </trkpt>
      <trkpt lat="44.92118" lon="5.22516">
        <ele>1124</ele>
        <time>2015-08-19T08:39:13Z</time>
      </trkpt>
      <trkpt lat="44.92117" lon="5.22514">
        <ele>1124</ele>
        <time>2015-08-19T08:39:15Z</time>
      </trkpt>
      <trkpt lat="44.92088" lon="5.22507">
        <ele>1127</ele>
        <time>2015-08-19T08:39:45Z</time>
      </trkpt>
      <trkpt lat="44.92082" lon="5.22504">
        <ele>1130</ele>
        <time>2015-08-19T08:39:51Z</time>
      </trkpt>
      <trkpt lat="44.92082" lon="5.22501">
        <ele>1130</ele>
        <time>2015-08-19T08:39:53Z</time>
      </trkpt>
      <trkpt lat="44.92082" lon="5.22499">
        <ele>1130</ele>
        <time>2015-08-19T08:39:55Z</time>
      </trkpt>
      <trkpt lat="44.92078" lon="5.22497">
        <ele>1132</ele>
        <time>2015-08-19T08:39:58Z</time>
      </trkpt>
      <trkpt lat="44.92077" lon="5.22497">
        <ele>1132</ele>
        <time>2015-08-19T08:39:59Z</time>
      </trkpt>
      <trkpt lat="44.92075" lon="5.22496">
        <ele>1133</ele>
        <time>2015-08-19T08:40:01Z</time>
      </trkpt>
      <trkpt lat="44.92072" lon="5.22495">
        <ele>1134</ele>
        <time>2015-08-19T08:40:03Z</time>
      </trkpt>
      <trkpt lat="44.9207" lon="5.22493">
        <ele>1134</ele>
        <time>2015-08-19T08:40:05Z</time>
      </trkpt>
      <trkpt lat="44.92069" lon="5.22491">
        <ele>1135</ele>
        <time>2015-08-19T08:40:07Z</time>
      </trkpt>
      <trkpt lat="44.9207" lon="5.22489">
        <ele>1135</ele>
        <time>2015-08-19T08:40:08Z</time>
      </trkpt>
      <trkpt lat="44.92066" lon="5.22476">
        <ele>1137</ele>
        <time>2015-08-19T08:40:18Z</time>
      </trkpt>
      <trkpt lat="44.92062" lon="5.22474">
        <ele>1138</ele>
        <time>2015-08-19T08:40:21Z</time>
      </trkpt>
      <trkpt lat="44.92061" lon="5.2247">
        <ele>1138</ele>
        <time>2015-08-19T08:40:24Z</time>
      </trkpt>
      <trkpt lat="44.92059" lon="5.2247">
        <ele>1138</ele>
        <time>2015-08-19T08:40:26Z</time>
      </trkpt>
      <trkpt lat="44.92052" lon="5.22465">
        <ele>1139</ele>
        <time>2015-08-19T08:40:33Z</time>
      </trkpt>
      <trkpt lat="44.92053" lon="5.2246">
        <ele>1139</ele>
        <time>2015-08-19T08:40:36Z</time>
      </trkpt>
      <trkpt lat="44.92052" lon="5.22454">
        <ele>1140</ele>
        <time>2015-08-19T08:40:40Z</time>
      </trkpt>
      <trkpt lat="44.92053" lon="5.22448">
        <ele>1140</ele>
        <time>2015-08-19T08:40:44Z</time>
      </trkpt>
      <trkpt lat="44.92048" lon="5.22434">
        <ele>1140</ele>
        <time>2015-08-19T08:40:55Z</time>
      </trkpt>
      <trkpt lat="44.92046" lon="5.22432">
        <ele>1141</ele>
        <time>2015-08-19T08:40:58Z</time>
      </trkpt>
      <trkpt lat="44.92045" lon="5.22431">
        <ele>1141</ele>
        <time>2015-08-19T08:40:59Z</time>
      </trkpt>
      <trkpt lat="44.92045" lon="5.22428">
        <ele>1141</ele>
        <time>2015-08-19T08:41:01Z</time>
      </trkpt>
      <trkpt lat="44.92045" lon="5.22424">
        <ele>1141</ele>
        <time>2015-08-19T08:41:03Z</time>
      </trkpt>
      <trkpt lat="44.92043" lon="5.22414">
        <ele>1147</ele>
        <time>2015-08-19T08:41:11Z</time>
      </trkpt>
      <trkpt lat="44.92039" lon="5.22411">
        <ele>1147</ele>
        <time>2015-08-19T08:41:16Z</time>
      </trkpt>
      <trkpt lat="44.92036" lon="5.22408">
        <ele>1147</ele>
        <time>2015-08-19T08:41:20Z</time>
      </trkpt>
      <trkpt lat="44.92033" lon="5.22406">
        <ele>1148</ele>
        <time>2015-08-19T08:41:23Z</time>
      </trkpt>
      <trkpt lat="44.92032" lon="5.22404">
        <ele>1148</ele>
        <time>2015-08-19T08:41:25Z</time>
      </trkpt>
      <trkpt lat="44.92031" lon="5.22401">
        <ele>1148</ele>
        <time>2015-08-19T08:41:28Z</time>
      </trkpt>
      <trkpt lat="44.92029" lon="5.224">
        <ele>1148</ele>
        <time>2015-08-19T08:41:30Z</time>
      </trkpt>
      <trkpt lat="44.92028" lon="5.22398">
        <ele>1148</ele>
        <time>2015-08-19T08:41:33Z</time>
      </trkpt>
      <trkpt lat="44.92025" lon="5.22399">
        <ele>1148</ele>
        <time>2015-08-19T08:41:36Z</time>
      </trkpt>
      <trkpt lat="44.92023" lon="5.22399">
        <ele>1148</ele>
        <time>2015-08-19T08:41:39Z</time>
      </trkpt>
      <trkpt lat="44.91993" lon="5.22401">
        <ele>1151</ele>
        <time>2015-08-19T08:42:09Z</time>
      </trkpt>
      <trkpt lat="44.91991" lon="5.22399">
        <ele>1152</ele>
        <time>2015-08-19T08:42:12Z</time>
      </trkpt>
      <trkpt lat="44.91988" lon="5.224">
        <ele>1152</ele>
        <time>2015-08-19T08:42:14Z</time>
      </trkpt>
      <trkpt lat="44.91986" lon="5.22398">
        <ele>1153</ele>
        <time>2015-08-19T08:42:17Z</time>
      </trkpt>
      <trkpt lat="44.91982" lon="5.22398">
        <ele>1153</ele>
        <time>2015-08-19T08:42:19Z</time>
      </trkpt>
      <trkpt lat="44.9198" lon="5.22397">
        <ele>1153</ele>
        <time>2015-08-19T08:42:21Z</time>
      </trkpt>
      <trkpt lat="44.91978" lon="5.22394">
        <ele>1154</ele>
        <time>2015-08-19T08:42:24Z</time>
      </trkpt>
      <trkpt lat="44.91977" lon="5.22394">
        <ele>1154</ele>
        <time>2015-08-19T08:42:26Z</time>
      </trkpt>
      <trkpt lat="44.91975" lon="5.22391">
        <ele>1154</ele>
        <time>2015-08-19T08:42:28Z</time>
      </trkpt>
      <trkpt lat="44.91976" lon="5.22387">
        <ele>1154</ele>
        <time>2015-08-19T08:42:30Z</time>
      </trkpt>
      <trkpt lat="44.91975" lon="5.22384">
        <ele>1155</ele>
        <time>2015-08-19T08:42:32Z</time>
      </trkpt>
      <trkpt lat="44.91973" lon="5.22383">
        <ele>1155</ele>
        <time>2015-08-19T08:42:35Z</time>
      </trkpt>
      <trkpt lat="44.91968" lon="5.22379">
        <ele>1155</ele>
        <time>2015-08-19T08:42:45Z</time>
      </trkpt>
      <trkpt lat="44.91967" lon="5.22379">
        <ele>1155</ele>
        <time>2015-08-19T08:42:47Z</time>
      </trkpt>
      <trkpt lat="44.91965" lon="5.22379">
        <ele>1155</ele>
        <time>2015-08-19T08:42:49Z</time>
      </trkpt>
      <trkpt lat="44.9196" lon="5.22381">
        <ele>1156</ele>
        <time>2015-08-19T08:43:14Z</time>
      </trkpt>
      <trkpt lat="44.91958" lon="5.2238">
        <ele>1156</ele>
        <time>2015-08-19T08:43:16Z</time>
      </trkpt>
      <trkpt lat="44.91955" lon="5.22381">
        <ele>1156</ele>
        <time>2015-08-19T08:43:22Z</time>
      </trkpt>
      <trkpt lat="44.91953" lon="5.22381">
        <ele>1156</ele>
        <time>2015-08-19T08:43:23Z</time>
      </trkpt>
      <trkpt lat="44.91944" lon="5.22382">
        <ele>1157</ele>
        <time>2015-08-19T08:43:31Z</time>
      </trkpt>
      <trkpt lat="44.91937" lon="5.22383">
        <ele>1157</ele>
        <time>2015-08-19T08:43:38Z</time>
      </trkpt>
      <trkpt lat="44.91934" lon="5.22381">
        <ele>1158</ele>
        <time>2015-08-19T08:43:40Z</time>
      </trkpt>
      <trkpt lat="44.91929" lon="5.22377">
        <ele>1158</ele>
        <time>2015-08-19T08:43:44Z</time>
      </trkpt>
      <trkpt lat="44.91923" lon="5.22374">
        <ele>1158</ele>
        <time>2015-08-19T08:43:51Z</time>
      </trkpt>
      <trkpt lat="44.91919" lon="5.2237">
        <ele>1158</ele>
        <time>2015-08-19T08:43:55Z</time>
      </trkpt>
      <trkpt lat="44.91919" lon="5.22367">
        <ele>1158</ele>
        <time>2015-08-19T08:43:56Z</time>
      </trkpt>
      <trkpt lat="44.91914" lon="5.2236">
        <ele>1164</ele>
        <time>2015-08-19T08:44:04Z</time>
      </trkpt>
      <trkpt lat="44.91913" lon="5.22359">
        <ele>1164</ele>
        <time>2015-08-19T08:44:06Z</time>
      </trkpt>
      <trkpt lat="44.9191" lon="5.22357">
        <ele>1164</ele>
        <time>2015-08-19T08:44:09Z</time>
      </trkpt>
      <trkpt lat="44.91908" lon="5.22356">
        <ele>1164</ele>
        <time>2015-08-19T08:44:12Z</time>
      </trkpt>
      <trkpt lat="44.91906" lon="5.22356">
        <ele>1164</ele>
        <time>2015-08-19T08:44:16Z</time>
      </trkpt>
      <trkpt lat="44.91878" lon="5.22333">
        <ele>1167</ele>
        <time>2015-08-19T08:44:47Z</time>
      </trkpt>
      <trkpt lat="44.91865" lon="5.22322">
        <ele>1168</ele>
        <time>2015-08-19T08:45:06Z</time>
      </trkpt>
      <trkpt lat="44.9186" lon="5.22318">
        <ele>1168</ele>
        <time>2015-08-19T08:45:10Z</time>
      </trkpt>
      <trkpt lat="44.91858" lon="5.22312">
        <ele>1168</ele>
        <time>2015-08-19T08:45:15Z</time>
      </trkpt>
      <trkpt lat="44.91851" lon="5.22302">
        <ele>1169</ele>
        <time>2015-08-19T08:45:23Z</time>
      </trkpt>
      <trkpt lat="44.91853" lon="5.22297">
        <ele>1169</ele>
        <time>2015-08-19T08:45:28Z</time>
      </trkpt>
      <trkpt lat="44.91852" lon="5.22285">
        <ele>1170</ele>
        <time>2015-08-19T08:45:47Z</time>
      </trkpt>
      <trkpt lat="44.91848" lon="5.22277">
        <ele>1171</ele>
        <time>2015-08-19T08:45:51Z</time>
      </trkpt>
      <trkpt lat="44.91847" lon="5.22267">
        <ele>1172</ele>
        <time>2015-08-19T08:45:57Z</time>
      </trkpt>
      <trkpt lat="44.91841" lon="5.22256">
        <ele>1174</ele>
        <time>2015-08-19T08:46:04Z</time>
      </trkpt>
      <trkpt lat="44.91841" lon="5.22254">
        <ele>1174</ele>
        <time>2015-08-19T08:46:06Z</time>
      </trkpt>
      <trkpt lat="44.91839" lon="5.22252">
        <ele>1174</ele>
        <time>2015-08-19T08:46:08Z</time>
      </trkpt>
      <trkpt lat="44.91839" lon="5.22249">
        <ele>1177</ele>
        <time>2015-08-19T08:46:10Z</time>
      </trkpt>
      <trkpt lat="44.91838" lon="5.22248">
        <ele>1177</ele>
        <time>2015-08-19T08:46:12Z</time>
      </trkpt>
      <trkpt lat="44.91837" lon="5.22246">
        <ele>1177</ele>
        <time>2015-08-19T08:46:14Z</time>
      </trkpt>
      <trkpt lat="44.91835" lon="5.22246">
        <ele>1177</ele>
        <time>2015-08-19T08:46:16Z</time>
      </trkpt>
      <trkpt lat="44.91833" lon="5.22245">
        <ele>1177</ele>
        <time>2015-08-19T08:46:21Z</time>
      </trkpt>
      <trkpt lat="44.91832" lon="5.22245">
        <ele>1177</ele>
        <time>2015-08-19T08:46:26Z</time>
      </trkpt>
      <trkpt lat="44.91828" lon="5.22239">
        <ele>1178</ele>
        <time>2015-08-19T08:46:33Z</time>
      </trkpt>
      <trkpt lat="44.91829" lon="5.22233">
        <ele>1179</ele>
        <time>2015-08-19T08:46:37Z</time>
      </trkpt>
      <trkpt lat="44.91827" lon="5.22232">
        <ele>1179</ele>
        <time>2015-08-19T08:46:38Z</time>
      </trkpt>
      <trkpt lat="44.91826" lon="5.22226">
        <ele>1180</ele>
        <time>2015-08-19T08:46:43Z</time>
      </trkpt>
      <trkpt lat="44.91826" lon="5.22223">
        <ele>1180</ele>
        <time>2015-08-19T08:46:46Z</time>
      </trkpt>
      <trkpt lat="44.91824" lon="5.22221">
        <ele>1180</ele>
        <time>2015-08-19T08:46:50Z</time>
      </trkpt>
      <trkpt lat="44.91827" lon="5.22216">
        <ele>1181</ele>
        <time>2015-08-19T08:46:53Z</time>
      </trkpt>
      <trkpt lat="44.91825" lon="5.22214">
        <ele>1181</ele>
        <time>2015-08-19T08:46:56Z</time>
      </trkpt>
      <trkpt lat="44.91824" lon="5.22211">
        <ele>1181</ele>
        <time>2015-08-19T08:46:58Z</time>
      </trkpt>
      <trkpt lat="44.91825" lon="5.22209">
        <ele>1181</ele>
        <time>2015-08-19T08:47:04Z</time>
      </trkpt>
      <trkpt lat="44.91825" lon="5.22205">
        <ele>1181</ele>
        <time>2015-08-19T08:47:19Z</time>
      </trkpt>
      <trkpt lat="44.91823" lon="5.22203">
        <ele>1182</ele>
        <time>2015-08-19T08:47:20Z</time>
      </trkpt>
      <trkpt lat="44.91822" lon="5.22201">
        <ele>1182</ele>
        <time>2015-08-19T08:47:21Z</time>
      </trkpt>
      <trkpt lat="44.91821" lon="5.22197">
        <ele>1182</ele>
        <time>2015-08-19T08:47:23Z</time>
      </trkpt>
      <trkpt lat="44.9182" lon="5.22197">
        <ele>1182</ele>
        <time>2015-08-19T08:47:25Z</time>
      </trkpt>
      <trkpt lat="44.9182" lon="5.22193">
        <ele>1182</ele>
        <time>2015-08-19T08:47:27Z</time>
      </trkpt>
      <trkpt lat="44.91819" lon="5.22191">
        <ele>1182</ele>
        <time>2015-08-19T08:47:28Z</time>
      </trkpt>
      <trkpt lat="44.91819" lon="5.22189">
        <ele>1183</ele>
        <time>2015-08-19T08:47:30Z</time>
      </trkpt>
      <trkpt lat="44.91816" lon="5.22174">
        <ele>1183</ele>
        <time>2015-08-19T08:47:40Z</time>
      </trkpt>
      <trkpt lat="44.91814" lon="5.22169">
        <ele>1183</ele>
        <time>2015-08-19T08:47:46Z</time>
      </trkpt>
      <trkpt lat="44.91813" lon="5.22164">
        <ele>1189</ele>
        <time>2015-08-19T08:47:50Z</time>
      </trkpt>
      <trkpt lat="44.91809" lon="5.22147">
        <ele>1190</ele>
        <time>2015-08-19T08:48:03Z</time>
      </trkpt>
      <trkpt lat="44.91808" lon="5.22136">
        <ele>1191</ele>
        <time>2015-08-19T08:48:11Z</time>
      </trkpt>
      <trkpt lat="44.91806" lon="5.22134">
        <ele>1191</ele>
        <time>2015-08-19T08:48:14Z</time>
      </trkpt>
      <trkpt lat="44.91805" lon="5.22131">
        <ele>1192</ele>
        <time>2015-08-19T08:48:23Z</time>
      </trkpt>
      <trkpt lat="44.91806" lon="5.22125">
        <ele>1192</ele>
        <time>2015-08-19T08:48:34Z</time>
      </trkpt>
      <trkpt lat="44.91804" lon="5.22124">
        <ele>1192</ele>
        <time>2015-08-19T08:48:35Z</time>
      </trkpt>
      <trkpt lat="44.91804" lon="5.22117">
        <ele>1193</ele>
        <time>2015-08-19T08:48:38Z</time>
      </trkpt>
      <trkpt lat="44.91805" lon="5.22114">
        <ele>1193</ele>
        <time>2015-08-19T08:48:40Z</time>
      </trkpt>
      <trkpt lat="44.91804" lon="5.22109">
        <ele>1193</ele>
        <time>2015-08-19T08:48:46Z</time>
      </trkpt>
      <trkpt lat="44.91805" lon="5.22107">
        <ele>1194</ele>
        <time>2015-08-19T08:48:48Z</time>
      </trkpt>
      <trkpt lat="44.91806" lon="5.22104">
        <ele>1194</ele>
        <time>2015-08-19T08:48:49Z</time>
      </trkpt>
      <trkpt lat="44.91806" lon="5.22101">
        <ele>1194</ele>
        <time>2015-08-19T08:48:51Z</time>
      </trkpt>
      <trkpt lat="44.91807" lon="5.22093">
        <ele>1195</ele>
        <time>2015-08-19T08:48:59Z</time>
      </trkpt>
      <trkpt lat="44.91806" lon="5.22091">
        <ele>1195</ele>
        <time>2015-08-19T08:49:00Z</time>
      </trkpt>
      <trkpt lat="44.91806" lon="5.22088">
        <ele>1195</ele>
        <time>2015-08-19T08:49:02Z</time>
      </trkpt>
      <trkpt lat="44.91807" lon="5.22082">
        <ele>1201</ele>
        <time>2015-08-19T08:49:07Z</time>
      </trkpt>
      <trkpt lat="44.9182" lon="5.22062">
        <ele>1201</ele>
        <time>2015-08-19T08:49:26Z</time>
      </trkpt>
      <trkpt lat="44.91819" lon="5.22055">
        <ele>1201</ele>
        <time>2015-08-19T08:49:36Z</time>
      </trkpt>
      <trkpt lat="44.91819" lon="5.22051">
        <ele>1201</ele>
        <time>2015-08-19T08:49:38Z</time>
      </trkpt>
      <trkpt lat="44.91818" lon="5.22048">
        <ele>1202</ele>
        <time>2015-08-19T08:49:39Z</time>
      </trkpt>
      <trkpt lat="44.91826" lon="5.22033">
        <ele>1202</ele>
        <time>2015-08-19T08:49:49Z</time>
      </trkpt>
      <trkpt lat="44.91828" lon="5.2203">
        <ele>1202</ele>
        <time>2015-08-19T08:49:51Z</time>
      </trkpt>
      <trkpt lat="44.91835" lon="5.21996">
        <ele>1200</ele>
        <time>2015-08-19T08:50:18Z</time>
      </trkpt>
      <trkpt lat="44.91834" lon="5.21983">
        <ele>1199</ele>
        <time>2015-08-19T08:50:33Z</time>
      </trkpt>
      <trkpt lat="44.91841" lon="5.21936">
        <ele>1198</ele>
        <time>2015-08-19T08:51:09Z</time>
      </trkpt>
      <trkpt lat="44.91843" lon="5.21931">
        <ele>1198</ele>
        <time>2015-08-19T08:51:16Z</time>
      </trkpt>
      <trkpt lat="44.91844" lon="5.21927">
        <ele>1198</ele>
        <time>2015-08-19T08:51:22Z</time>
      </trkpt>
      <trkpt lat="44.91843" lon="5.21925">
        <ele>1198</ele>
        <time>2015-08-19T08:51:25Z</time>
      </trkpt>
      <trkpt lat="44.91843" lon="5.21922">
        <ele>1198</ele>
        <time>2015-08-19T08:51:27Z</time>
      </trkpt>
      <trkpt lat="44.91843" lon="5.21919">
        <ele>1198</ele>
        <time>2015-08-19T08:51:34Z</time>
      </trkpt>
      <trkpt lat="44.91856" lon="5.21891">
        <ele>1191</ele>
        <time>2015-08-19T08:52:04Z</time>
      </trkpt>
      <trkpt lat="44.91859" lon="5.21886">
        <ele>1190</ele>
        <time>2015-08-19T08:54:32Z</time>
      </trkpt>
      <trkpt lat="44.91881" lon="5.2185">
        <ele>1186</ele>
        <time>2015-08-19T08:55:03Z</time>
      </trkpt>
      <trkpt lat="44.919" lon="5.21823">
        <ele>1176</ele>
        <time>2015-08-19T08:55:39Z</time>
      </trkpt>
      <trkpt lat="44.91906" lon="5.21803">
        <ele>1175</ele>
        <time>2015-08-19T08:55:57Z</time>
      </trkpt>
      <trkpt lat="44.91907" lon="5.21796">
        <ele>1174</ele>
        <time>2015-08-19T08:56:02Z</time>
      </trkpt>
      <trkpt lat="44.91906" lon="5.21789">
        <ele>1174</ele>
        <time>2015-08-19T08:56:06Z</time>
      </trkpt>
      <trkpt lat="44.91905" lon="5.21783">
        <ele>1173</ele>
        <time>2015-08-19T08:56:11Z</time>
      </trkpt>
      <trkpt lat="44.91878" lon="5.21763">
        <ele>1174</ele>
        <time>2015-08-19T08:56:44Z</time>
      </trkpt>
      <trkpt lat="44.91849" lon="5.21747">
        <ele>1171</ele>
        <time>2015-08-19T08:57:03Z</time>
      </trkpt>
      <trkpt lat="44.91851" lon="5.2174">
        <ele>1171</ele>
        <time>2015-08-19T08:57:07Z</time>
      </trkpt>
      <trkpt lat="44.91864" lon="5.21703">
        <ele>1170</ele>
        <time>2015-08-19T08:57:38Z</time>
      </trkpt>
      <trkpt lat="44.91865" lon="5.21684">
        <ele>1170</ele>
        <time>2015-08-19T08:57:49Z</time>
      </trkpt>
      <trkpt lat="44.91864" lon="5.21678">
        <ele>1170</ele>
        <time>2015-08-19T08:57:51Z</time>
      </trkpt>
      <trkpt lat="44.91861" lon="5.21675">
        <ele>1170</ele>
        <time>2015-08-19T08:57:54Z</time>
      </trkpt>
      <trkpt lat="44.91858" lon="5.21662">
        <ele>1170</ele>
        <time>2015-08-19T08:58:04Z</time>
      </trkpt>
      <trkpt lat="44.91859" lon="5.21659">
        <ele>1170</ele>
        <time>2015-08-19T08:58:05Z</time>
      </trkpt>
      <trkpt lat="44.91855" lon="5.21648">
        <ele>1170</ele>
        <time>2015-08-19T08:58:11Z</time>
      </trkpt>
      <trkpt lat="44.91853" lon="5.21646">
        <ele>1170</ele>
        <time>2015-08-19T08:58:12Z</time>
      </trkpt>
      <trkpt lat="44.91842" lon="5.21627">
        <ele>1170</ele>
        <time>2015-08-19T08:58:27Z</time>
      </trkpt>
      <trkpt lat="44.91842" lon="5.21624">
        <ele>1170</ele>
        <time>2015-08-19T08:58:30Z</time>
      </trkpt>
      <trkpt lat="44.91841" lon="5.21622">
        <ele>1170</ele>
        <time>2015-08-19T08:58:35Z</time>
      </trkpt>
      <trkpt lat="44.9184" lon="5.21621">
        <ele>1170</ele>
        <time>2015-08-19T08:58:36Z</time>
      </trkpt>
      <trkpt lat="44.91836" lon="5.21613">
        <ele>1170</ele>
        <time>2015-08-19T08:58:42Z</time>
      </trkpt>
      <trkpt lat="44.91837" lon="5.2161">
        <ele>1170</ele>
        <time>2015-08-19T08:58:44Z</time>
      </trkpt>
      <trkpt lat="44.91835" lon="5.21609">
        <ele>1169</ele>
        <time>2015-08-19T08:58:47Z</time>
      </trkpt>
      <trkpt lat="44.91834" lon="5.21607">
        <ele>1169</ele>
        <time>2015-08-19T08:58:52Z</time>
      </trkpt>
      <trkpt lat="44.91834" lon="5.21602">
        <ele>1169</ele>
        <time>2015-08-19T08:58:55Z</time>
      </trkpt>
      <trkpt lat="44.91835" lon="5.216">
        <ele>1169</ele>
        <time>2015-08-19T08:58:56Z</time>
      </trkpt>
      <trkpt lat="44.91806" lon="5.21565">
        <ele>1166</ele>
        <time>2015-08-19T08:59:23Z</time>
      </trkpt>
      <trkpt lat="44.91802" lon="5.21562">
        <ele>1166</ele>
        <time>2015-08-19T08:59:27Z</time>
      </trkpt>
      <trkpt lat="44.91799" lon="5.21559">
        <ele>1166</ele>
        <time>2015-08-19T08:59:32Z</time>
      </trkpt>
      <trkpt lat="44.91793" lon="5.21557">
        <ele>1166</ele>
        <time>2015-08-19T08:59:37Z</time>
      </trkpt>
      <trkpt lat="44.91789" lon="5.21558">
        <ele>1166</ele>
        <time>2015-08-19T08:59:41Z</time>
      </trkpt>
      <trkpt lat="44.91788" lon="5.21557">
        <ele>1166</ele>
        <time>2015-08-19T08:59:43Z</time>
      </trkpt>
      <trkpt lat="44.91786" lon="5.21556">
        <ele>1166</ele>
        <time>2015-08-19T08:59:45Z</time>
      </trkpt>
      <trkpt lat="44.91784" lon="5.21555">
        <ele>1166</ele>
        <time>2015-08-19T08:59:47Z</time>
      </trkpt>
      <trkpt lat="44.91782" lon="5.21554">
        <ele>1165</ele>
        <time>2015-08-19T08:59:49Z</time>
      </trkpt>
      <trkpt lat="44.9178" lon="5.21555">
        <ele>1165</ele>
        <time>2015-08-19T08:59:51Z</time>
      </trkpt>
      <trkpt lat="44.91779" lon="5.21555">
        <ele>1165</ele>
        <time>2015-08-19T08:59:52Z</time>
      </trkpt>
      <trkpt lat="44.91776" lon="5.21552">
        <ele>1165</ele>
        <time>2015-08-19T08:59:55Z</time>
      </trkpt>
      <trkpt lat="44.91775" lon="5.21551">
        <ele>1165</ele>
        <time>2015-08-19T08:59:56Z</time>
      </trkpt>
      <trkpt lat="44.91751" lon="5.21532">
        <ele>1166</ele>
        <time>2015-08-19T09:00:26Z</time>
      </trkpt>
      <trkpt lat="44.91749" lon="5.21531">
        <ele>1164</ele>
        <time>2015-08-19T09:00:27Z</time>
      </trkpt>
      <trkpt lat="44.91746" lon="5.21531">
        <ele>1164</ele>
        <time>2015-08-19T09:00:29Z</time>
      </trkpt>
      <trkpt lat="44.9174" lon="5.21528">
        <ele>1164</ele>
        <time>2015-08-19T09:00:36Z</time>
      </trkpt>
      <trkpt lat="44.91737" lon="5.21521">
        <ele>1165</ele>
        <time>2015-08-19T09:00:43Z</time>
      </trkpt>
      <trkpt lat="44.91733" lon="5.21518">
        <ele>1165</ele>
        <time>2015-08-19T09:00:46Z</time>
      </trkpt>
      <trkpt lat="44.91733" lon="5.21515">
        <ele>1165</ele>
        <time>2015-08-19T09:00:49Z</time>
      </trkpt>
      <trkpt lat="44.9173" lon="5.21515">
        <ele>1165</ele>
        <time>2015-08-19T09:00:50Z</time>
      </trkpt>
      <trkpt lat="44.91728" lon="5.21514">
        <ele>1165</ele>
        <time>2015-08-19T09:00:52Z</time>
      </trkpt>
      <trkpt lat="44.91726" lon="5.21513">
        <ele>1165</ele>
        <time>2015-08-19T09:00:53Z</time>
      </trkpt>
      <trkpt lat="44.91723" lon="5.2151">
        <ele>1165</ele>
        <time>2015-08-19T09:00:57Z</time>
      </trkpt>
      <trkpt lat="44.91717" lon="5.21507">
        <ele>1164</ele>
        <time>2015-08-19T09:01:05Z</time>
      </trkpt>
      <trkpt lat="44.91716" lon="5.21505">
        <ele>1164</ele>
        <time>2015-08-19T09:01:07Z</time>
      </trkpt>
      <trkpt lat="44.91697" lon="5.21492">
        <ele>1166</ele>
        <time>2015-08-19T09:01:29Z</time>
      </trkpt>
      <trkpt lat="44.91695" lon="5.21491">
        <ele>1166</ele>
        <time>2015-08-19T09:01:31Z</time>
      </trkpt>
      <trkpt lat="44.91693" lon="5.2149">
        <ele>1166</ele>
        <time>2015-08-19T09:01:33Z</time>
      </trkpt>
      <trkpt lat="44.91692" lon="5.21488">
        <ele>1166</ele>
        <time>2015-08-19T09:01:35Z</time>
      </trkpt>
      <trkpt lat="44.9169" lon="5.21486">
        <ele>1166</ele>
        <time>2015-08-19T09:01:37Z</time>
      </trkpt>
      <trkpt lat="44.9169" lon="5.21482">
        <ele>1166</ele>
        <time>2015-08-19T09:01:39Z</time>
      </trkpt>
      <trkpt lat="44.91689" lon="5.21479">
        <ele>1166</ele>
        <time>2015-08-19T09:01:41Z</time>
      </trkpt>
      <trkpt lat="44.91675" lon="5.21471">
        <ele>1166</ele>
        <time>2015-08-19T09:02:00Z</time>
      </trkpt>
      <trkpt lat="44.91672" lon="5.2147">
        <ele>1166</ele>
        <time>2015-08-19T09:02:02Z</time>
      </trkpt>
      <trkpt lat="44.9167" lon="5.21467">
        <ele>1166</ele>
        <time>2015-08-19T09:02:05Z</time>
      </trkpt>
      <trkpt lat="44.91666" lon="5.21467">
        <ele>1165</ele>
        <time>2015-08-19T09:02:07Z</time>
      </trkpt>
      <trkpt lat="44.91659" lon="5.21462">
        <ele>1165</ele>
        <time>2015-08-19T09:02:12Z</time>
      </trkpt>
      <trkpt lat="44.91659" lon="5.2146">
        <ele>1165</ele>
        <time>2015-08-19T09:02:15Z</time>
      </trkpt>
      <trkpt lat="44.91659" lon="5.21457">
        <ele>1166</ele>
        <time>2015-08-19T09:02:17Z</time>
      </trkpt>
      <trkpt lat="44.91658" lon="5.21456">
        <ele>1166</ele>
        <time>2015-08-19T09:02:21Z</time>
      </trkpt>
      <trkpt lat="44.91656" lon="5.21455">
        <ele>1166</ele>
        <time>2015-08-19T09:02:22Z</time>
      </trkpt>
      <trkpt lat="44.91655" lon="5.21454">
        <ele>1166</ele>
        <time>2015-08-19T09:02:23Z</time>
      </trkpt>
      <trkpt lat="44.91654" lon="5.21452">
        <ele>1166</ele>
        <time>2015-08-19T09:02:24Z</time>
      </trkpt>
      <trkpt lat="44.91652" lon="5.21449">
        <ele>1166</ele>
        <time>2015-08-19T09:02:26Z</time>
      </trkpt>
      <trkpt lat="44.91652" lon="5.21447">
        <ele>1166</ele>
        <time>2015-08-19T09:02:29Z</time>
      </trkpt>
      <trkpt lat="44.91651" lon="5.21445">
        <ele>1166</ele>
        <time>2015-08-19T09:02:30Z</time>
      </trkpt>
      <trkpt lat="44.91646" lon="5.21438">
        <ele>1166</ele>
        <time>2015-08-19T09:02:36Z</time>
      </trkpt>
      <trkpt lat="44.91638" lon="5.21432">
        <ele>1166</ele>
        <time>2015-08-19T09:02:43Z</time>
      </trkpt>
      <trkpt lat="44.91635" lon="5.21427">
        <ele>1166</ele>
        <time>2015-08-19T09:02:48Z</time>
      </trkpt>
      <trkpt lat="44.91633" lon="5.21426">
        <ele>1166</ele>
        <time>2015-08-19T09:02:50Z</time>
      </trkpt>
      <trkpt lat="44.91631" lon="5.21423">
        <ele>1166</ele>
        <time>2015-08-19T09:02:52Z</time>
      </trkpt>
      <trkpt lat="44.91628" lon="5.21414">
        <ele>1166</ele>
        <time>2015-08-19T09:02:58Z</time>
      </trkpt>
      <trkpt lat="44.91627" lon="5.21412">
        <ele>1166</ele>
        <time>2015-08-19T09:03:00Z</time>
      </trkpt>
      <trkpt lat="44.91624" lon="5.21406">
        <ele>1166</ele>
        <time>2015-08-19T09:03:09Z</time>
      </trkpt>
      <trkpt lat="44.91622" lon="5.21405">
        <ele>1166</ele>
        <time>2015-08-19T09:03:11Z</time>
      </trkpt>
      <trkpt lat="44.91621" lon="5.21401">
        <ele>1166</ele>
        <time>2015-08-19T09:03:14Z</time>
      </trkpt>
      <trkpt lat="44.9162" lon="5.21398">
        <ele>1166</ele>
        <time>2015-08-19T09:03:16Z</time>
      </trkpt>
      <trkpt lat="44.91619" lon="5.21395">
        <ele>1166</ele>
        <time>2015-08-19T09:03:19Z</time>
      </trkpt>
      <trkpt lat="44.91618" lon="5.21392">
        <ele>1166</ele>
        <time>2015-08-19T09:03:21Z</time>
      </trkpt>
      <trkpt lat="44.91611" lon="5.21383">
        <ele>1166</ele>
        <time>2015-08-19T09:03:30Z</time>
      </trkpt>
      <trkpt lat="44.91605" lon="5.21363">
        <ele>1166</ele>
        <time>2015-08-19T09:03:42Z</time>
      </trkpt>
      <trkpt lat="44.9159" lon="5.21347">
        <ele>1165</ele>
        <time>2015-08-19T09:03:59Z</time>
      </trkpt>
      <trkpt lat="44.91589" lon="5.21341">
        <ele>1165</ele>
        <time>2015-08-19T09:04:04Z</time>
      </trkpt>
      <trkpt lat="44.91593" lon="5.21331">
        <ele>1164</ele>
        <time>2015-08-19T09:04:15Z</time>
      </trkpt>
      <trkpt lat="44.91587" lon="5.21324">
        <ele>1164</ele>
        <time>2015-08-19T09:04:28Z</time>
      </trkpt>
      <trkpt lat="44.91582" lon="5.21324">
        <ele>1165</ele>
        <time>2015-08-19T09:04:32Z</time>
      </trkpt>
      <trkpt lat="44.91578" lon="5.2132">
        <ele>1165</ele>
        <time>2015-08-19T09:04:40Z</time>
      </trkpt>
      <trkpt lat="44.91573" lon="5.21317">
        <ele>1165</ele>
        <time>2015-08-19T09:04:50Z</time>
      </trkpt>
      <trkpt lat="44.9157" lon="5.21317">
        <ele>1165</ele>
        <time>2015-08-19T09:05:20Z</time>
      </trkpt>
      <trkpt lat="44.91567" lon="5.21316">
        <ele>1165</ele>
        <time>2015-08-19T09:05:21Z</time>
      </trkpt>
      <trkpt lat="44.91546" lon="5.21299">
        <ele>1164</ele>
        <time>2015-08-19T09:05:43Z</time>
      </trkpt>
      <trkpt lat="44.91544" lon="5.21296">
        <ele>1164</ele>
        <time>2015-08-19T09:05:45Z</time>
      </trkpt>
      <trkpt lat="44.91542" lon="5.21294">
        <ele>1165</ele>
        <time>2015-08-19T09:05:47Z</time>
      </trkpt>
      <trkpt lat="44.91542" lon="5.21291">
        <ele>1164</ele>
        <time>2015-08-19T09:05:49Z</time>
      </trkpt>
      <trkpt lat="44.91535" lon="5.21283">
        <ele>1165</ele>
        <time>2015-08-19T09:06:00Z</time>
      </trkpt>
      <trkpt lat="44.91534" lon="5.21278">
        <ele>1165</ele>
        <time>2015-08-19T09:06:06Z</time>
      </trkpt>
      <trkpt lat="44.91528" lon="5.2127">
        <ele>1165</ele>
        <time>2015-08-19T09:06:12Z</time>
      </trkpt>
      <trkpt lat="44.91526" lon="5.21267">
        <ele>1165</ele>
        <time>2015-08-19T09:06:14Z</time>
      </trkpt>
      <trkpt lat="44.91526" lon="5.21262">
        <ele>1165</ele>
        <time>2015-08-19T09:06:16Z</time>
      </trkpt>
      <trkpt lat="44.91526" lon="5.21257">
        <ele>1165</ele>
        <time>2015-08-19T09:06:18Z</time>
      </trkpt>
      <trkpt lat="44.91524" lon="5.21254">
        <ele>1165</ele>
        <time>2015-08-19T09:06:20Z</time>
      </trkpt>
      <trkpt lat="44.91522" lon="5.21243">
        <ele>1163</ele>
        <time>2015-08-19T09:06:33Z</time>
      </trkpt>
      <trkpt lat="44.91522" lon="5.2124">
        <ele>1163</ele>
        <time>2015-08-19T09:06:36Z</time>
      </trkpt>
      <trkpt lat="44.9152" lon="5.21236">
        <ele>1163</ele>
        <time>2015-08-19T09:06:39Z</time>
      </trkpt>
      <trkpt lat="44.9152" lon="5.21233">
        <ele>1163</ele>
        <time>2015-08-19T09:06:40Z</time>
      </trkpt>
      <trkpt lat="44.91519" lon="5.21231">
        <ele>1163</ele>
        <time>2015-08-19T09:06:41Z</time>
      </trkpt>
      <trkpt lat="44.91518" lon="5.21228">
        <ele>1162</ele>
        <time>2015-08-19T09:06:43Z</time>
      </trkpt>
      <trkpt lat="44.9152" lon="5.21219">
        <ele>1162</ele>
        <time>2015-08-19T09:06:48Z</time>
      </trkpt>
      <trkpt lat="44.91519" lon="5.21215">
        <ele>1162</ele>
        <time>2015-08-19T09:06:51Z</time>
      </trkpt>
      <trkpt lat="44.91517" lon="5.21213">
        <ele>1162</ele>
        <time>2015-08-19T09:06:53Z</time>
      </trkpt>
      <trkpt lat="44.91515" lon="5.2121">
        <ele>1161</ele>
        <time>2015-08-19T09:06:55Z</time>
      </trkpt>
      <trkpt lat="44.91515" lon="5.21206">
        <ele>1161</ele>
        <time>2015-08-19T09:06:58Z</time>
      </trkpt>
      <trkpt lat="44.91516" lon="5.21189">
        <ele>1161</ele>
        <time>2015-08-19T09:07:09Z</time>
      </trkpt>
      <trkpt lat="44.91517" lon="5.21187">
        <ele>1161</ele>
        <time>2015-08-19T09:07:11Z</time>
      </trkpt>
      <trkpt lat="44.91516" lon="5.21185">
        <ele>1161</ele>
        <time>2015-08-19T09:07:12Z</time>
      </trkpt>
      <trkpt lat="44.91515" lon="5.21179">
        <ele>1161</ele>
        <time>2015-08-19T09:07:17Z</time>
      </trkpt>
      <trkpt lat="44.91512" lon="5.21177">
        <ele>1161</ele>
        <time>2015-08-19T09:07:19Z</time>
      </trkpt>
      <trkpt lat="44.91504" lon="5.21166">
        <ele>1161</ele>
        <time>2015-08-19T09:07:30Z</time>
      </trkpt>
      <trkpt lat="44.91502" lon="5.21165">
        <ele>1162</ele>
        <time>2015-08-19T09:07:32Z</time>
      </trkpt>
      <trkpt lat="44.91501" lon="5.21162">
        <ele>1161</ele>
        <time>2015-08-19T09:07:35Z</time>
      </trkpt>
      <trkpt lat="44.91481" lon="5.21145">
        <ele>1163</ele>
        <time>2015-08-19T09:07:56Z</time>
      </trkpt>
      <trkpt lat="44.91478" lon="5.21144">
        <ele>1163</ele>
        <time>2015-08-19T09:07:58Z</time>
      </trkpt>
      <trkpt lat="44.91468" lon="5.21136">
        <ele>1164</ele>
        <time>2015-08-19T09:08:06Z</time>
      </trkpt>
      <trkpt lat="44.91467" lon="5.21133">
        <ele>1164</ele>
        <time>2015-08-19T09:08:08Z</time>
      </trkpt>
      <trkpt lat="44.91461" lon="5.21128">
        <ele>1164</ele>
        <time>2015-08-19T09:08:13Z</time>
      </trkpt>
      <trkpt lat="44.91452" lon="5.21117">
        <ele>1164</ele>
        <time>2015-08-19T09:08:22Z</time>
      </trkpt>
      <trkpt lat="44.9145" lon="5.21113">
        <ele>1164</ele>
        <time>2015-08-19T09:08:25Z</time>
      </trkpt>
      <trkpt lat="44.91448" lon="5.21111">
        <ele>1164</ele>
        <time>2015-08-19T09:08:27Z</time>
      </trkpt>
      <trkpt lat="44.91448" lon="5.21109">
        <ele>1164</ele>
        <time>2015-08-19T09:08:29Z</time>
      </trkpt>
      <trkpt lat="44.91447" lon="5.21107">
        <ele>1164</ele>
        <time>2015-08-19T09:08:30Z</time>
      </trkpt>
      <trkpt lat="44.91446" lon="5.21105">
        <ele>1164</ele>
        <time>2015-08-19T09:08:32Z</time>
      </trkpt>
      <trkpt lat="44.91445" lon="5.21103">
        <ele>1164</ele>
        <time>2015-08-19T09:08:34Z</time>
      </trkpt>
      <trkpt lat="44.91444" lon="5.21101">
        <ele>1164</ele>
        <time>2015-08-19T09:08:35Z</time>
      </trkpt>
      <trkpt lat="44.91437" lon="5.21096">
        <ele>1164</ele>
        <time>2015-08-19T09:08:43Z</time>
      </trkpt>
      <trkpt lat="44.91433" lon="5.21089">
        <ele>1164</ele>
        <time>2015-08-19T09:08:52Z</time>
      </trkpt>
      <trkpt lat="44.91433" lon="5.21087">
        <ele>1164</ele>
        <time>2015-08-19T09:08:56Z</time>
      </trkpt>
      <trkpt lat="44.91432" lon="5.21085">
        <ele>1164</ele>
        <time>2015-08-19T09:08:59Z</time>
      </trkpt>
      <trkpt lat="44.91432" lon="5.21083">
        <ele>1161</ele>
        <time>2015-08-19T09:09:01Z</time>
      </trkpt>
      <trkpt lat="44.91431" lon="5.21081">
        <ele>1161</ele>
        <time>2015-08-19T09:09:03Z</time>
      </trkpt>
      <trkpt lat="44.9143" lon="5.21076">
        <ele>1161</ele>
        <time>2015-08-19T09:09:08Z</time>
      </trkpt>
      <trkpt lat="44.91429" lon="5.21074">
        <ele>1161</ele>
        <time>2015-08-19T09:09:15Z</time>
      </trkpt>
      <trkpt lat="44.91428" lon="5.21073">
        <ele>1161</ele>
        <time>2015-08-19T09:09:17Z</time>
      </trkpt>
      <trkpt lat="44.91427" lon="5.21071">
        <ele>1161</ele>
        <time>2015-08-19T09:09:18Z</time>
      </trkpt>
      <trkpt lat="44.91426" lon="5.21067">
        <ele>1161</ele>
        <time>2015-08-19T09:09:20Z</time>
      </trkpt>
      <trkpt lat="44.91425" lon="5.21065">
        <ele>1161</ele>
        <time>2015-08-19T09:09:22Z</time>
      </trkpt>
      <trkpt lat="44.91423" lon="5.21065">
        <ele>1161</ele>
        <time>2015-08-19T09:09:23Z</time>
      </trkpt>
      <trkpt lat="44.91422" lon="5.21062">
        <ele>1160</ele>
        <time>2015-08-19T09:09:25Z</time>
      </trkpt>
      <trkpt lat="44.91421" lon="5.2106">
        <ele>1160</ele>
        <time>2015-08-19T09:09:27Z</time>
      </trkpt>
      <trkpt lat="44.91419" lon="5.21058">
        <ele>1160</ele>
        <time>2015-08-19T09:09:28Z</time>
      </trkpt>
      <trkpt lat="44.91416" lon="5.21053">
        <ele>1166</ele>
        <time>2015-08-19T09:09:32Z</time>
      </trkpt>
      <trkpt lat="44.91416" lon="5.21051">
        <ele>1166</ele>
        <time>2015-08-19T09:09:33Z</time>
      </trkpt>
      <trkpt lat="44.91413" lon="5.21048">
        <ele>1166</ele>
        <time>2015-08-19T09:09:35Z</time>
      </trkpt>
      <trkpt lat="44.91412" lon="5.21046">
        <ele>1166</ele>
        <time>2015-08-19T09:09:36Z</time>
      </trkpt>
      <trkpt lat="44.91412" lon="5.21043">
        <ele>1166</ele>
        <time>2015-08-19T09:09:39Z</time>
      </trkpt>
      <trkpt lat="44.9141" lon="5.2104">
        <ele>1166</ele>
        <time>2015-08-19T09:09:41Z</time>
      </trkpt>
      <trkpt lat="44.91408" lon="5.21036">
        <ele>1166</ele>
        <time>2015-08-19T09:09:46Z</time>
      </trkpt>
      <trkpt lat="44.91408" lon="5.21034">
        <ele>1165</ele>
        <time>2015-08-19T09:09:51Z</time>
      </trkpt>
      <trkpt lat="44.91405" lon="5.21028">
        <ele>1165</ele>
        <time>2015-08-19T09:09:56Z</time>
      </trkpt>
      <trkpt lat="44.91403" lon="5.21023">
        <ele>1165</ele>
        <time>2015-08-19T09:09:59Z</time>
      </trkpt>
      <trkpt lat="44.91403" lon="5.21019">
        <ele>1165</ele>
        <time>2015-08-19T09:10:02Z</time>
      </trkpt>
      <trkpt lat="44.91388" lon="5.20978">
        <ele>1165</ele>
        <time>2015-08-19T09:10:33Z</time>
      </trkpt>
      <trkpt lat="44.91387" lon="5.20975">
        <ele>1165</ele>
        <time>2015-08-19T09:10:36Z</time>
      </trkpt>
      <trkpt lat="44.91385" lon="5.20973">
        <ele>1165</ele>
        <time>2015-08-19T09:10:38Z</time>
      </trkpt>
      <trkpt lat="44.91383" lon="5.20965">
        <ele>1166</ele>
        <time>2015-08-19T09:10:44Z</time>
      </trkpt>
      <trkpt lat="44.91377" lon="5.20961">
        <ele>1166</ele>
        <time>2015-08-19T09:10:49Z</time>
      </trkpt>
      <trkpt lat="44.91372" lon="5.20956">
        <ele>1166</ele>
        <time>2015-08-19T09:10:55Z</time>
      </trkpt>
      <trkpt lat="44.91366" lon="5.2094">
        <ele>1167</ele>
        <time>2015-08-19T09:11:08Z</time>
      </trkpt>
      <trkpt lat="44.91367" lon="5.20925">
        <ele>1167</ele>
        <time>2015-08-19T09:11:17Z</time>
      </trkpt>
      <trkpt lat="44.91366" lon="5.20919">
        <ele>1167</ele>
        <time>2015-08-19T09:11:22Z</time>
      </trkpt>
      <trkpt lat="44.91364" lon="5.20917">
        <ele>1167</ele>
        <time>2015-08-19T09:11:25Z</time>
      </trkpt>
      <trkpt lat="44.91365" lon="5.20913">
        <ele>1168</ele>
        <time>2015-08-19T09:11:28Z</time>
      </trkpt>
      <trkpt lat="44.91368" lon="5.20911">
        <ele>1168</ele>
        <time>2015-08-19T09:11:30Z</time>
      </trkpt>
      <trkpt lat="44.91369" lon="5.20908">
        <ele>1168</ele>
        <time>2015-08-19T09:11:34Z</time>
      </trkpt>
      <trkpt lat="44.91368" lon="5.209">
        <ele>1169</ele>
        <time>2015-08-19T09:11:39Z</time>
      </trkpt>
      <trkpt lat="44.91365" lon="5.20898">
        <ele>1169</ele>
        <time>2015-08-19T09:11:41Z</time>
      </trkpt>
      <trkpt lat="44.91362" lon="5.20886">
        <ele>1169</ele>
        <time>2015-08-19T09:11:50Z</time>
      </trkpt>
      <trkpt lat="44.9136" lon="5.20884">
        <ele>1169</ele>
        <time>2015-08-19T09:11:53Z</time>
      </trkpt>
      <trkpt lat="44.91358" lon="5.20883">
        <ele>1169</ele>
        <time>2015-08-19T09:11:55Z</time>
      </trkpt>
      <trkpt lat="44.91356" lon="5.20881">
        <ele>1169</ele>
        <time>2015-08-19T09:11:56Z</time>
      </trkpt>
      <trkpt lat="44.91355" lon="5.2088">
        <ele>1169</ele>
        <time>2015-08-19T09:11:58Z</time>
      </trkpt>
      <trkpt lat="44.91353" lon="5.20877">
        <ele>1170</ele>
        <time>2015-08-19T09:12:01Z</time>
      </trkpt>
      <trkpt lat="44.91351" lon="5.20877">
        <ele>1170</ele>
        <time>2015-08-19T09:12:03Z</time>
      </trkpt>
      <trkpt lat="44.91349" lon="5.20875">
        <ele>1170</ele>
        <time>2015-08-19T09:12:05Z</time>
      </trkpt>
      <trkpt lat="44.91335" lon="5.20864">
        <ele>1171</ele>
        <time>2015-08-19T09:12:25Z</time>
      </trkpt>
      <trkpt lat="44.91335" lon="5.20862">
        <ele>1171</ele>
        <time>2015-08-19T09:12:27Z</time>
      </trkpt>
      <trkpt lat="44.9133" lon="5.20857">
        <ele>1174</ele>
        <time>2015-08-19T09:12:37Z</time>
      </trkpt>
      <trkpt lat="44.91329" lon="5.20855">
        <ele>1175</ele>
        <time>2015-08-19T09:12:39Z</time>
      </trkpt>
      <trkpt lat="44.91327" lon="5.20852">
        <ele>1175</ele>
        <time>2015-08-19T09:13:05Z</time>
      </trkpt>
      <trkpt lat="44.91329" lon="5.20839">
        <ele>1174</ele>
        <time>2015-08-19T09:13:16Z</time>
      </trkpt>
      <trkpt lat="44.91328" lon="5.20836">
        <ele>1174</ele>
        <time>2015-08-19T09:13:18Z</time>
      </trkpt>
      <trkpt lat="44.91327" lon="5.20833">
        <ele>1176</ele>
        <time>2015-08-19T09:13:20Z</time>
      </trkpt>
      <trkpt lat="44.91328" lon="5.20826">
        <ele>1176</ele>
        <time>2015-08-19T09:13:26Z</time>
      </trkpt>
      <trkpt lat="44.9133" lon="5.20823">
        <ele>1177</ele>
        <time>2015-08-19T09:13:28Z</time>
      </trkpt>
      <trkpt lat="44.91332" lon="5.20823">
        <ele>1177</ele>
        <time>2015-08-19T09:13:29Z</time>
      </trkpt>
      <trkpt lat="44.91338" lon="5.20815">
        <ele>1175</ele>
        <time>2015-08-19T09:13:37Z</time>
      </trkpt>
      <trkpt lat="44.9134" lon="5.20814">
        <ele>1175</ele>
        <time>2015-08-19T09:13:40Z</time>
      </trkpt>
      <trkpt lat="44.91345" lon="5.20798">
        <ele>1175</ele>
        <time>2015-08-19T09:13:49Z</time>
      </trkpt>
      <trkpt lat="44.91344" lon="5.20795">
        <ele>1176</ele>
        <time>2015-08-19T09:13:51Z</time>
      </trkpt>
      <trkpt lat="44.91343" lon="5.20793">
        <ele>1176</ele>
        <time>2015-08-19T09:13:54Z</time>
      </trkpt>
      <trkpt lat="44.91341" lon="5.20792">
        <ele>1176</ele>
        <time>2015-08-19T09:13:58Z</time>
      </trkpt>
      <trkpt lat="44.91339" lon="5.20789">
        <ele>1176</ele>
        <time>2015-08-19T09:14:03Z</time>
      </trkpt>
      <trkpt lat="44.91337" lon="5.20787">
        <ele>1176</ele>
        <time>2015-08-19T09:14:05Z</time>
      </trkpt>
      <trkpt lat="44.91336" lon="5.20785">
        <ele>1177</ele>
        <time>2015-08-19T09:14:08Z</time>
      </trkpt>
      <trkpt lat="44.91335" lon="5.20784">
        <ele>1177</ele>
        <time>2015-08-19T09:14:10Z</time>
      </trkpt>
      <trkpt lat="44.91334" lon="5.20782">
        <ele>1177</ele>
        <time>2015-08-19T09:14:11Z</time>
      </trkpt>
      <trkpt lat="44.91332" lon="5.20778">
        <ele>1182</ele>
        <time>2015-08-19T09:14:16Z</time>
      </trkpt>
      <trkpt lat="44.9133" lon="5.20778">
        <ele>1182</ele>
        <time>2015-08-19T09:14:18Z</time>
      </trkpt>
      <trkpt lat="44.91329" lon="5.20776">
        <ele>1182</ele>
        <time>2015-08-19T09:14:20Z</time>
      </trkpt>
      <trkpt lat="44.91327" lon="5.20777">
        <ele>1182</ele>
        <time>2015-08-19T09:14:22Z</time>
      </trkpt>
      <trkpt lat="44.91318" lon="5.2077">
        <ele>1182</ele>
        <time>2015-08-19T09:14:34Z</time>
      </trkpt>
      <trkpt lat="44.91311" lon="5.20765">
        <ele>1183</ele>
        <time>2015-08-19T09:14:45Z</time>
      </trkpt>
      <trkpt lat="44.9131" lon="5.20762">
        <ele>1183</ele>
        <time>2015-08-19T09:14:47Z</time>
      </trkpt>
      <trkpt lat="44.91307" lon="5.20759">
        <ele>1183</ele>
        <time>2015-08-19T09:14:50Z</time>
      </trkpt>
      <trkpt lat="44.91304" lon="5.20756">
        <ele>1183</ele>
        <time>2015-08-19T09:14:54Z</time>
      </trkpt>
      <trkpt lat="44.91304" lon="5.20754">
        <ele>1183</ele>
        <time>2015-08-19T09:14:56Z</time>
      </trkpt>
      <trkpt lat="44.91302" lon="5.20752">
        <ele>1183</ele>
        <time>2015-08-19T09:14:59Z</time>
      </trkpt>
      <trkpt lat="44.91302" lon="5.20748">
        <ele>1189</ele>
        <time>2015-08-19T09:15:03Z</time>
      </trkpt>
      <trkpt lat="44.91301" lon="5.20746">
        <ele>1189</ele>
        <time>2015-08-19T09:15:09Z</time>
      </trkpt>
      <trkpt lat="44.91296" lon="5.20744">
        <ele>1189</ele>
        <time>2015-08-19T09:15:13Z</time>
      </trkpt>
      <trkpt lat="44.91294" lon="5.20742">
        <ele>1189</ele>
        <time>2015-08-19T09:15:15Z</time>
      </trkpt>
      <trkpt lat="44.91291" lon="5.2074">
        <ele>1190</ele>
        <time>2015-08-19T09:15:18Z</time>
      </trkpt>
      <trkpt lat="44.91288" lon="5.20738">
        <ele>1190</ele>
        <time>2015-08-19T09:15:22Z</time>
      </trkpt>
      <trkpt lat="44.9128" lon="5.20735">
        <ele>1190</ele>
        <time>2015-08-19T09:15:32Z</time>
      </trkpt>
      <trkpt lat="44.91278" lon="5.20733">
        <ele>1190</ele>
        <time>2015-08-19T09:15:35Z</time>
      </trkpt>
      <trkpt lat="44.91275" lon="5.20732">
        <ele>1191</ele>
        <time>2015-08-19T09:15:38Z</time>
      </trkpt>
      <trkpt lat="44.91273" lon="5.2073">
        <ele>1191</ele>
        <time>2015-08-19T09:15:44Z</time>
      </trkpt>
      <trkpt lat="44.91263" lon="5.20729">
        <ele>1191</ele>
        <time>2015-08-19T09:15:56Z</time>
      </trkpt>
      <trkpt lat="44.91253" lon="5.20728">
        <ele>1191</ele>
        <time>2015-08-19T09:16:07Z</time>
      </trkpt>
      <trkpt lat="44.91248" lon="5.20729">
        <ele>1194</ele>
        <time>2015-08-19T09:16:10Z</time>
      </trkpt>
      <trkpt lat="44.9124" lon="5.20725">
        <ele>1195</ele>
        <time>2015-08-19T09:16:16Z</time>
      </trkpt>
      <trkpt lat="44.91234" lon="5.20726">
        <ele>1195</ele>
        <time>2015-08-19T09:16:19Z</time>
      </trkpt>
      <trkpt lat="44.91232" lon="5.20725">
        <ele>1195</ele>
        <time>2015-08-19T09:16:21Z</time>
      </trkpt>
      <trkpt lat="44.9123" lon="5.20725">
        <ele>1195</ele>
        <time>2015-08-19T09:16:23Z</time>
      </trkpt>
      <trkpt lat="44.91228" lon="5.20722">
        <ele>1195</ele>
        <time>2015-08-19T09:16:25Z</time>
      </trkpt>
      <trkpt lat="44.91223" lon="5.20725">
        <ele>1195</ele>
        <time>2015-08-19T09:16:30Z</time>
      </trkpt>
      <trkpt lat="44.9122" lon="5.20724">
        <ele>1195</ele>
        <time>2015-08-19T09:16:33Z</time>
      </trkpt>
      <trkpt lat="44.91218" lon="5.20721">
        <ele>1196</ele>
        <time>2015-08-19T09:16:36Z</time>
      </trkpt>
      <trkpt lat="44.91214" lon="5.20719">
        <ele>1196</ele>
        <time>2015-08-19T09:16:39Z</time>
      </trkpt>
      <trkpt lat="44.91211" lon="5.20719">
        <ele>1196</ele>
        <time>2015-08-19T09:16:42Z</time>
      </trkpt>
      <trkpt lat="44.91207" lon="5.20717">
        <ele>1196</ele>
        <time>2015-08-19T09:16:45Z</time>
      </trkpt>
      <trkpt lat="44.9117" lon="5.20704">
        <ele>1197</ele>
        <time>2015-08-19T09:17:16Z</time>
      </trkpt>
      <trkpt lat="44.9114" lon="5.20685">
        <ele>1200</ele>
        <time>2015-08-19T09:17:46Z</time>
      </trkpt>
      <trkpt lat="44.91136" lon="5.20683">
        <ele>1200</ele>
        <time>2015-08-19T09:17:50Z</time>
      </trkpt>
      <trkpt lat="44.91124" lon="5.20662">
        <ele>1201</ele>
        <time>2015-08-19T09:18:05Z</time>
      </trkpt>
      <trkpt lat="44.91116" lon="5.2064">
        <ele>1201</ele>
        <time>2015-08-19T09:18:20Z</time>
      </trkpt>
      <trkpt lat="44.91117" lon="5.20633">
        <ele>1200</ele>
        <time>2015-08-19T09:18:26Z</time>
      </trkpt>
      <trkpt lat="44.91105" lon="5.20602">
        <ele>1200</ele>
        <time>2015-08-19T09:18:47Z</time>
      </trkpt>
      <trkpt lat="44.91105" lon="5.20594">
        <ele>1200</ele>
        <time>2015-08-19T09:18:55Z</time>
      </trkpt>
      <trkpt lat="44.91101" lon="5.20589">
        <ele>1200</ele>
        <time>2015-08-19T09:18:59Z</time>
      </trkpt>
      <trkpt lat="44.91101" lon="5.20582">
        <ele>1197</ele>
        <time>2015-08-19T09:19:02Z</time>
      </trkpt>
      <trkpt lat="44.911" lon="5.20569">
        <ele>1197</ele>
        <time>2015-08-19T09:19:11Z</time>
      </trkpt>
      <trkpt lat="44.91098" lon="5.20566">
        <ele>1197</ele>
        <time>2015-08-19T09:19:13Z</time>
      </trkpt>
      <trkpt lat="44.91099" lon="5.20564">
        <ele>1197</ele>
        <time>2015-08-19T09:19:15Z</time>
      </trkpt>
      <trkpt lat="44.91099" lon="5.20561">
        <ele>1197</ele>
        <time>2015-08-19T09:19:18Z</time>
      </trkpt>
      <trkpt lat="44.91099" lon="5.20548">
        <ele>1196</ele>
        <time>2015-08-19T09:19:26Z</time>
      </trkpt>
      <trkpt lat="44.91098" lon="5.20547">
        <ele>1196</ele>
        <time>2015-08-19T09:19:27Z</time>
      </trkpt>
      <trkpt lat="44.91093" lon="5.20534">
        <ele>1196</ele>
        <time>2015-08-19T09:19:36Z</time>
      </trkpt>
      <trkpt lat="44.91092" lon="5.20533">
        <ele>1196</ele>
        <time>2015-08-19T09:19:37Z</time>
      </trkpt>
      <trkpt lat="44.91067" lon="5.20496">
        <ele>1196</ele>
        <time>2015-08-19T09:20:08Z</time>
      </trkpt>
      <trkpt lat="44.91065" lon="5.20494">
        <ele>1196</ele>
        <time>2015-08-19T09:20:10Z</time>
      </trkpt>
      <trkpt lat="44.91038" lon="5.20464">
        <ele>1195</ele>
        <time>2015-08-19T09:20:41Z</time>
      </trkpt>
      <trkpt lat="44.91011" lon="5.20442">
        <ele>1195</ele>
        <time>2015-08-19T09:21:12Z</time>
      </trkpt>
      <trkpt lat="44.9101" lon="5.20441">
        <ele>1195</ele>
        <time>2015-08-19T09:21:14Z</time>
      </trkpt>
      <trkpt lat="44.91007" lon="5.2044">
        <ele>1195</ele>
        <time>2015-08-19T09:23:52Z</time>
      </trkpt>
      <trkpt lat="44.90998" lon="5.20433">
        <ele>1194</ele>
        <time>2015-08-19T09:24:03Z</time>
      </trkpt>
      <trkpt lat="44.90997" lon="5.20432">
        <ele>1194</ele>
        <time>2015-08-19T09:24:14Z</time>
      </trkpt>
      <trkpt lat="44.90992" lon="5.20429">
        <ele>1194</ele>
        <time>2015-08-19T09:24:18Z</time>
      </trkpt>
      <trkpt lat="44.90989" lon="5.20429">
        <ele>1194</ele>
        <time>2015-08-19T09:24:20Z</time>
      </trkpt>
      <trkpt lat="44.90947" lon="5.20423">
        <ele>1193</ele>
        <time>2015-08-19T09:24:50Z</time>
      </trkpt>
      <trkpt lat="44.90946" lon="5.20418">
        <ele>1193</ele>
        <time>2015-08-19T09:24:56Z</time>
      </trkpt>
      <trkpt lat="44.90946" lon="5.20415">
        <ele>1182</ele>
        <time>2015-08-19T09:25:00Z</time>
      </trkpt>
      <trkpt lat="44.90949" lon="5.20412">
        <ele>1181</ele>
        <time>2015-08-19T09:25:07Z</time>
      </trkpt>
      <trkpt lat="44.90948" lon="5.20404">
        <ele>1181</ele>
        <time>2015-08-19T09:25:13Z</time>
      </trkpt>
      <trkpt lat="44.90952" lon="5.20401">
        <ele>1180</ele>
        <time>2015-08-19T09:25:17Z</time>
      </trkpt>
      <trkpt lat="44.90954" lon="5.20398">
        <ele>1180</ele>
        <time>2015-08-19T09:25:26Z</time>
      </trkpt>
      <trkpt lat="44.90954" lon="5.20396">
        <ele>1180</ele>
        <time>2015-08-19T09:25:33Z</time>
      </trkpt>
      <trkpt lat="44.90957" lon="5.20393">
        <ele>1179</ele>
        <time>2015-08-19T09:25:41Z</time>
      </trkpt>
      <trkpt lat="44.90961" lon="5.2039">
        <ele>1179</ele>
        <time>2015-08-19T09:25:47Z</time>
      </trkpt>
      <trkpt lat="44.90963" lon="5.2039">
        <ele>1179</ele>
        <time>2015-08-19T09:25:48Z</time>
      </trkpt>
      <trkpt lat="44.90964" lon="5.20389">
        <ele>1179</ele>
        <time>2015-08-19T09:25:49Z</time>
      </trkpt>
      <trkpt lat="44.90967" lon="5.2039">
        <ele>1179</ele>
        <time>2015-08-19T09:25:54Z</time>
      </trkpt>
      <trkpt lat="44.90972" lon="5.20387">
        <ele>1179</ele>
        <time>2015-08-19T09:26:31Z</time>
      </trkpt>
      <trkpt lat="44.90983" lon="5.20378">
        <ele>1178</ele>
        <time>2015-08-19T09:27:03Z</time>
      </trkpt>
      <trkpt lat="44.91003" lon="5.20376">
        <ele>1184</ele>
        <time>2015-08-19T09:27:25Z</time>
      </trkpt>
      <trkpt lat="44.91" lon="5.20367">
        <ele>1177</ele>
        <time>2015-08-19T09:28:47Z</time>
      </trkpt>
      <trkpt lat="44.91003" lon="5.20361">
        <ele>1181</ele>
        <time>2015-08-19T09:28:53Z</time>
      </trkpt>
      <trkpt lat="44.91005" lon="5.20347">
        <ele>1177</ele>
        <time>2015-08-19T09:29:06Z</time>
      </trkpt>
      <trkpt lat="44.91014" lon="5.20342">
        <ele>1178</ele>
        <time>2015-08-19T09:29:15Z</time>
      </trkpt>
      <trkpt lat="44.91006" lon="5.20344">
        <ele>1176</ele>
        <time>2015-08-19T09:30:11Z</time>
      </trkpt>
      <trkpt lat="44.91002" lon="5.20345">
        <ele>1176</ele>
        <time>2015-08-19T09:30:15Z</time>
      </trkpt>
      <trkpt lat="44.90993" lon="5.20336">
        <ele>1171</ele>
        <time>2015-08-19T09:30:22Z</time>
      </trkpt>
      <trkpt lat="44.90982" lon="5.20334">
        <ele>1172</ele>
        <time>2015-08-19T09:30:34Z</time>
      </trkpt>
      <trkpt lat="44.90971" lon="5.20324">
        <ele>1150</ele>
        <time>2015-08-19T09:31:05Z</time>
      </trkpt>
      <trkpt lat="44.90969" lon="5.20319">
        <ele>1148</ele>
        <time>2015-08-19T09:31:07Z</time>
      </trkpt>
      <trkpt lat="44.90953" lon="5.20316">
        <ele>1145</ele>
        <time>2015-08-19T09:31:56Z</time>
      </trkpt>
      <trkpt lat="44.90948" lon="5.20316">
        <ele>1145</ele>
        <time>2015-08-19T09:31:59Z</time>
      </trkpt>
      <trkpt lat="44.9094" lon="5.20312">
        <ele>1144</ele>
        <time>2015-08-19T09:32:15Z</time>
      </trkpt>
      <trkpt lat="44.9094" lon="5.203">
        <ele>1141</ele>
        <time>2015-08-19T09:33:17Z</time>
      </trkpt>
      <trkpt lat="44.90947" lon="5.20295">
        <ele>1140</ele>
        <time>2015-08-19T09:33:37Z</time>
      </trkpt>
      <trkpt lat="44.90953" lon="5.20295">
        <ele>1140</ele>
        <time>2015-08-19T09:33:45Z</time>
      </trkpt>
      <trkpt lat="44.90963" lon="5.2029">
        <ele>1140</ele>
        <time>2015-08-19T09:34:08Z</time>
      </trkpt>
      <trkpt lat="44.90974" lon="5.2029">
        <ele>1141</ele>
        <time>2015-08-19T09:34:19Z</time>
      </trkpt>
      <trkpt lat="44.90985" lon="5.20276">
        <ele>1137</ele>
        <time>2015-08-19T09:34:45Z</time>
      </trkpt>
      <trkpt lat="44.90976" lon="5.20271">
        <ele>1136</ele>
        <time>2015-08-19T09:35:17Z</time>
      </trkpt>
      <trkpt lat="44.90973" lon="5.20265">
        <ele>1134</ele>
        <time>2015-08-19T09:35:58Z</time>
      </trkpt>
      <trkpt lat="44.9096" lon="5.20264">
        <ele>1134</ele>
        <time>2015-08-19T09:36:10Z</time>
      </trkpt>
      <trkpt lat="44.9095" lon="5.20258">
        <ele>1131</ele>
        <time>2015-08-19T09:36:42Z</time>
      </trkpt>
      <trkpt lat="44.90925" lon="5.20248">
        <ele>1109</ele>
        <time>2015-08-19T09:37:16Z</time>
      </trkpt>
      <trkpt lat="44.90927" lon="5.20241">
        <ele>1108</ele>
        <time>2015-08-19T09:37:28Z</time>
      </trkpt>
      <trkpt lat="44.9093" lon="5.20227">
        <ele>1104</ele>
        <time>2015-08-19T09:37:39Z</time>
      </trkpt>
      <trkpt lat="44.90941" lon="5.20223">
        <ele>1103</ele>
        <time>2015-08-19T09:38:06Z</time>
      </trkpt>
      <trkpt lat="44.90944" lon="5.20218">
        <ele>1102</ele>
        <time>2015-08-19T09:38:12Z</time>
      </trkpt>
      <trkpt lat="44.90965" lon="5.20209">
        <ele>1102</ele>
        <time>2015-08-19T09:38:44Z</time>
      </trkpt>
      <trkpt lat="44.90981" lon="5.20196">
        <ele>1099</ele>
        <time>2015-08-19T09:39:03Z</time>
      </trkpt>
      <trkpt lat="44.90987" lon="5.20195">
        <ele>1099</ele>
        <time>2015-08-19T09:39:06Z</time>
      </trkpt>
      <trkpt lat="44.90992" lon="5.20183">
        <ele>1095</ele>
        <time>2015-08-19T09:39:18Z</time>
      </trkpt>
      <trkpt lat="44.9098" lon="5.20175">
        <ele>1095</ele>
        <time>2015-08-19T09:39:47Z</time>
      </trkpt>
      <trkpt lat="44.90954" lon="5.20164">
        <ele>1072</ele>
        <time>2015-08-19T09:40:15Z</time>
      </trkpt>
      <trkpt lat="44.90953" lon="5.20158">
        <ele>1071</ele>
        <time>2015-08-19T09:40:28Z</time>
      </trkpt>
      <trkpt lat="44.90954" lon="5.2015">
        <ele>1070</ele>
        <time>2015-08-19T09:40:34Z</time>
      </trkpt>
      <trkpt lat="44.90954" lon="5.20143">
        <ele>1069</ele>
        <time>2015-08-19T09:40:38Z</time>
      </trkpt>
      <trkpt lat="44.90952" lon="5.20137">
        <ele>1068</ele>
        <time>2015-08-19T09:41:07Z</time>
      </trkpt>
      <trkpt lat="44.90957" lon="5.20106">
        <ele>1062</ele>
        <time>2015-08-19T09:41:51Z</time>
      </trkpt>
      <trkpt lat="44.90955" lon="5.201">
        <ele>1061</ele>
        <time>2015-08-19T09:41:55Z</time>
      </trkpt>
      <trkpt lat="44.90956" lon="5.20095">
        <ele>1060</ele>
        <time>2015-08-19T09:42:04Z</time>
      </trkpt>
      <trkpt lat="44.90958" lon="5.20088">
        <ele>1059</ele>
        <time>2015-08-19T09:42:14Z</time>
      </trkpt>
      <trkpt lat="44.90957" lon="5.20082">
        <ele>1037</ele>
        <time>2015-08-19T09:42:18Z</time>
      </trkpt>
      <trkpt lat="44.90952" lon="5.20068">
        <ele>1035</ele>
        <time>2015-08-19T09:42:31Z</time>
      </trkpt>
      <trkpt lat="44.90953" lon="5.20066">
        <ele>1035</ele>
        <time>2015-08-19T09:42:34Z</time>
      </trkpt>
      <trkpt lat="44.90954" lon="5.20064">
        <ele>1035</ele>
        <time>2015-08-19T09:42:36Z</time>
      </trkpt>
      <trkpt lat="44.90957" lon="5.20064">
        <ele>1035</ele>
        <time>2015-08-19T09:42:40Z</time>
      </trkpt>
      <trkpt lat="44.90966" lon="5.20056">
        <ele>1035</ele>
        <time>2015-08-19T09:42:53Z</time>
      </trkpt>
      <trkpt lat="44.90966" lon="5.20053">
        <ele>1034</ele>
        <time>2015-08-19T09:43:24Z</time>
      </trkpt>
      <trkpt lat="44.90969" lon="5.20049">
        <ele>1033</ele>
        <time>2015-08-19T09:43:28Z</time>
      </trkpt>
      <trkpt lat="44.90975" lon="5.2004">
        <ele>1032</ele>
        <time>2015-08-19T09:43:37Z</time>
      </trkpt>
      <trkpt lat="44.9098" lon="5.20022">
        <ele>1028</ele>
        <time>2015-08-19T09:44:04Z</time>
      </trkpt>
      <trkpt lat="44.90998" lon="5.20012">
        <ele>1024</ele>
        <time>2015-08-19T09:44:30Z</time>
      </trkpt>
      <trkpt lat="44.91" lon="5.20006">
        <ele>1025</ele>
        <time>2015-08-19T09:44:37Z</time>
      </trkpt>
      <trkpt lat="44.91004" lon="5.20002">
        <ele>1024</ele>
        <time>2015-08-19T09:44:39Z</time>
      </trkpt>
      <trkpt lat="44.91011" lon="5.19998">
        <ele>1017</ele>
        <time>2015-08-19T09:45:50Z</time>
      </trkpt>
      <trkpt lat="44.91015" lon="5.19995">
        <ele>1016</ele>
        <time>2015-08-19T09:45:54Z</time>
      </trkpt>
      <trkpt lat="44.91016" lon="5.19987">
        <ele>1015</ele>
        <time>2015-08-19T09:45:59Z</time>
      </trkpt>
      <trkpt lat="44.91019" lon="5.19981">
        <ele>1014</ele>
        <time>2015-08-19T09:46:06Z</time>
      </trkpt>
      <trkpt lat="44.91023" lon="5.19971">
        <ele>1013</ele>
        <time>2015-08-19T09:46:24Z</time>
      </trkpt>
      <trkpt lat="44.91042" lon="5.19955">
        <ele>1011</ele>
        <time>2015-08-19T09:46:45Z</time>
      </trkpt>
      <trkpt lat="44.91044" lon="5.19949">
        <ele>1010</ele>
        <time>2015-08-19T09:46:57Z</time>
      </trkpt>
      <trkpt lat="44.91056" lon="5.19938">
        <ele>1008</ele>
        <time>2015-08-19T09:47:08Z</time>
      </trkpt>
      <trkpt lat="44.91069" lon="5.19908">
        <ele>992</ele>
        <time>2015-08-19T09:47:41Z</time>
      </trkpt>
      <trkpt lat="44.91073" lon="5.19902">
        <ele>991</ele>
        <time>2015-08-19T09:47:56Z</time>
      </trkpt>
      <trkpt lat="44.91075" lon="5.19888">
        <ele>987</ele>
        <time>2015-08-19T09:48:05Z</time>
      </trkpt>
      <trkpt lat="44.9109" lon="5.19867">
        <ele>987</ele>
        <time>2015-08-19T09:48:25Z</time>
      </trkpt>
      <trkpt lat="44.91094" lon="5.19847">
        <ele>982</ele>
        <time>2015-08-19T09:48:40Z</time>
      </trkpt>
      <trkpt lat="44.91092" lon="5.19833">
        <ele>971</ele>
        <time>2015-08-19T09:48:55Z</time>
      </trkpt>
      <trkpt lat="44.91093" lon="5.19827">
        <ele>970</ele>
        <time>2015-08-19T09:49:07Z</time>
      </trkpt>
      <trkpt lat="44.9109" lon="5.19822">
        <ele>970</ele>
        <time>2015-08-19T09:49:13Z</time>
      </trkpt>
      <trkpt lat="44.9109" lon="5.19814">
        <ele>968</ele>
        <time>2015-08-19T09:49:19Z</time>
      </trkpt>
      <trkpt lat="44.91093" lon="5.19786">
        <ele>962</ele>
        <time>2015-08-19T09:49:47Z</time>
      </trkpt>
      <trkpt lat="44.91109" lon="5.19772">
        <ele>960</ele>
        <time>2015-08-19T09:50:18Z</time>
      </trkpt>
      <trkpt lat="44.91113" lon="5.19767">
        <ele>960</ele>
        <time>2015-08-19T09:50:24Z</time>
      </trkpt>
      <trkpt lat="44.9113" lon="5.19744">
        <ele>945</ele>
        <time>2015-08-19T09:50:55Z</time>
      </trkpt>
      <trkpt lat="44.91141" lon="5.19731">
        <ele>944</ele>
        <time>2015-08-19T09:51:20Z</time>
      </trkpt>
      <trkpt lat="44.91146" lon="5.1973">
        <ele>945</ele>
        <time>2015-08-19T09:51:23Z</time>
      </trkpt>
      <trkpt lat="44.91155" lon="5.19719">
        <ele>943</ele>
        <time>2015-08-19T09:51:33Z</time>
      </trkpt>
      <trkpt lat="44.91157" lon="5.19711">
        <ele>942</ele>
        <time>2015-08-19T09:51:37Z</time>
      </trkpt>
      <trkpt lat="44.9117" lon="5.19702">
        <ele>942</ele>
        <time>2015-08-19T09:51:57Z</time>
      </trkpt>
      <trkpt lat="44.91187" lon="5.1968">
        <ele>939</ele>
        <time>2015-08-19T09:52:19Z</time>
      </trkpt>
      <trkpt lat="44.91193" lon="5.1968">
        <ele>939</ele>
        <time>2015-08-19T09:52:22Z</time>
      </trkpt>
      <trkpt lat="44.91198" lon="5.19675">
        <ele>939</ele>
        <time>2015-08-19T09:52:30Z</time>
      </trkpt>
      <trkpt lat="44.91201" lon="5.19668">
        <ele>939</ele>
        <time>2015-08-19T09:52:36Z</time>
      </trkpt>
      <trkpt lat="44.91206" lon="5.19664">
        <ele>928</ele>
        <time>2015-08-19T09:52:42Z</time>
      </trkpt>
      <trkpt lat="44.91239" lon="5.19655">
        <ele>929</ele>
        <time>2015-08-19T09:53:14Z</time>
      </trkpt>
      <trkpt lat="44.91245" lon="5.1965">
        <ele>929</ele>
        <time>2015-08-19T09:53:21Z</time>
      </trkpt>
      <trkpt lat="44.91247" lon="5.19634">
        <ele>926</ele>
        <time>2015-08-19T09:53:41Z</time>
      </trkpt>
      <trkpt lat="44.91249" lon="5.19628">
        <ele>925</ele>
        <time>2015-08-19T09:53:48Z</time>
      </trkpt>
      <trkpt lat="44.91251" lon="5.19614">
        <ele>923</ele>
        <time>2015-08-19T09:54:00Z</time>
      </trkpt>
      <trkpt lat="44.91257" lon="5.19616">
        <ele>923</ele>
        <time>2015-08-19T09:54:11Z</time>
      </trkpt>
      <trkpt lat="44.91266" lon="5.19613">
        <ele>923</ele>
        <time>2015-08-19T09:54:19Z</time>
      </trkpt>
      <trkpt lat="44.91265" lon="5.19605">
        <ele>922</ele>
        <time>2015-08-19T09:55:00Z</time>
      </trkpt>
      <trkpt lat="44.9126" lon="5.19602">
        <ele>921</ele>
        <time>2015-08-19T09:55:02Z</time>
      </trkpt>
      <trkpt lat="44.91242" lon="5.1959">
        <ele>918</ele>
        <time>2015-08-19T09:55:20Z</time>
      </trkpt>
      <trkpt lat="44.91244" lon="5.19584">
        <ele>917</ele>
        <time>2015-08-19T09:55:23Z</time>
      </trkpt>
      <trkpt lat="44.91242" lon="5.19568">
        <ele>913</ele>
        <time>2015-08-19T09:55:45Z</time>
      </trkpt>
      <trkpt lat="44.91239" lon="5.19564">
        <ele>913</ele>
        <time>2015-08-19T09:55:55Z</time>
      </trkpt>
      <trkpt lat="44.9121" lon="5.19556">
        <ele>913</ele>
        <time>2015-08-19T09:56:29Z</time>
      </trkpt>
      <trkpt lat="44.91201" lon="5.19548">
        <ele>912</ele>
        <time>2015-08-19T09:56:36Z</time>
      </trkpt>
      <trkpt lat="44.91189" lon="5.19532">
        <ele>912</ele>
        <time>2015-08-19T09:56:49Z</time>
      </trkpt>
      <trkpt lat="44.91183" lon="5.19476">
        <ele>908</ele>
        <time>2015-08-19T09:57:21Z</time>
      </trkpt>
      <trkpt lat="44.91185" lon="5.19422">
        <ele>910</ele>
        <time>2015-08-19T09:57:54Z</time>
      </trkpt>
      <trkpt lat="44.91193" lon="5.19364">
        <ele>913</ele>
        <time>2015-08-19T09:58:27Z</time>
      </trkpt>
      <trkpt lat="44.91198" lon="5.19354">
        <ele>913</ele>
        <time>2015-08-19T09:58:40Z</time>
      </trkpt>
      <trkpt lat="44.91199" lon="5.19338">
        <ele>913</ele>
        <time>2015-08-19T09:58:50Z</time>
      </trkpt>
      <trkpt lat="44.91197" lon="5.19284">
        <ele>916</ele>
        <time>2015-08-19T09:59:24Z</time>
      </trkpt>
      <trkpt lat="44.91194" lon="5.19276">
        <ele>916</ele>
        <time>2015-08-19T09:59:31Z</time>
      </trkpt>
      <trkpt lat="44.91185" lon="5.19263">
        <ele>917</ele>
        <time>2015-08-19T09:59:43Z</time>
      </trkpt>
      <trkpt lat="44.91184" lon="5.19262">
        <ele>917</ele>
        <time>2015-08-19T09:59:45Z</time>
      </trkpt>
      <trkpt lat="44.91181" lon="5.1926">
        <ele>917</ele>
        <time>2015-08-19T09:59:49Z</time>
      </trkpt>
      <trkpt lat="44.91179" lon="5.1926">
        <ele>917</ele>
        <time>2015-08-19T09:59:50Z</time>
      </trkpt>
      <trkpt lat="44.91175" lon="5.19258">
        <ele>917</ele>
        <time>2015-08-19T09:59:53Z</time>
      </trkpt>
      <trkpt lat="44.91173" lon="5.19258">
        <ele>917</ele>
        <time>2015-08-19T09:59:55Z</time>
      </trkpt>
      <trkpt lat="44.91172" lon="5.19257">
        <ele>917</ele>
        <time>2015-08-19T09:59:56Z</time>
      </trkpt>
      <trkpt lat="44.91169" lon="5.19256">
        <ele>917</ele>
        <time>2015-08-19T10:00:00Z</time>
      </trkpt>
      <trkpt lat="44.91167" lon="5.19257">
        <ele>917</ele>
        <time>2015-08-19T10:00:02Z</time>
      </trkpt>
      <trkpt lat="44.91165" lon="5.19258">
        <ele>916</ele>
        <time>2015-08-19T10:00:07Z</time>
      </trkpt>
      <trkpt lat="44.91163" lon="5.19258">
        <ele>916</ele>
        <time>2015-08-19T10:00:09Z</time>
      </trkpt>
      <trkpt lat="44.91161" lon="5.19258">
        <ele>916</ele>
        <time>2015-08-19T10:00:11Z</time>
      </trkpt>
      <trkpt lat="44.91158" lon="5.19257">
        <ele>916</ele>
        <time>2015-08-19T10:00:13Z</time>
      </trkpt>
      <trkpt lat="44.91155" lon="5.19257">
        <ele>916</ele>
        <time>2015-08-19T10:00:19Z</time>
      </trkpt>
      <trkpt lat="44.91153" lon="5.19256">
        <ele>916</ele>
        <time>2015-08-19T10:00:20Z</time>
      </trkpt>
      <trkpt lat="44.91152" lon="5.19255">
        <ele>916</ele>
        <time>2015-08-19T10:00:22Z</time>
      </trkpt>
      <trkpt lat="44.91151" lon="5.19256">
        <ele>916</ele>
        <time>2015-08-19T10:00:23Z</time>
      </trkpt>
      <trkpt lat="44.91147" lon="5.19255">
        <ele>916</ele>
        <time>2015-08-19T10:00:26Z</time>
      </trkpt>
      <trkpt lat="44.91141" lon="5.19259">
        <ele>915</ele>
        <time>2015-08-19T10:00:32Z</time>
      </trkpt>
      <trkpt lat="44.91139" lon="5.19258">
        <ele>915</ele>
        <time>2015-08-19T10:00:34Z</time>
      </trkpt>
      <trkpt lat="44.91138" lon="5.19258">
        <ele>915</ele>
        <time>2015-08-19T10:00:36Z</time>
      </trkpt>
      <trkpt lat="44.91137" lon="5.19257">
        <ele>915</ele>
        <time>2015-08-19T10:00:38Z</time>
      </trkpt>
      <trkpt lat="44.91132" lon="5.19257">
        <ele>915</ele>
        <time>2015-08-19T10:00:42Z</time>
      </trkpt>
      <trkpt lat="44.91131" lon="5.19256">
        <ele>915</ele>
        <time>2015-08-19T10:00:43Z</time>
      </trkpt>
      <trkpt lat="44.91129" lon="5.19256">
        <ele>915</ele>
        <time>2015-08-19T10:00:45Z</time>
      </trkpt>
      <trkpt lat="44.91127" lon="5.19256">
        <ele>915</ele>
        <time>2015-08-19T10:00:47Z</time>
      </trkpt>
      <trkpt lat="44.91116" lon="5.19254">
        <ele>914</ele>
        <time>2015-08-19T10:00:59Z</time>
      </trkpt>
      <trkpt lat="44.91116" lon="5.19256">
        <ele>914</ele>
        <time>2015-08-19T10:01:01Z</time>
      </trkpt>
      <trkpt lat="44.91116" lon="5.19259">
        <ele>914</ele>
        <time>2015-08-19T10:01:09Z</time>
      </trkpt>
      <trkpt lat="44.91108" lon="5.19304">
        <ele>914</ele>
        <time>2015-08-19T10:01:40Z</time>
      </trkpt>
      <trkpt lat="44.91109" lon="5.19307">
        <ele>914</ele>
        <time>2015-08-19T10:01:43Z</time>
      </trkpt>
      <trkpt lat="44.91108" lon="5.19317">
        <ele>914</ele>
        <time>2015-08-19T10:01:53Z</time>
      </trkpt>
      <trkpt lat="44.91108" lon="5.19325">
        <ele>914</ele>
        <time>2015-08-19T10:02:00Z</time>
      </trkpt>
      <trkpt lat="44.91059" lon="5.19233">
        <ele>914</ele>
        <time>2015-08-19T10:59:45Z</time>
      </trkpt>
      <trkpt lat="44.91059" lon="5.19233">
        <ele>914</ele>
        <time>2015-08-19T10:59:46Z</time>
      </trkpt>
      <trkpt lat="44.91057" lon="5.19234">
        <ele>914</ele>
        <time>2015-08-19T11:00:51Z</time>
      </trkpt>
      <trkpt lat="44.91055" lon="5.19231">
        <ele>914</ele>
        <time>2015-08-19T11:01:24Z</time>
      </trkpt>
      <trkpt lat="44.91052" lon="5.19226">
        <ele>914</ele>
        <time>2015-08-19T11:01:28Z</time>
      </trkpt>
      <trkpt lat="44.91051" lon="5.19225">
        <ele>914</ele>
        <time>2015-08-19T11:01:30Z</time>
      </trkpt>
      <trkpt lat="44.91052" lon="5.19228">
        <ele>914</ele>
        <time>2015-08-19T11:02:04Z</time>
      </trkpt>
      <trkpt lat="44.91054" lon="5.1923">
        <ele>914</ele>
        <time>2015-08-19T11:03:22Z</time>
      </trkpt>
      <trkpt lat="44.91058" lon="5.19229">
        <ele>914</ele>
        <time>2015-08-19T11:03:25Z</time>
      </trkpt>
      <trkpt lat="44.91065" lon="5.19233">
        <ele>914</ele>
        <time>2015-08-19T11:03:30Z</time>
      </trkpt>
      <trkpt lat="44.91103" lon="5.19241">
        <ele>916</ele>
        <time>2015-08-19T11:04:00Z</time>
      </trkpt>
      <trkpt lat="44.91105" lon="5.1924">
        <ele>917</ele>
        <time>2015-08-19T11:04:02Z</time>
      </trkpt>
      <trkpt lat="44.91107" lon="5.19244">
        <ele>917</ele>
        <time>2015-08-19T11:04:03Z</time>
      </trkpt>
      <trkpt lat="44.91144" lon="5.19251">
        <ele>915</ele>
        <time>2015-08-19T11:04:34Z</time>
      </trkpt>
      <trkpt lat="44.91156" lon="5.19255">
        <ele>916</ele>
        <time>2015-08-19T11:04:43Z</time>
      </trkpt>
      <trkpt lat="44.91174" lon="5.19253">
        <ele>917</ele>
        <time>2015-08-19T11:04:57Z</time>
      </trkpt>
      <trkpt lat="44.91187" lon="5.19259">
        <ele>917</ele>
        <time>2015-08-19T11:05:08Z</time>
      </trkpt>
      <trkpt lat="44.91197" lon="5.19279">
        <ele>916</ele>
        <time>2015-08-19T11:05:21Z</time>
      </trkpt>
      <trkpt lat="44.91203" lon="5.19312">
        <ele>916</ele>
        <time>2015-08-19T11:05:41Z</time>
      </trkpt>
      <trkpt lat="44.91201" lon="5.19369">
        <ele>912</ele>
        <time>2015-08-19T11:06:12Z</time>
      </trkpt>
      <trkpt lat="44.912" lon="5.19395">
        <ele>912</ele>
        <time>2015-08-19T11:06:27Z</time>
      </trkpt>
      <trkpt lat="44.91198" lon="5.19396">
        <ele>912</ele>
        <time>2015-08-19T11:06:40Z</time>
      </trkpt>
      <trkpt lat="44.91198" lon="5.19399">
        <ele>912</ele>
        <time>2015-08-19T11:06:42Z</time>
      </trkpt>
      <trkpt lat="44.91198" lon="5.19402">
        <ele>911</ele>
        <time>2015-08-19T11:06:44Z</time>
      </trkpt>
      <trkpt lat="44.91195" lon="5.19411">
        <ele>911</ele>
        <time>2015-08-19T11:06:51Z</time>
      </trkpt>
      <trkpt lat="44.91194" lon="5.19411">
        <ele>911</ele>
        <time>2015-08-19T11:06:58Z</time>
      </trkpt>
      <trkpt lat="44.91193" lon="5.19414">
        <ele>911</ele>
        <time>2015-08-19T11:07:36Z</time>
      </trkpt>
      <trkpt lat="44.91192" lon="5.19421">
        <ele>909</ele>
        <time>2015-08-19T11:07:40Z</time>
      </trkpt>
      <trkpt lat="44.91192" lon="5.19424">
        <ele>909</ele>
        <time>2015-08-19T11:07:41Z</time>
      </trkpt>
      <trkpt lat="44.91192" lon="5.19426">
        <ele>909</ele>
        <time>2015-08-19T11:07:43Z</time>
      </trkpt>
      <trkpt lat="44.91192" lon="5.19431">
        <ele>909</ele>
        <time>2015-08-19T11:07:45Z</time>
      </trkpt>
      <trkpt lat="44.91191" lon="5.19435">
        <ele>909</ele>
        <time>2015-08-19T11:07:47Z</time>
      </trkpt>
      <trkpt lat="44.91189" lon="5.19492">
        <ele>908</ele>
        <time>2015-08-19T11:08:18Z</time>
      </trkpt>
      <trkpt lat="44.91188" lon="5.19546">
        <ele>913</ele>
        <time>2015-08-19T11:08:49Z</time>
      </trkpt>
      <trkpt lat="44.91196" lon="5.19552">
        <ele>913</ele>
        <time>2015-08-19T11:08:54Z</time>
      </trkpt>
      <trkpt lat="44.91197" lon="5.19555">
        <ele>913</ele>
        <time>2015-08-19T11:08:57Z</time>
      </trkpt>
      <trkpt lat="44.91203" lon="5.19558">
        <ele>913</ele>
        <time>2015-08-19T11:09:01Z</time>
      </trkpt>
      <trkpt lat="44.91206" lon="5.19562">
        <ele>913</ele>
        <time>2015-08-19T11:09:05Z</time>
      </trkpt>
      <trkpt lat="44.91208" lon="5.19562">
        <ele>913</ele>
        <time>2015-08-19T11:09:07Z</time>
      </trkpt>
      <trkpt lat="44.91215" lon="5.19567">
        <ele>913</ele>
        <time>2015-08-19T11:09:13Z</time>
      </trkpt>
      <trkpt lat="44.91216" lon="5.19569">
        <ele>913</ele>
        <time>2015-08-19T11:09:14Z</time>
      </trkpt>
      <trkpt lat="44.91244" lon="5.19574">
        <ele>914</ele>
        <time>2015-08-19T11:09:37Z</time>
      </trkpt>
      <trkpt lat="44.91249" lon="5.19581">
        <ele>915</ele>
        <time>2015-08-19T11:09:43Z</time>
      </trkpt>
      <trkpt lat="44.91275" lon="5.19598">
        <ele>922</ele>
        <time>2015-08-19T11:10:15Z</time>
      </trkpt>
      <trkpt lat="44.91277" lon="5.19604">
        <ele>922</ele>
        <time>2015-08-19T11:10:20Z</time>
      </trkpt>
      <trkpt lat="44.91278" lon="5.19611">
        <ele>923</ele>
        <time>2015-08-19T11:10:30Z</time>
      </trkpt>
      <trkpt lat="44.91271" lon="5.19614">
        <ele>923</ele>
        <time>2015-08-19T11:10:52Z</time>
      </trkpt>
      <trkpt lat="44.91256" lon="5.19619">
        <ele>924</ele>
        <time>2015-08-19T11:11:03Z</time>
      </trkpt>
      <trkpt lat="44.91254" lon="5.19625">
        <ele>925</ele>
        <time>2015-08-19T11:11:08Z</time>
      </trkpt>
      <trkpt lat="44.9125" lon="5.19629">
        <ele>925</ele>
        <time>2015-08-19T11:11:12Z</time>
      </trkpt>
      <trkpt lat="44.91245" lon="5.19653">
        <ele>929</ele>
        <time>2015-08-19T11:11:45Z</time>
      </trkpt>
      <trkpt lat="44.91229" lon="5.19658">
        <ele>928</ele>
        <time>2015-08-19T11:12:18Z</time>
      </trkpt>
      <trkpt lat="44.91225" lon="5.19658">
        <ele>928</ele>
        <time>2015-08-19T11:12:21Z</time>
      </trkpt>
      <trkpt lat="44.91221" lon="5.19656">
        <ele>928</ele>
        <time>2015-08-19T11:12:23Z</time>
      </trkpt>
      <trkpt lat="44.91189" lon="5.19677">
        <ele>939</ele>
        <time>2015-08-19T11:12:56Z</time>
      </trkpt>
      <trkpt lat="44.91184" lon="5.19681">
        <ele>939</ele>
        <time>2015-08-19T11:13:05Z</time>
      </trkpt>
      <trkpt lat="44.91178" lon="5.19683">
        <ele>939</ele>
        <time>2015-08-19T11:13:09Z</time>
      </trkpt>
      <trkpt lat="44.91175" lon="5.19688">
        <ele>939</ele>
        <time>2015-08-19T11:13:12Z</time>
      </trkpt>
      <trkpt lat="44.9117" lon="5.19697">
        <ele>941</ele>
        <time>2015-08-19T11:13:25Z</time>
      </trkpt>
      <trkpt lat="44.91167" lon="5.19703">
        <ele>942</ele>
        <time>2015-08-19T11:13:37Z</time>
      </trkpt>
      <trkpt lat="44.91164" lon="5.19707">
        <ele>942</ele>
        <time>2015-08-19T11:13:44Z</time>
      </trkpt>
      <trkpt lat="44.91159" lon="5.19711">
        <ele>942</ele>
        <time>2015-08-19T11:13:48Z</time>
      </trkpt>
      <trkpt lat="44.91154" lon="5.19714">
        <ele>943</ele>
        <time>2015-08-19T11:13:51Z</time>
      </trkpt>
      <trkpt lat="44.91146" lon="5.19718">
        <ele>943</ele>
        <time>2015-08-19T11:13:59Z</time>
      </trkpt>
      <trkpt lat="44.91143" lon="5.19722">
        <ele>943</ele>
        <time>2015-08-19T11:14:16Z</time>
      </trkpt>
      <trkpt lat="44.91141" lon="5.19728">
        <ele>944</ele>
        <time>2015-08-19T11:14:20Z</time>
      </trkpt>
      <trkpt lat="44.9113" lon="5.19741">
        <ele>945</ele>
        <time>2015-08-19T11:14:37Z</time>
      </trkpt>
      <trkpt lat="44.91124" lon="5.19751">
        <ele>959</ele>
        <time>2015-08-19T11:15:49Z</time>
      </trkpt>
      <trkpt lat="44.91107" lon="5.19769">
        <ele>959</ele>
        <time>2015-08-19T11:16:12Z</time>
      </trkpt>
      <trkpt lat="44.91104" lon="5.19773">
        <ele>960</ele>
        <time>2015-08-19T11:16:20Z</time>
      </trkpt>
      <trkpt lat="44.91102" lon="5.19779">
        <ele>961</ele>
        <time>2015-08-19T11:16:43Z</time>
      </trkpt>
      <trkpt lat="44.91099" lon="5.19784">
        <ele>962</ele>
        <time>2015-08-19T11:16:46Z</time>
      </trkpt>
      <trkpt lat="44.91097" lon="5.19795">
        <ele>964</ele>
        <time>2015-08-19T11:16:53Z</time>
      </trkpt>
      <trkpt lat="44.91096" lon="5.19801">
        <ele>965</ele>
        <time>2015-08-19T11:17:01Z</time>
      </trkpt>
      <trkpt lat="44.91098" lon="5.19809">
        <ele>966</ele>
        <time>2015-08-19T11:17:32Z</time>
      </trkpt>
      <trkpt lat="44.91098" lon="5.19844">
        <ele>982</ele>
        <time>2015-08-19T11:18:08Z</time>
      </trkpt>
      <trkpt lat="44.91098" lon="5.19849">
        <ele>983</ele>
        <time>2015-08-19T11:18:23Z</time>
      </trkpt>
      <trkpt lat="44.91093" lon="5.19863">
        <ele>986</ele>
        <time>2015-08-19T11:18:29Z</time>
      </trkpt>
      <trkpt lat="44.9109" lon="5.19867">
        <ele>987</ele>
        <time>2015-08-19T11:18:38Z</time>
      </trkpt>
      <trkpt lat="44.91086" lon="5.19874">
        <ele>989</ele>
        <time>2015-08-19T11:18:48Z</time>
      </trkpt>
      <trkpt lat="44.9108" lon="5.19885">
        <ele>987</ele>
        <time>2015-08-19T11:18:56Z</time>
      </trkpt>
      <trkpt lat="44.91074" lon="5.1989">
        <ele>988</ele>
        <time>2015-08-19T11:19:31Z</time>
      </trkpt>
      <trkpt lat="44.91064" lon="5.19896">
        <ele>988</ele>
        <time>2015-08-19T11:19:38Z</time>
      </trkpt>
      <trkpt lat="44.91058" lon="5.19906">
        <ele>989</ele>
        <time>2015-08-19T11:19:49Z</time>
      </trkpt>
      <trkpt lat="44.91058" lon="5.19912">
        <ele>990</ele>
        <time>2015-08-19T11:20:05Z</time>
      </trkpt>
      <trkpt lat="44.91054" lon="5.19916">
        <ele>989</ele>
        <time>2015-08-19T11:20:11Z</time>
      </trkpt>
      <trkpt lat="44.91048" lon="5.19923">
        <ele>1006</ele>
        <time>2015-08-19T11:20:19Z</time>
      </trkpt>
      <trkpt lat="44.91045" lon="5.19935">
        <ele>1007</ele>
        <time>2015-08-19T11:20:28Z</time>
      </trkpt>
      <trkpt lat="44.91037" lon="5.19944">
        <ele>1008</ele>
        <time>2015-08-19T11:20:58Z</time>
      </trkpt>
      <trkpt lat="44.91026" lon="5.19954">
        <ele>1009</ele>
        <time>2015-08-19T11:21:15Z</time>
      </trkpt>
      <trkpt lat="44.91024" lon="5.19961">
        <ele>1011</ele>
        <time>2015-08-19T11:21:24Z</time>
      </trkpt>
      <trkpt lat="44.91016" lon="5.19967">
        <ele>1012</ele>
        <time>2015-08-19T11:21:48Z</time>
      </trkpt>
      <trkpt lat="44.9101" lon="5.19974">
        <ele>1013</ele>
        <time>2015-08-19T11:22:05Z</time>
      </trkpt>
      <trkpt lat="44.91007" lon="5.19985">
        <ele>1016</ele>
        <time>2015-08-19T11:22:15Z</time>
      </trkpt>
      <trkpt lat="44.91004" lon="5.19989">
        <ele>1017</ele>
        <time>2015-08-19T11:22:30Z</time>
      </trkpt>
      <trkpt lat="44.90999" lon="5.1999">
        <ele>1014</ele>
        <time>2015-08-19T11:22:34Z</time>
      </trkpt>
      <trkpt lat="44.90997" lon="5.19996">
        <ele>1016</ele>
        <time>2015-08-19T11:22:38Z</time>
      </trkpt>
      <trkpt lat="44.9099" lon="5.19998">
        <ele>1014</ele>
        <time>2015-08-19T11:22:49Z</time>
      </trkpt>
      <trkpt lat="44.90987" lon="5.20004">
        <ele>1024</ele>
        <time>2015-08-19T11:22:54Z</time>
      </trkpt>
      <trkpt lat="44.90984" lon="5.20008">
        <ele>1025</ele>
        <time>2015-08-19T11:23:19Z</time>
      </trkpt>
      <trkpt lat="44.90982" lon="5.20015">
        <ele>1026</ele>
        <time>2015-08-19T11:23:23Z</time>
      </trkpt>
      <trkpt lat="44.90969" lon="5.20028">
        <ele>1029</ele>
        <time>2015-08-19T11:23:58Z</time>
      </trkpt>
      <trkpt lat="44.90965" lon="5.20031">
        <ele>1029</ele>
        <time>2015-08-19T11:24:08Z</time>
      </trkpt>
      <trkpt lat="44.90964" lon="5.20038">
        <ele>1031</ele>
        <time>2015-08-19T11:24:17Z</time>
      </trkpt>
      <trkpt lat="44.90964" lon="5.20045">
        <ele>1032</ele>
        <time>2015-08-19T11:25:10Z</time>
      </trkpt>
      <trkpt lat="44.9096" lon="5.20054">
        <ele>1034</ele>
        <time>2015-08-19T11:25:24Z</time>
      </trkpt>
      <trkpt lat="44.90956" lon="5.2006">
        <ele>1034</ele>
        <time>2015-08-19T11:25:29Z</time>
      </trkpt>
      <trkpt lat="44.90953" lon="5.20065">
        <ele>1035</ele>
        <time>2015-08-19T11:25:43Z</time>
      </trkpt>
      <trkpt lat="44.90956" lon="5.20079">
        <ele>1037</ele>
        <time>2015-08-19T11:26:16Z</time>
      </trkpt>
      <trkpt lat="44.90957" lon="5.20086">
        <ele>1059</ele>
        <time>2015-08-19T11:26:23Z</time>
      </trkpt>
      <trkpt lat="44.90956" lon="5.20092">
        <ele>1060</ele>
        <time>2015-08-19T11:27:03Z</time>
      </trkpt>
      <trkpt lat="44.90957" lon="5.20112">
        <ele>1063</ele>
        <time>2015-08-19T11:27:14Z</time>
      </trkpt>
      <trkpt lat="44.90957" lon="5.20128">
        <ele>1066</ele>
        <time>2015-08-19T11:27:45Z</time>
      </trkpt>
      <trkpt lat="44.9095" lon="5.20136">
        <ele>1068</ele>
        <time>2015-08-19T11:28:56Z</time>
      </trkpt>
      <trkpt lat="44.90951" lon="5.20143">
        <ele>1069</ele>
        <time>2015-08-19T11:29:02Z</time>
      </trkpt>
      <trkpt lat="44.90953" lon="5.20151">
        <ele>1070</ele>
        <time>2015-08-19T11:29:10Z</time>
      </trkpt>
      <trkpt lat="44.90957" lon="5.2016">
        <ele>1072</ele>
        <time>2015-08-19T11:29:49Z</time>
      </trkpt>
      <trkpt lat="44.90961" lon="5.20159">
        <ele>1072</ele>
        <time>2015-08-19T11:29:59Z</time>
      </trkpt>
      <trkpt lat="44.90965" lon="5.20161">
        <ele>1073</ele>
        <time>2015-08-19T11:30:10Z</time>
      </trkpt>
      <trkpt lat="44.90973" lon="5.20154">
        <ele>1073</ele>
        <time>2015-08-19T11:30:17Z</time>
      </trkpt>
      <trkpt lat="44.90982" lon="5.20164">
        <ele>1077</ele>
        <time>2015-08-19T11:30:27Z</time>
      </trkpt>
      <trkpt lat="44.90984" lon="5.2017">
        <ele>1094</ele>
        <time>2015-08-19T11:30:31Z</time>
      </trkpt>
      <trkpt lat="44.90987" lon="5.20184">
        <ele>1096</ele>
        <time>2015-08-19T11:30:43Z</time>
      </trkpt>
      <trkpt lat="44.90982" lon="5.20192">
        <ele>1098</ele>
        <time>2015-08-19T11:31:37Z</time>
      </trkpt>
      <trkpt lat="44.90975" lon="5.20191">
        <ele>1098</ele>
        <time>2015-08-19T11:31:53Z</time>
      </trkpt>
      <trkpt lat="44.90972" lon="5.20197">
        <ele>1099</ele>
        <time>2015-08-19T11:31:55Z</time>
      </trkpt>
      <trkpt lat="44.90968" lon="5.20202">
        <ele>1100</ele>
        <time>2015-08-19T11:31:57Z</time>
      </trkpt>
      <trkpt lat="44.90963" lon="5.20205">
        <ele>1100</ele>
        <time>2015-08-19T11:32:00Z</time>
      </trkpt>
      <trkpt lat="44.90958" lon="5.20204">
        <ele>1100</ele>
        <time>2015-08-19T11:32:11Z</time>
      </trkpt>
      <trkpt lat="44.90953" lon="5.20204">
        <ele>1100</ele>
        <time>2015-08-19T11:32:18Z</time>
      </trkpt>
      <trkpt lat="44.90948" lon="5.20214">
        <ele>1102</ele>
        <time>2015-08-19T11:32:33Z</time>
      </trkpt>
      <trkpt lat="44.90943" lon="5.20213">
        <ele>1101</ele>
        <time>2015-08-19T11:32:44Z</time>
      </trkpt>
      <trkpt lat="44.9094" lon="5.20219">
        <ele>1102</ele>
        <time>2015-08-19T11:33:13Z</time>
      </trkpt>
      <trkpt lat="44.90936" lon="5.20224">
        <ele>1103</ele>
        <time>2015-08-19T11:33:18Z</time>
      </trkpt>
      <trkpt lat="44.90932" lon="5.20228">
        <ele>1104</ele>
        <time>2015-08-19T11:33:22Z</time>
      </trkpt>
      <trkpt lat="44.90938" lon="5.20234">
        <ele>1105</ele>
        <time>2015-08-19T11:35:24Z</time>
      </trkpt>
      <trkpt lat="44.90942" lon="5.20235">
        <ele>1105</ele>
        <time>2015-08-19T11:35:42Z</time>
      </trkpt>
      <trkpt lat="44.90947" lon="5.20239">
        <ele>1106</ele>
        <time>2015-08-19T11:35:51Z</time>
      </trkpt>
      <trkpt lat="44.90954" lon="5.20242">
        <ele>1106</ele>
        <time>2015-08-19T11:36:14Z</time>
      </trkpt>
      <trkpt lat="44.9096" lon="5.20251">
        <ele>1132</ele>
        <time>2015-08-19T11:36:21Z</time>
      </trkpt>
      <trkpt lat="44.90977" lon="5.2026">
        <ele>1133</ele>
        <time>2015-08-19T11:36:42Z</time>
      </trkpt>
      <trkpt lat="44.90983" lon="5.20268">
        <ele>1135</ele>
        <time>2015-08-19T11:37:30Z</time>
      </trkpt>
      <trkpt lat="44.90973" lon="5.2029">
        <ele>1141</ele>
        <time>2015-08-19T11:38:06Z</time>
      </trkpt>
      <trkpt lat="44.90973" lon="5.20297">
        <ele>1143</ele>
        <time>2015-08-19T11:38:08Z</time>
      </trkpt>
      <trkpt lat="44.90965" lon="5.20303">
        <ele>1144</ele>
        <time>2015-08-19T11:38:17Z</time>
      </trkpt>
      <trkpt lat="44.90959" lon="5.20302">
        <ele>1143</ele>
        <time>2015-08-19T11:38:21Z</time>
      </trkpt>
      <trkpt lat="44.90953" lon="5.20304">
        <ele>1142</ele>
        <time>2015-08-19T11:38:27Z</time>
      </trkpt>
      <trkpt lat="44.90945" lon="5.20309">
        <ele>1143</ele>
        <time>2015-08-19T11:38:59Z</time>
      </trkpt>
      <trkpt lat="44.90952" lon="5.20307">
        <ele>1143</ele>
        <time>2015-08-19T11:40:01Z</time>
      </trkpt>
      <trkpt lat="44.90958" lon="5.203">
        <ele>1142</ele>
        <time>2015-08-19T11:40:26Z</time>
      </trkpt>
      <trkpt lat="44.90964" lon="5.20306">
        <ele>1144</ele>
        <time>2015-08-19T11:41:58Z</time>
      </trkpt>
      <trkpt lat="44.90973" lon="5.20318">
        <ele>1149</ele>
        <time>2015-08-19T11:42:11Z</time>
      </trkpt>
      <trkpt lat="44.90983" lon="5.20322">
        <ele>1153</ele>
        <time>2015-08-19T11:42:31Z</time>
      </trkpt>
      <trkpt lat="44.91001" lon="5.20327">
        <ele>1166</ele>
        <time>2015-08-19T11:43:03Z</time>
      </trkpt>
      <trkpt lat="44.91002" lon="5.20335">
        <ele>1172</ele>
        <time>2015-08-19T11:43:45Z</time>
      </trkpt>
      <trkpt lat="44.90997" lon="5.20353">
        <ele>1174</ele>
        <time>2015-08-19T11:43:49Z</time>
      </trkpt>
      <trkpt lat="44.90999" lon="5.20365">
        <ele>1176</ele>
        <time>2015-08-19T11:45:41Z</time>
      </trkpt>
      <trkpt lat="44.90994" lon="5.20374">
        <ele>1178</ele>
        <time>2015-08-19T11:45:52Z</time>
      </trkpt>
      <trkpt lat="44.90991" lon="5.20379">
        <ele>1179</ele>
        <time>2015-08-19T11:46:01Z</time>
      </trkpt>
      <trkpt lat="44.90981" lon="5.20383">
        <ele>1179</ele>
        <time>2015-08-19T11:46:30Z</time>
      </trkpt>
      <trkpt lat="44.90967" lon="5.20388">
        <ele>1179</ele>
        <time>2015-08-19T11:46:41Z</time>
      </trkpt>
      <trkpt lat="44.9096" lon="5.20391">
        <ele>1179</ele>
        <time>2015-08-19T11:46:57Z</time>
      </trkpt>
      <trkpt lat="44.90957" lon="5.20394">
        <ele>1179</ele>
        <time>2015-08-19T11:47:07Z</time>
      </trkpt>
      <trkpt lat="44.90955" lon="5.204">
        <ele>1180</ele>
        <time>2015-08-19T11:47:14Z</time>
      </trkpt>
      <trkpt lat="44.90954" lon="5.20411">
        <ele>1181</ele>
        <time>2015-08-19T11:47:30Z</time>
      </trkpt>
      <trkpt lat="44.90956" lon="5.20413">
        <ele>1182</ele>
        <time>2015-08-19T11:49:14Z</time>
      </trkpt>
      <trkpt lat="44.9099" lon="5.20422">
        <ele>1194</ele>
        <time>2015-08-19T11:49:44Z</time>
      </trkpt>
      <trkpt lat="44.90992" lon="5.20423">
        <ele>1193</ele>
        <time>2015-08-19T11:49:46Z</time>
      </trkpt>
      <trkpt lat="44.90994" lon="5.20423">
        <ele>1193</ele>
        <time>2015-08-19T11:49:48Z</time>
      </trkpt>
      <trkpt lat="44.90995" lon="5.20424">
        <ele>1193</ele>
        <time>2015-08-19T11:49:49Z</time>
      </trkpt>
      <trkpt lat="44.90999" lon="5.20425">
        <ele>1193</ele>
        <time>2015-08-19T11:49:52Z</time>
      </trkpt>
      <trkpt lat="44.91028" lon="5.20451">
        <ele>1195</ele>
        <time>2015-08-19T11:50:23Z</time>
      </trkpt>
      <trkpt lat="44.91053" lon="5.20479">
        <ele>1196</ele>
        <time>2015-08-19T11:50:53Z</time>
      </trkpt>
      <trkpt lat="44.9106" lon="5.20488">
        <ele>1196</ele>
        <time>2015-08-19T11:51:03Z</time>
      </trkpt>
      <trkpt lat="44.9106" lon="5.20491">
        <ele>1196</ele>
        <time>2015-08-19T11:51:09Z</time>
      </trkpt>
      <trkpt lat="44.91083" lon="5.20519">
        <ele>1198</ele>
        <time>2015-08-19T11:51:33Z</time>
      </trkpt>
      <trkpt lat="44.91084" lon="5.20523">
        <ele>1196</ele>
        <time>2015-08-19T11:51:37Z</time>
      </trkpt>
      <trkpt lat="44.91086" lon="5.20525">
        <ele>1196</ele>
        <time>2015-08-19T11:51:39Z</time>
      </trkpt>
      <trkpt lat="44.91085" lon="5.20527">
        <ele>1196</ele>
        <time>2015-08-19T11:51:40Z</time>
      </trkpt>
      <trkpt lat="44.91086" lon="5.2053">
        <ele>1196</ele>
        <time>2015-08-19T11:51:42Z</time>
      </trkpt>
      <trkpt lat="44.91088" lon="5.20531">
        <ele>1196</ele>
        <time>2015-08-19T11:51:43Z</time>
      </trkpt>
      <trkpt lat="44.91093" lon="5.20538">
        <ele>1196</ele>
        <time>2015-08-19T11:51:50Z</time>
      </trkpt>
      <trkpt lat="44.91092" lon="5.20543">
        <ele>1196</ele>
        <time>2015-08-19T11:51:53Z</time>
      </trkpt>
      <trkpt lat="44.91098" lon="5.20561">
        <ele>1197</ele>
        <time>2015-08-19T11:52:06Z</time>
      </trkpt>
      <trkpt lat="44.91101" lon="5.20572">
        <ele>1197</ele>
        <time>2015-08-19T11:52:13Z</time>
      </trkpt>
      <trkpt lat="44.91106" lon="5.20576">
        <ele>1197</ele>
        <time>2015-08-19T11:52:16Z</time>
      </trkpt>
      <trkpt lat="44.91105" lon="5.20582">
        <ele>1197</ele>
        <time>2015-08-19T11:52:21Z</time>
      </trkpt>
      <trkpt lat="44.91108" lon="5.20609">
        <ele>1200</ele>
        <time>2015-08-19T11:52:39Z</time>
      </trkpt>
      <trkpt lat="44.91112" lon="5.20611">
        <ele>1200</ele>
        <time>2015-08-19T11:52:41Z</time>
      </trkpt>
      <trkpt lat="44.91113" lon="5.20616">
        <ele>1200</ele>
        <time>2015-08-19T11:52:46Z</time>
      </trkpt>
      <trkpt lat="44.91119" lon="5.20626">
        <ele>1200</ele>
        <time>2015-08-19T11:52:50Z</time>
      </trkpt>
      <trkpt lat="44.91118" lon="5.20636">
        <ele>1200</ele>
        <time>2015-08-19T11:52:58Z</time>
      </trkpt>
      <trkpt lat="44.91119" lon="5.20641">
        <ele>1200</ele>
        <time>2015-08-19T11:53:01Z</time>
      </trkpt>
      <trkpt lat="44.91127" lon="5.20653">
        <ele>1201</ele>
        <time>2015-08-19T11:53:09Z</time>
      </trkpt>
      <trkpt lat="44.9113" lon="5.20659">
        <ele>1201</ele>
        <time>2015-08-19T11:53:18Z</time>
      </trkpt>
      <trkpt lat="44.91131" lon="5.20663">
        <ele>1201</ele>
        <time>2015-08-19T11:53:20Z</time>
      </trkpt>
      <trkpt lat="44.91141" lon="5.20682">
        <ele>1201</ele>
        <time>2015-08-19T11:53:39Z</time>
      </trkpt>
      <trkpt lat="44.91146" lon="5.20683">
        <ele>1200</ele>
        <time>2015-08-19T11:53:44Z</time>
      </trkpt>
      <trkpt lat="44.9115" lon="5.20686">
        <ele>1200</ele>
        <time>2015-08-19T11:53:48Z</time>
      </trkpt>
      <trkpt lat="44.91152" lon="5.2069">
        <ele>1200</ele>
        <time>2015-08-19T11:53:55Z</time>
      </trkpt>
      <trkpt lat="44.91155" lon="5.2069">
        <ele>1200</ele>
        <time>2015-08-19T11:53:59Z</time>
      </trkpt>
      <trkpt lat="44.91188" lon="5.20712">
        <ele>1196</ele>
        <time>2015-08-19T11:54:30Z</time>
      </trkpt>
      <trkpt lat="44.91201" lon="5.20717">
        <ele>1196</ele>
        <time>2015-08-19T11:54:46Z</time>
      </trkpt>
      <trkpt lat="44.91205" lon="5.20715">
        <ele>1196</ele>
        <time>2015-08-19T11:54:50Z</time>
      </trkpt>
      <trkpt lat="44.9123" lon="5.20715">
        <ele>1196</ele>
        <time>2015-08-19T11:55:16Z</time>
      </trkpt>
      <trkpt lat="44.91232" lon="5.20712">
        <ele>1196</ele>
        <time>2015-08-19T11:55:20Z</time>
      </trkpt>
      <trkpt lat="44.91244" lon="5.20715">
        <ele>1196</ele>
        <time>2015-08-19T11:55:38Z</time>
      </trkpt>
      <trkpt lat="44.91262" lon="5.20722">
        <ele>1191</ele>
        <time>2015-08-19T11:55:53Z</time>
      </trkpt>
      <trkpt lat="44.91282" lon="5.20727">
        <ele>1190</ele>
        <time>2015-08-19T11:56:03Z</time>
      </trkpt>
      <trkpt lat="44.91285" lon="5.20729">
        <ele>1190</ele>
        <time>2015-08-19T11:56:04Z</time>
      </trkpt>
      <trkpt lat="44.91296" lon="5.20736">
        <ele>1189</ele>
        <time>2015-08-19T11:56:12Z</time>
      </trkpt>
      <trkpt lat="44.91297" lon="5.20738">
        <ele>1189</ele>
        <time>2015-08-19T11:56:15Z</time>
      </trkpt>
      <trkpt lat="44.913" lon="5.20742">
        <ele>1189</ele>
        <time>2015-08-19T11:56:18Z</time>
      </trkpt>
      <trkpt lat="44.91307" lon="5.20752">
        <ele>1183</ele>
        <time>2015-08-19T11:56:28Z</time>
      </trkpt>
      <trkpt lat="44.91306" lon="5.20754">
        <ele>1183</ele>
        <time>2015-08-19T11:56:30Z</time>
      </trkpt>
      <trkpt lat="44.91307" lon="5.20757">
        <ele>1183</ele>
        <time>2015-08-19T11:56:33Z</time>
      </trkpt>
      <trkpt lat="44.91309" lon="5.20758">
        <ele>1183</ele>
        <time>2015-08-19T11:56:34Z</time>
      </trkpt>
      <trkpt lat="44.91338" lon="5.20783">
        <ele>1177</ele>
        <time>2015-08-19T11:57:05Z</time>
      </trkpt>
      <trkpt lat="44.91338" lon="5.20785">
        <ele>1177</ele>
        <time>2015-08-19T11:57:07Z</time>
      </trkpt>
      <trkpt lat="44.91348" lon="5.20794">
        <ele>1176</ele>
        <time>2015-08-19T11:57:15Z</time>
      </trkpt>
      <trkpt lat="44.91347" lon="5.20796">
        <ele>1176</ele>
        <time>2015-08-19T11:57:17Z</time>
      </trkpt>
      <trkpt lat="44.91348" lon="5.208">
        <ele>1175</ele>
        <time>2015-08-19T11:57:19Z</time>
      </trkpt>
      <trkpt lat="44.91345" lon="5.20809">
        <ele>1175</ele>
        <time>2015-08-19T11:57:24Z</time>
      </trkpt>
      <trkpt lat="44.91344" lon="5.20812">
        <ele>1175</ele>
        <time>2015-08-19T11:57:26Z</time>
      </trkpt>
      <trkpt lat="44.91339" lon="5.20821">
        <ele>1175</ele>
        <time>2015-08-19T11:57:34Z</time>
      </trkpt>
      <trkpt lat="44.91339" lon="5.20828">
        <ele>1174</ele>
        <time>2015-08-19T11:57:38Z</time>
      </trkpt>
      <trkpt lat="44.91336" lon="5.20837">
        <ele>1173</ele>
        <time>2015-08-19T11:57:46Z</time>
      </trkpt>
      <trkpt lat="44.91333" lon="5.20839">
        <ele>1173</ele>
        <time>2015-08-19T11:57:48Z</time>
      </trkpt>
      <trkpt lat="44.91331" lon="5.2084">
        <ele>1174</ele>
        <time>2015-08-19T11:57:49Z</time>
      </trkpt>
      <trkpt lat="44.9133" lon="5.20849">
        <ele>1175</ele>
        <time>2015-08-19T11:57:55Z</time>
      </trkpt>
      <trkpt lat="44.91329" lon="5.20854">
        <ele>1175</ele>
        <time>2015-08-19T11:58:00Z</time>
      </trkpt>
      <trkpt lat="44.91328" lon="5.20861">
        <ele>1174</ele>
        <time>2015-08-19T11:58:03Z</time>
      </trkpt>
      <trkpt lat="44.91334" lon="5.20872">
        <ele>1170</ele>
        <time>2015-08-19T11:58:12Z</time>
      </trkpt>
      <trkpt lat="44.91332" lon="5.20875">
        <ele>1174</ele>
        <time>2015-08-19T11:58:14Z</time>
      </trkpt>
      <trkpt lat="44.91334" lon="5.20879">
        <ele>1170</ele>
        <time>2015-08-19T11:58:17Z</time>
      </trkpt>
      <trkpt lat="44.91345" lon="5.2089">
        <ele>1169</ele>
        <time>2015-08-19T11:58:34Z</time>
      </trkpt>
      <trkpt lat="44.91347" lon="5.20894">
        <ele>1169</ele>
        <time>2015-08-19T11:58:38Z</time>
      </trkpt>
      <trkpt lat="44.91364" lon="5.20904">
        <ele>1169</ele>
        <time>2015-08-19T11:58:56Z</time>
      </trkpt>
      <trkpt lat="44.91369" lon="5.20902">
        <ele>1168</ele>
        <time>2015-08-19T11:59:01Z</time>
      </trkpt>
      <trkpt lat="44.91369" lon="5.20906">
        <ele>1168</ele>
        <time>2015-08-19T11:59:09Z</time>
      </trkpt>
      <trkpt lat="44.91369" lon="5.20911">
        <ele>1168</ele>
        <time>2015-08-19T11:59:14Z</time>
      </trkpt>
      <trkpt lat="44.91367" lon="5.20928">
        <ele>1167</ele>
        <time>2015-08-19T11:59:23Z</time>
      </trkpt>
      <trkpt lat="44.91369" lon="5.20933">
        <ele>1166</ele>
        <time>2015-08-19T11:59:28Z</time>
      </trkpt>
      <trkpt lat="44.91373" lon="5.20934">
        <ele>1166</ele>
        <time>2015-08-19T11:59:30Z</time>
      </trkpt>
      <trkpt lat="44.91375" lon="5.20947">
        <ele>1166</ele>
        <time>2015-08-19T11:59:39Z</time>
      </trkpt>
      <trkpt lat="44.91377" lon="5.20949">
        <ele>1166</ele>
        <time>2015-08-19T11:59:40Z</time>
      </trkpt>
      <trkpt lat="44.91376" lon="5.20952">
        <ele>1166</ele>
        <time>2015-08-19T11:59:43Z</time>
      </trkpt>
      <trkpt lat="44.91378" lon="5.20955">
        <ele>1166</ele>
        <time>2015-08-19T11:59:46Z</time>
      </trkpt>
      <trkpt lat="44.91377" lon="5.20961">
        <ele>1166</ele>
        <time>2015-08-19T11:59:50Z</time>
      </trkpt>
      <trkpt lat="44.91399" lon="5.20999">
        <ele>1163</ele>
        <time>2015-08-19T12:00:20Z</time>
      </trkpt>
      <trkpt lat="44.91415" lon="5.21018">
        <ele>1164</ele>
        <time>2015-08-19T12:00:34Z</time>
      </trkpt>
      <trkpt lat="44.91415" lon="5.21024">
        <ele>1164</ele>
        <time>2015-08-19T12:00:40Z</time>
      </trkpt>
      <trkpt lat="44.91419" lon="5.21027">
        <ele>1159</ele>
        <time>2015-08-19T12:00:48Z</time>
      </trkpt>
      <trkpt lat="44.91428" lon="5.21049">
        <ele>1159</ele>
        <time>2015-08-19T12:01:01Z</time>
      </trkpt>
      <trkpt lat="44.91426" lon="5.21055">
        <ele>1160</ele>
        <time>2015-08-19T12:01:06Z</time>
      </trkpt>
      <trkpt lat="44.91428" lon="5.21057">
        <ele>1160</ele>
        <time>2015-08-19T12:01:08Z</time>
      </trkpt>
      <trkpt lat="44.91436" lon="5.21076">
        <ele>1160</ele>
        <time>2015-08-19T12:01:21Z</time>
      </trkpt>
      <trkpt lat="44.91437" lon="5.21079">
        <ele>1160</ele>
        <time>2015-08-19T12:01:24Z</time>
      </trkpt>
      <trkpt lat="44.91438" lon="5.21082">
        <ele>1160</ele>
        <time>2015-08-19T12:01:28Z</time>
      </trkpt>
      <trkpt lat="44.91442" lon="5.21084">
        <ele>1163</ele>
        <time>2015-08-19T12:01:29Z</time>
      </trkpt>
      <trkpt lat="44.91444" lon="5.21084">
        <ele>1163</ele>
        <time>2015-08-19T12:01:38Z</time>
      </trkpt>
      <trkpt lat="44.91444" lon="5.21088">
        <ele>1163</ele>
        <time>2015-08-19T12:01:45Z</time>
      </trkpt>
      <trkpt lat="44.91447" lon="5.21093">
        <ele>1163</ele>
        <time>2015-08-19T12:01:47Z</time>
      </trkpt>
      <trkpt lat="44.91446" lon="5.21095">
        <ele>1163</ele>
        <time>2015-08-19T12:01:48Z</time>
      </trkpt>
      <trkpt lat="44.91458" lon="5.21112">
        <ele>1163</ele>
        <time>2015-08-19T12:01:54Z</time>
      </trkpt>
      <trkpt lat="44.91463" lon="5.2112">
        <ele>1163</ele>
        <time>2015-08-19T12:02:03Z</time>
      </trkpt>
      <trkpt lat="44.91493" lon="5.21146">
        <ele>1163</ele>
        <time>2015-08-19T12:02:33Z</time>
      </trkpt>
      <trkpt lat="44.9152" lon="5.21175">
        <ele>1161</ele>
        <time>2015-08-19T12:03:02Z</time>
      </trkpt>
      <trkpt lat="44.91518" lon="5.2118">
        <ele>1161</ele>
        <time>2015-08-19T12:03:07Z</time>
      </trkpt>
      <trkpt lat="44.91525" lon="5.21193">
        <ele>1161</ele>
        <time>2015-08-19T12:03:16Z</time>
      </trkpt>
      <trkpt lat="44.91523" lon="5.21195">
        <ele>1161</ele>
        <time>2015-08-19T12:03:18Z</time>
      </trkpt>
      <trkpt lat="44.91522" lon="5.21198">
        <ele>1161</ele>
        <time>2015-08-19T12:03:20Z</time>
      </trkpt>
      <trkpt lat="44.91524" lon="5.21201">
        <ele>1161</ele>
        <time>2015-08-19T12:03:22Z</time>
      </trkpt>
      <trkpt lat="44.91527" lon="5.21205">
        <ele>1161</ele>
        <time>2015-08-19T12:03:25Z</time>
      </trkpt>
      <trkpt lat="44.91525" lon="5.21212">
        <ele>1161</ele>
        <time>2015-08-19T12:03:30Z</time>
      </trkpt>
      <trkpt lat="44.91527" lon="5.21215">
        <ele>1161</ele>
        <time>2015-08-19T12:03:32Z</time>
      </trkpt>
      <trkpt lat="44.91535" lon="5.21254">
        <ele>1165</ele>
        <time>2015-08-19T12:04:02Z</time>
      </trkpt>
      <trkpt lat="44.91532" lon="5.21257">
        <ele>1165</ele>
        <time>2015-08-19T12:04:15Z</time>
      </trkpt>
      <trkpt lat="44.91534" lon="5.21261">
        <ele>1165</ele>
        <time>2015-08-19T12:04:22Z</time>
      </trkpt>
      <trkpt lat="44.91535" lon="5.21263">
        <ele>1165</ele>
        <time>2015-08-19T12:04:24Z</time>
      </trkpt>
      <trkpt lat="44.91535" lon="5.21267">
        <ele>1165</ele>
        <time>2015-08-19T12:04:26Z</time>
      </trkpt>
      <trkpt lat="44.91538" lon="5.21274">
        <ele>1165</ele>
        <time>2015-08-19T12:04:31Z</time>
      </trkpt>
      <trkpt lat="44.91542" lon="5.2128">
        <ele>1164</ele>
        <time>2015-08-19T12:04:36Z</time>
      </trkpt>
      <trkpt lat="44.91558" lon="5.21298">
        <ele>1164</ele>
        <time>2015-08-19T12:05:01Z</time>
      </trkpt>
      <trkpt lat="44.91562" lon="5.21302">
        <ele>1164</ele>
        <time>2015-08-19T12:05:10Z</time>
      </trkpt>
      <trkpt lat="44.91575" lon="5.21312">
        <ele>1164</ele>
        <time>2015-08-19T12:05:26Z</time>
      </trkpt>
      <trkpt lat="44.91579" lon="5.21314">
        <ele>1165</ele>
        <time>2015-08-19T12:05:29Z</time>
      </trkpt>
      <trkpt lat="44.91583" lon="5.21319">
        <ele>1165</ele>
        <time>2015-08-19T12:05:40Z</time>
      </trkpt>
      <trkpt lat="44.91589" lon="5.21336">
        <ele>1165</ele>
        <time>2015-08-19T12:05:52Z</time>
      </trkpt>
      <trkpt lat="44.91593" lon="5.21338">
        <ele>1165</ele>
        <time>2015-08-19T12:05:59Z</time>
      </trkpt>
      <trkpt lat="44.91595" lon="5.21344">
        <ele>1165</ele>
        <time>2015-08-19T12:06:05Z</time>
      </trkpt>
      <trkpt lat="44.91606" lon="5.2136">
        <ele>1166</ele>
        <time>2015-08-19T12:06:17Z</time>
      </trkpt>
      <trkpt lat="44.9161" lon="5.21364">
        <ele>1166</ele>
        <time>2015-08-19T12:06:24Z</time>
      </trkpt>
      <trkpt lat="44.91613" lon="5.2137">
        <ele>1166</ele>
        <time>2015-08-19T12:06:27Z</time>
      </trkpt>
      <trkpt lat="44.91622" lon="5.21384">
        <ele>1166</ele>
        <time>2015-08-19T12:06:38Z</time>
      </trkpt>
      <trkpt lat="44.91624" lon="5.21393">
        <ele>1166</ele>
        <time>2015-08-19T12:06:44Z</time>
      </trkpt>
      <trkpt lat="44.91636" lon="5.21417">
        <ele>1166</ele>
        <time>2015-08-19T12:07:06Z</time>
      </trkpt>
      <trkpt lat="44.9164" lon="5.2142">
        <ele>1166</ele>
        <time>2015-08-19T12:07:13Z</time>
      </trkpt>
      <trkpt lat="44.91641" lon="5.21422">
        <ele>1166</ele>
        <time>2015-08-19T12:07:14Z</time>
      </trkpt>
      <trkpt lat="44.91647" lon="5.21427">
        <ele>1166</ele>
        <time>2015-08-19T12:07:17Z</time>
      </trkpt>
      <trkpt lat="44.91647" lon="5.21431">
        <ele>1166</ele>
        <time>2015-08-19T12:07:20Z</time>
      </trkpt>
      <trkpt lat="44.9165" lon="5.21431">
        <ele>1166</ele>
        <time>2015-08-19T12:07:23Z</time>
      </trkpt>
      <trkpt lat="44.91651" lon="5.21433">
        <ele>1166</ele>
        <time>2015-08-19T12:07:25Z</time>
      </trkpt>
      <trkpt lat="44.91667" lon="5.21453">
        <ele>1166</ele>
        <time>2015-08-19T12:07:42Z</time>
      </trkpt>
      <trkpt lat="44.91669" lon="5.21455">
        <ele>1166</ele>
        <time>2015-08-19T12:07:45Z</time>
      </trkpt>
      <trkpt lat="44.91681" lon="5.21464">
        <ele>1166</ele>
        <time>2015-08-19T12:07:59Z</time>
      </trkpt>
      <trkpt lat="44.91689" lon="5.2148">
        <ele>1166</ele>
        <time>2015-08-19T12:08:15Z</time>
      </trkpt>
      <trkpt lat="44.91706" lon="5.21487">
        <ele>1166</ele>
        <time>2015-08-19T12:08:32Z</time>
      </trkpt>
      <trkpt lat="44.91707" lon="5.21488">
        <ele>1166</ele>
        <time>2015-08-19T12:08:33Z</time>
      </trkpt>
      <trkpt lat="44.9171" lon="5.2149">
        <ele>1166</ele>
        <time>2015-08-19T12:08:34Z</time>
      </trkpt>
      <trkpt lat="44.91711" lon="5.21492">
        <ele>1166</ele>
        <time>2015-08-19T12:08:36Z</time>
      </trkpt>
      <trkpt lat="44.91716" lon="5.21495">
        <ele>1166</ele>
        <time>2015-08-19T12:08:47Z</time>
      </trkpt>
      <trkpt lat="44.9172" lon="5.215">
        <ele>1166</ele>
        <time>2015-08-19T12:08:51Z</time>
      </trkpt>
      <trkpt lat="44.91729" lon="5.21507">
        <ele>1165</ele>
        <time>2015-08-19T12:09:00Z</time>
      </trkpt>
      <trkpt lat="44.9173" lon="5.21508">
        <ele>1165</ele>
        <time>2015-08-19T12:09:01Z</time>
      </trkpt>
      <trkpt lat="44.91732" lon="5.21511">
        <ele>1165</ele>
        <time>2015-08-19T12:09:03Z</time>
      </trkpt>
      <trkpt lat="44.91733" lon="5.21514">
        <ele>1165</ele>
        <time>2015-08-19T12:09:05Z</time>
      </trkpt>
      <trkpt lat="44.91734" lon="5.21516">
        <ele>1165</ele>
        <time>2015-08-19T12:09:06Z</time>
      </trkpt>
      <trkpt lat="44.91736" lon="5.21519">
        <ele>1165</ele>
        <time>2015-08-19T12:09:09Z</time>
      </trkpt>
      <trkpt lat="44.91743" lon="5.21522">
        <ele>1165</ele>
        <time>2015-08-19T12:09:16Z</time>
      </trkpt>
      <trkpt lat="44.91744" lon="5.21524">
        <ele>1164</ele>
        <time>2015-08-19T12:09:18Z</time>
      </trkpt>
      <trkpt lat="44.91752" lon="5.21527">
        <ele>1166</ele>
        <time>2015-08-19T12:09:26Z</time>
      </trkpt>
      <trkpt lat="44.9176" lon="5.21535">
        <ele>1166</ele>
        <time>2015-08-19T12:09:38Z</time>
      </trkpt>
      <trkpt lat="44.9177" lon="5.21544">
        <ele>1165</ele>
        <time>2015-08-19T12:09:48Z</time>
      </trkpt>
      <trkpt lat="44.91772" lon="5.21544">
        <ele>1165</ele>
        <time>2015-08-19T12:09:53Z</time>
      </trkpt>
      <trkpt lat="44.91774" lon="5.21545">
        <ele>1166</ele>
        <time>2015-08-19T12:09:55Z</time>
      </trkpt>
      <trkpt lat="44.9178" lon="5.21548">
        <ele>1166</ele>
        <time>2015-08-19T12:10:00Z</time>
      </trkpt>
      <trkpt lat="44.91807" lon="5.21555">
        <ele>1166</ele>
        <time>2015-08-19T12:10:31Z</time>
      </trkpt>
      <trkpt lat="44.91808" lon="5.21558">
        <ele>1166</ele>
        <time>2015-08-19T12:10:32Z</time>
      </trkpt>
      <trkpt lat="44.9181" lon="5.2156">
        <ele>1166</ele>
        <time>2015-08-19T12:10:34Z</time>
      </trkpt>
      <trkpt lat="44.91814" lon="5.21563">
        <ele>1166</ele>
        <time>2015-08-19T12:10:43Z</time>
      </trkpt>
      <trkpt lat="44.91818" lon="5.21565">
        <ele>1166</ele>
        <time>2015-08-19T12:10:47Z</time>
      </trkpt>
      <trkpt lat="44.91854" lon="5.2162">
        <ele>1170</ele>
        <time>2015-08-19T12:11:20Z</time>
      </trkpt>
      <trkpt lat="44.91864" lon="5.2165">
        <ele>1170</ele>
        <time>2015-08-19T12:11:43Z</time>
      </trkpt>
      <trkpt lat="44.91864" lon="5.21656">
        <ele>1170</ele>
        <time>2015-08-19T12:11:46Z</time>
      </trkpt>
      <trkpt lat="44.91865" lon="5.21664">
        <ele>1170</ele>
        <time>2015-08-19T12:11:50Z</time>
      </trkpt>
      <trkpt lat="44.91869" lon="5.21681">
        <ele>1170</ele>
        <time>2015-08-19T12:12:00Z</time>
      </trkpt>
      <trkpt lat="44.91868" lon="5.21684">
        <ele>1170</ele>
        <time>2015-08-19T12:12:02Z</time>
      </trkpt>
      <trkpt lat="44.91871" lon="5.21693">
        <ele>1170</ele>
        <time>2015-08-19T12:12:08Z</time>
      </trkpt>
      <trkpt lat="44.9187" lon="5.21695">
        <ele>1170</ele>
        <time>2015-08-19T12:12:09Z</time>
      </trkpt>
      <trkpt lat="44.9187" lon="5.21697">
        <ele>1170</ele>
        <time>2015-08-19T12:12:13Z</time>
      </trkpt>
      <trkpt lat="44.91868" lon="5.21698">
        <ele>1170</ele>
        <time>2015-08-19T12:12:17Z</time>
      </trkpt>
      <trkpt lat="44.91867" lon="5.21699">
        <ele>1170</ele>
        <time>2015-08-19T12:12:22Z</time>
      </trkpt>
      <trkpt lat="44.91865" lon="5.21699">
        <ele>1170</ele>
        <time>2015-08-19T12:12:23Z</time>
      </trkpt>
      <trkpt lat="44.91862" lon="5.21703">
        <ele>1170</ele>
        <time>2015-08-19T12:12:25Z</time>
      </trkpt>
      <trkpt lat="44.9186" lon="5.21706">
        <ele>1170</ele>
        <time>2015-08-19T12:12:26Z</time>
      </trkpt>
      <trkpt lat="44.91861" lon="5.21711">
        <ele>1170</ele>
        <time>2015-08-19T12:12:29Z</time>
      </trkpt>
      <trkpt lat="44.91859" lon="5.21714">
        <ele>1170</ele>
        <time>2015-08-19T12:12:30Z</time>
      </trkpt>
      <trkpt lat="44.91859" lon="5.21718">
        <ele>1170</ele>
        <time>2015-08-19T12:12:32Z</time>
      </trkpt>
      <trkpt lat="44.91861" lon="5.21719">
        <ele>1170</ele>
        <time>2015-08-19T12:12:33Z</time>
      </trkpt>
      <trkpt lat="44.91862" lon="5.21728">
        <ele>1170</ele>
        <time>2015-08-19T12:12:38Z</time>
      </trkpt>
      <trkpt lat="44.91861" lon="5.2173">
        <ele>1170</ele>
        <time>2015-08-19T12:12:40Z</time>
      </trkpt>
      <trkpt lat="44.91862" lon="5.21738">
        <ele>1170</ele>
        <time>2015-08-19T12:12:45Z</time>
      </trkpt>
      <trkpt lat="44.91867" lon="5.21747">
        <ele>1170</ele>
        <time>2015-08-19T12:12:53Z</time>
      </trkpt>
      <trkpt lat="44.91878" lon="5.21755">
        <ele>1173</ele>
        <time>2015-08-19T12:13:05Z</time>
      </trkpt>
      <trkpt lat="44.91907" lon="5.21778">
        <ele>1173</ele>
        <time>2015-08-19T12:13:35Z</time>
      </trkpt>
      <trkpt lat="44.91909" lon="5.21785">
        <ele>1173</ele>
        <time>2015-08-19T12:13:40Z</time>
      </trkpt>
      <trkpt lat="44.91908" lon="5.21797">
        <ele>1174</ele>
        <time>2015-08-19T12:13:49Z</time>
      </trkpt>
      <trkpt lat="44.91902" lon="5.21815">
        <ele>1175</ele>
        <time>2015-08-19T12:14:07Z</time>
      </trkpt>
      <trkpt lat="44.91902" lon="5.21828">
        <ele>1176</ele>
        <time>2015-08-19T12:14:18Z</time>
      </trkpt>
      <trkpt lat="44.91898" lon="5.21831">
        <ele>1176</ele>
        <time>2015-08-19T12:14:22Z</time>
      </trkpt>
      <trkpt lat="44.91895" lon="5.21838">
        <ele>1183</ele>
        <time>2015-08-19T12:14:30Z</time>
      </trkpt>
      <trkpt lat="44.91891" lon="5.21841">
        <ele>1184</ele>
        <time>2015-08-19T12:14:34Z</time>
      </trkpt>
      <trkpt lat="44.91888" lon="5.21847">
        <ele>1185</ele>
        <time>2015-08-19T12:14:54Z</time>
      </trkpt>
      <trkpt lat="44.91883" lon="5.21848">
        <ele>1186</ele>
        <time>2015-08-19T12:14:57Z</time>
      </trkpt>
      <trkpt lat="44.91881" lon="5.21855">
        <ele>1186</ele>
        <time>2015-08-19T12:15:02Z</time>
      </trkpt>
      <trkpt lat="44.91875" lon="5.21864">
        <ele>1188</ele>
        <time>2015-08-19T12:15:14Z</time>
      </trkpt>
      <trkpt lat="44.91871" lon="5.21875">
        <ele>1189</ele>
        <time>2015-08-19T12:15:50Z</time>
      </trkpt>
      <trkpt lat="44.91867" lon="5.21879">
        <ele>1189</ele>
        <time>2015-08-19T12:15:54Z</time>
      </trkpt>
      <trkpt lat="44.91867" lon="5.21887">
        <ele>1190</ele>
        <time>2015-08-19T12:15:58Z</time>
      </trkpt>
      <trkpt lat="44.91865" lon="5.21892">
        <ele>1190</ele>
        <time>2015-08-19T12:16:02Z</time>
      </trkpt>
      <trkpt lat="44.91865" lon="5.21899">
        <ele>1191</ele>
        <time>2015-08-19T12:16:08Z</time>
      </trkpt>
      <trkpt lat="44.91861" lon="5.21903">
        <ele>1192</ele>
        <time>2015-08-19T12:16:12Z</time>
      </trkpt>
      <trkpt lat="44.91852" lon="5.2192">
        <ele>1198</ele>
        <time>2015-08-19T12:16:31Z</time>
      </trkpt>
      <trkpt lat="44.91847" lon="5.21929">
        <ele>1198</ele>
        <time>2015-08-19T12:16:43Z</time>
      </trkpt>
      <trkpt lat="44.91846" lon="5.21936">
        <ele>1198</ele>
        <time>2015-08-19T12:16:51Z</time>
      </trkpt>
      <trkpt lat="44.91844" lon="5.21942">
        <ele>1198</ele>
        <time>2015-08-19T12:16:56Z</time>
      </trkpt>
      <trkpt lat="44.91843" lon="5.21944">
        <ele>1198</ele>
        <time>2015-08-19T12:17:01Z</time>
      </trkpt>
      <trkpt lat="44.91843" lon="5.21946">
        <ele>1198</ele>
        <time>2015-08-19T12:17:43Z</time>
      </trkpt>
      <trkpt lat="44.91843" lon="5.21949">
        <ele>1198</ele>
        <time>2015-08-19T12:17:45Z</time>
      </trkpt>
      <trkpt lat="44.91843" lon="5.21954">
        <ele>1198</ele>
        <time>2015-08-19T12:17:49Z</time>
      </trkpt>
      <trkpt lat="44.91842" lon="5.21956">
        <ele>1198</ele>
        <time>2015-08-19T12:17:51Z</time>
      </trkpt>
      <trkpt lat="44.91842" lon="5.2196">
        <ele>1198</ele>
        <time>2015-08-19T12:17:55Z</time>
      </trkpt>
      <trkpt lat="44.91841" lon="5.21963">
        <ele>1198</ele>
        <time>2015-08-19T12:17:57Z</time>
      </trkpt>
      <trkpt lat="44.91841" lon="5.21965">
        <ele>1198</ele>
        <time>2015-08-19T12:17:59Z</time>
      </trkpt>
      <trkpt lat="44.9184" lon="5.21971">
        <ele>1199</ele>
        <time>2015-08-19T12:18:04Z</time>
      </trkpt>
      <trkpt lat="44.9184" lon="5.21973">
        <ele>1199</ele>
        <time>2015-08-19T12:18:09Z</time>
      </trkpt>
      <trkpt lat="44.91839" lon="5.21976">
        <ele>1199</ele>
        <time>2015-08-19T12:18:12Z</time>
      </trkpt>
      <trkpt lat="44.91843" lon="5.21989">
        <ele>1199</ele>
        <time>2015-08-19T12:18:20Z</time>
      </trkpt>
      <trkpt lat="44.91842" lon="5.21994">
        <ele>1199</ele>
        <time>2015-08-19T12:18:22Z</time>
      </trkpt>
      <trkpt lat="44.91842" lon="5.21999">
        <ele>1199</ele>
        <time>2015-08-19T12:18:25Z</time>
      </trkpt>
      <trkpt lat="44.91844" lon="5.22002">
        <ele>1200</ele>
        <time>2015-08-19T12:18:27Z</time>
      </trkpt>
      <trkpt lat="44.91842" lon="5.22006">
        <ele>1200</ele>
        <time>2015-08-19T12:18:30Z</time>
      </trkpt>
      <trkpt lat="44.91839" lon="5.22008">
        <ele>1200</ele>
        <time>2015-08-19T12:18:31Z</time>
      </trkpt>
      <trkpt lat="44.91838" lon="5.22012">
        <ele>1200</ele>
        <time>2015-08-19T12:18:33Z</time>
      </trkpt>
      <trkpt lat="44.91832" lon="5.22016">
        <ele>1201</ele>
        <time>2015-08-19T12:18:37Z</time>
      </trkpt>
      <trkpt lat="44.9183" lon="5.22026">
        <ele>1202</ele>
        <time>2015-08-19T12:18:43Z</time>
      </trkpt>
      <trkpt lat="44.91829" lon="5.22029">
        <ele>1202</ele>
        <time>2015-08-19T12:18:45Z</time>
      </trkpt>
      <trkpt lat="44.9183" lon="5.22031">
        <ele>1202</ele>
        <time>2015-08-19T12:18:47Z</time>
      </trkpt>
      <trkpt lat="44.91828" lon="5.22032">
        <ele>1202</ele>
        <time>2015-08-19T12:18:50Z</time>
      </trkpt>
      <trkpt lat="44.91827" lon="5.22036">
        <ele>1202</ele>
        <time>2015-08-19T12:18:52Z</time>
      </trkpt>
      <trkpt lat="44.91828" lon="5.22038">
        <ele>1202</ele>
        <time>2015-08-19T12:18:54Z</time>
      </trkpt>
      <trkpt lat="44.91829" lon="5.22039">
        <ele>1202</ele>
        <time>2015-08-19T12:18:59Z</time>
      </trkpt>
      <trkpt lat="44.91827" lon="5.22047">
        <ele>1201</ele>
        <time>2015-08-19T12:19:07Z</time>
      </trkpt>
      <trkpt lat="44.91814" lon="5.2207">
        <ele>1201</ele>
        <time>2015-08-19T12:19:28Z</time>
      </trkpt>
      <trkpt lat="44.91815" lon="5.22077">
        <ele>1200</ele>
        <time>2015-08-19T12:19:32Z</time>
      </trkpt>
      <trkpt lat="44.91816" lon="5.22084">
        <ele>1195</ele>
        <time>2015-08-19T12:19:36Z</time>
      </trkpt>
      <trkpt lat="44.91815" lon="5.22089">
        <ele>1195</ele>
        <time>2015-08-19T12:19:40Z</time>
      </trkpt>
      <trkpt lat="44.91812" lon="5.22093">
        <ele>1195</ele>
        <time>2015-08-19T12:19:45Z</time>
      </trkpt>
      <trkpt lat="44.91809" lon="5.22099">
        <ele>1194</ele>
        <time>2015-08-19T12:19:51Z</time>
      </trkpt>
      <trkpt lat="44.9181" lon="5.22108">
        <ele>1194</ele>
        <time>2015-08-19T12:19:59Z</time>
      </trkpt>
      <trkpt lat="44.91813" lon="5.22126">
        <ele>1192</ele>
        <time>2015-08-19T12:20:13Z</time>
      </trkpt>
      <trkpt lat="44.91812" lon="5.22132">
        <ele>1191</ele>
        <time>2015-08-19T12:20:16Z</time>
      </trkpt>
      <trkpt lat="44.91813" lon="5.22134">
        <ele>1191</ele>
        <time>2015-08-19T12:20:18Z</time>
      </trkpt>
      <trkpt lat="44.91815" lon="5.22151">
        <ele>1189</ele>
        <time>2015-08-19T12:20:30Z</time>
      </trkpt>
      <trkpt lat="44.91823" lon="5.22167">
        <ele>1184</ele>
        <time>2015-08-19T12:20:50Z</time>
      </trkpt>
      <trkpt lat="44.91822" lon="5.2217">
        <ele>1184</ele>
        <time>2015-08-19T12:20:51Z</time>
      </trkpt>
      <trkpt lat="44.91823" lon="5.22173">
        <ele>1184</ele>
        <time>2015-08-19T12:20:53Z</time>
      </trkpt>
      <trkpt lat="44.91823" lon="5.22179">
        <ele>1183</ele>
        <time>2015-08-19T12:20:59Z</time>
      </trkpt>
      <trkpt lat="44.91831" lon="5.22191">
        <ele>1182</ele>
        <time>2015-08-19T12:21:09Z</time>
      </trkpt>
      <trkpt lat="44.91831" lon="5.22196">
        <ele>1182</ele>
        <time>2015-08-19T12:21:14Z</time>
      </trkpt>
      <trkpt lat="44.91832" lon="5.22197">
        <ele>1182</ele>
        <time>2015-08-19T12:21:16Z</time>
      </trkpt>
      <trkpt lat="44.91838" lon="5.22232">
        <ele>1178</ele>
        <time>2015-08-19T12:21:43Z</time>
      </trkpt>
      <trkpt lat="44.91842" lon="5.22233">
        <ele>1178</ele>
        <time>2015-08-19T12:21:48Z</time>
      </trkpt>
      <trkpt lat="44.91842" lon="5.22236">
        <ele>1178</ele>
        <time>2015-08-19T12:21:51Z</time>
      </trkpt>
      <trkpt lat="44.9185" lon="5.22254">
        <ele>1172</ele>
        <time>2015-08-19T12:22:08Z</time>
      </trkpt>
      <trkpt lat="44.91849" lon="5.22257">
        <ele>1172</ele>
        <time>2015-08-19T12:22:12Z</time>
      </trkpt>
      <trkpt lat="44.91859" lon="5.22273">
        <ele>1170</ele>
        <time>2015-08-19T12:22:25Z</time>
      </trkpt>
      <trkpt lat="44.91859" lon="5.22276">
        <ele>1170</ele>
        <time>2015-08-19T12:22:27Z</time>
      </trkpt>
      <trkpt lat="44.91858" lon="5.22278">
        <ele>1170</ele>
        <time>2015-08-19T12:22:28Z</time>
      </trkpt>
      <trkpt lat="44.91857" lon="5.22287">
        <ele>1170</ele>
        <time>2015-08-19T12:22:41Z</time>
      </trkpt>
      <trkpt lat="44.91859" lon="5.22289">
        <ele>1169</ele>
        <time>2015-08-19T12:22:42Z</time>
      </trkpt>
      <trkpt lat="44.91859" lon="5.22292">
        <ele>1169</ele>
        <time>2015-08-19T12:22:43Z</time>
      </trkpt>
      <trkpt lat="44.91862" lon="5.22296">
        <ele>1169</ele>
        <time>2015-08-19T12:22:45Z</time>
      </trkpt>
      <trkpt lat="44.91864" lon="5.22298">
        <ele>1169</ele>
        <time>2015-08-19T12:22:48Z</time>
      </trkpt>
      <trkpt lat="44.91881" lon="5.22314">
        <ele>1167</ele>
        <time>2015-08-19T12:23:22Z</time>
      </trkpt>
      <trkpt lat="44.9188" lon="5.22316">
        <ele>1167</ele>
        <time>2015-08-19T12:23:23Z</time>
      </trkpt>
      <trkpt lat="44.91882" lon="5.22319">
        <ele>1167</ele>
        <time>2015-08-19T12:23:24Z</time>
      </trkpt>
      <trkpt lat="44.91914" lon="5.22344">
        <ele>1162</ele>
        <time>2015-08-19T12:23:56Z</time>
      </trkpt>
      <trkpt lat="44.91917" lon="5.2235">
        <ele>1158</ele>
        <time>2015-08-19T12:24:01Z</time>
      </trkpt>
      <trkpt lat="44.91931" lon="5.22368">
        <ele>1158</ele>
        <time>2015-08-19T12:24:24Z</time>
      </trkpt>
      <trkpt lat="44.91937" lon="5.22375">
        <ele>1157</ele>
        <time>2015-08-19T12:24:32Z</time>
      </trkpt>
      <trkpt lat="44.91972" lon="5.2237">
        <ele>1155</ele>
        <time>2015-08-19T12:25:03Z</time>
      </trkpt>
      <trkpt lat="44.91993" lon="5.22388">
        <ele>1153</ele>
        <time>2015-08-19T12:25:33Z</time>
      </trkpt>
      <trkpt lat="44.91997" lon="5.22391">
        <ele>1153</ele>
        <time>2015-08-19T12:25:42Z</time>
      </trkpt>
      <trkpt lat="44.92" lon="5.22391">
        <ele>1149</ele>
        <time>2015-08-19T12:25:45Z</time>
      </trkpt>
      <trkpt lat="44.92035" lon="5.22403">
        <ele>1148</ele>
        <time>2015-08-19T12:26:15Z</time>
      </trkpt>
      <trkpt lat="44.92047" lon="5.22421">
        <ele>1141</ele>
        <time>2015-08-19T12:26:30Z</time>
      </trkpt>
      <trkpt lat="44.92047" lon="5.22424">
        <ele>1141</ele>
        <time>2015-08-19T12:26:32Z</time>
      </trkpt>
      <trkpt lat="44.9205" lon="5.22427">
        <ele>1140</ele>
        <time>2015-08-19T12:26:35Z</time>
      </trkpt>
      <trkpt lat="44.92057" lon="5.22452">
        <ele>1139</ele>
        <time>2015-08-19T12:26:53Z</time>
      </trkpt>
      <trkpt lat="44.92057" lon="5.22458">
        <ele>1139</ele>
        <time>2015-08-19T12:26:56Z</time>
      </trkpt>
      <trkpt lat="44.92058" lon="5.2246">
        <ele>1139</ele>
        <time>2015-08-19T12:26:59Z</time>
      </trkpt>
      <trkpt lat="44.92058" lon="5.22464">
        <ele>1139</ele>
        <time>2015-08-19T12:27:03Z</time>
      </trkpt>
      <trkpt lat="44.92065" lon="5.22472">
        <ele>1137</ele>
        <time>2015-08-19T12:27:13Z</time>
      </trkpt>
      <trkpt lat="44.92067" lon="5.22473">
        <ele>1137</ele>
        <time>2015-08-19T12:27:14Z</time>
      </trkpt>
      <trkpt lat="44.92072" lon="5.22478">
        <ele>1136</ele>
        <time>2015-08-19T12:27:19Z</time>
      </trkpt>
      <trkpt lat="44.92071" lon="5.2248">
        <ele>1136</ele>
        <time>2015-08-19T12:27:20Z</time>
      </trkpt>
      <trkpt lat="44.92071" lon="5.22483">
        <ele>1136</ele>
        <time>2015-08-19T12:27:22Z</time>
      </trkpt>
      <trkpt lat="44.92072" lon="5.22485">
        <ele>1135</ele>
        <time>2015-08-19T12:27:24Z</time>
      </trkpt>
      <trkpt lat="44.92073" lon="5.22488">
        <ele>1135</ele>
        <time>2015-08-19T12:27:26Z</time>
      </trkpt>
      <trkpt lat="44.92098" lon="5.22503">
        <ele>1126</ele>
        <time>2015-08-19T12:27:57Z</time>
      </trkpt>
      <trkpt lat="44.92132" lon="5.22515">
        <ele>1123</ele>
        <time>2015-08-19T12:28:28Z</time>
      </trkpt>
      <trkpt lat="44.92138" lon="5.22521">
        <ele>1123</ele>
        <time>2015-08-19T12:28:34Z</time>
      </trkpt>
      <trkpt lat="44.92142" lon="5.22523">
        <ele>1122</ele>
        <time>2015-08-19T12:28:38Z</time>
      </trkpt>
      <trkpt lat="44.92144" lon="5.22525">
        <ele>1122</ele>
        <time>2015-08-19T12:28:40Z</time>
      </trkpt>
      <trkpt lat="44.92148" lon="5.22527">
        <ele>1122</ele>
        <time>2015-08-19T12:28:43Z</time>
      </trkpt>
      <trkpt lat="44.9215" lon="5.22529">
        <ele>1122</ele>
        <time>2015-08-19T12:28:45Z</time>
      </trkpt>
      <trkpt lat="44.9215" lon="5.22531">
        <ele>1122</ele>
        <time>2015-08-19T12:28:48Z</time>
      </trkpt>
      <trkpt lat="44.92153" lon="5.22534">
        <ele>1121</ele>
        <time>2015-08-19T12:28:54Z</time>
      </trkpt>
      <trkpt lat="44.92153" lon="5.2254">
        <ele>1121</ele>
        <time>2015-08-19T12:28:57Z</time>
      </trkpt>
      <trkpt lat="44.92182" lon="5.22576">
        <ele>1114</ele>
        <time>2015-08-19T12:29:27Z</time>
      </trkpt>
      <trkpt lat="44.92184" lon="5.22578">
        <ele>1114</ele>
        <time>2015-08-19T12:29:29Z</time>
      </trkpt>
      <trkpt lat="44.92182" lon="5.22581">
        <ele>1114</ele>
        <time>2015-08-19T12:29:31Z</time>
      </trkpt>
      <trkpt lat="44.92182" lon="5.22583">
        <ele>1114</ele>
        <time>2015-08-19T12:29:34Z</time>
      </trkpt>
      <trkpt lat="44.92182" lon="5.22585">
        <ele>1109</ele>
        <time>2015-08-19T12:29:36Z</time>
      </trkpt>
      <trkpt lat="44.92182" lon="5.22587">
        <ele>1109</ele>
        <time>2015-08-19T12:29:38Z</time>
      </trkpt>
      <trkpt lat="44.92183" lon="5.22592">
        <ele>1109</ele>
        <time>2015-08-19T12:29:41Z</time>
      </trkpt>
      <trkpt lat="44.92182" lon="5.22599">
        <ele>1108</ele>
        <time>2015-08-19T12:29:50Z</time>
      </trkpt>
      <trkpt lat="44.92185" lon="5.22605">
        <ele>1108</ele>
        <time>2015-08-19T12:29:58Z</time>
      </trkpt>
      <trkpt lat="44.92186" lon="5.22612">
        <ele>1107</ele>
        <time>2015-08-19T12:30:03Z</time>
      </trkpt>
      <trkpt lat="44.92201" lon="5.22628">
        <ele>1106</ele>
        <time>2015-08-19T12:30:20Z</time>
      </trkpt>
      <trkpt lat="44.9221" lon="5.22629">
        <ele>1106</ele>
        <time>2015-08-19T12:30:27Z</time>
      </trkpt>
      <trkpt lat="44.92211" lon="5.22631">
        <ele>1106</ele>
        <time>2015-08-19T12:30:29Z</time>
      </trkpt>
      <trkpt lat="44.92217" lon="5.22634">
        <ele>1105</ele>
        <time>2015-08-19T12:30:35Z</time>
      </trkpt>
      <trkpt lat="44.92219" lon="5.22635">
        <ele>1105</ele>
        <time>2015-08-19T12:30:37Z</time>
      </trkpt>
      <trkpt lat="44.92224" lon="5.22642">
        <ele>1104</ele>
        <time>2015-08-19T12:30:45Z</time>
      </trkpt>
      <trkpt lat="44.92226" lon="5.22643">
        <ele>1104</ele>
        <time>2015-08-19T12:30:47Z</time>
      </trkpt>
      <trkpt lat="44.92227" lon="5.22646">
        <ele>1104</ele>
        <time>2015-08-19T12:30:50Z</time>
      </trkpt>
      <trkpt lat="44.92232" lon="5.2265">
        <ele>1103</ele>
        <time>2015-08-19T12:30:53Z</time>
      </trkpt>
      <trkpt lat="44.92232" lon="5.22653">
        <ele>1103</ele>
        <time>2015-08-19T12:30:56Z</time>
      </trkpt>
      <trkpt lat="44.92244" lon="5.22663">
        <ele>1099</ele>
        <time>2015-08-19T12:31:14Z</time>
      </trkpt>
      <trkpt lat="44.92245" lon="5.22665">
        <ele>1099</ele>
        <time>2015-08-19T12:31:15Z</time>
      </trkpt>
      <trkpt lat="44.92252" lon="5.22673">
        <ele>1095</ele>
        <time>2015-08-19T12:31:21Z</time>
      </trkpt>
      <trkpt lat="44.92253" lon="5.22678">
        <ele>1094</ele>
        <time>2015-08-19T12:31:24Z</time>
      </trkpt>
      <trkpt lat="44.9226" lon="5.22687">
        <ele>1091</ele>
        <time>2015-08-19T12:31:34Z</time>
      </trkpt>
      <trkpt lat="44.9226" lon="5.2269">
        <ele>1091</ele>
        <time>2015-08-19T12:31:36Z</time>
      </trkpt>
      <trkpt lat="44.92279" lon="5.22724">
        <ele>1087</ele>
        <time>2015-08-19T12:32:05Z</time>
      </trkpt>
      <trkpt lat="44.92279" lon="5.2273">
        <ele>1087</ele>
        <time>2015-08-19T12:32:09Z</time>
      </trkpt>
      <trkpt lat="44.92277" lon="5.22732">
        <ele>1087</ele>
        <time>2015-08-19T12:32:11Z</time>
      </trkpt>
      <trkpt lat="44.92281" lon="5.2275">
        <ele>1086</ele>
        <time>2015-08-19T12:32:29Z</time>
      </trkpt>
      <trkpt lat="44.92279" lon="5.22753">
        <ele>1079</ele>
        <time>2015-08-19T12:32:34Z</time>
      </trkpt>
      <trkpt lat="44.92278" lon="5.22761">
        <ele>1079</ele>
        <time>2015-08-19T12:32:41Z</time>
      </trkpt>
      <trkpt lat="44.92277" lon="5.22762">
        <ele>1079</ele>
        <time>2015-08-19T12:32:42Z</time>
      </trkpt>
      <trkpt lat="44.92277" lon="5.22767">
        <ele>1078</ele>
        <time>2015-08-19T12:32:49Z</time>
      </trkpt>
      <trkpt lat="44.92277" lon="5.22774">
        <ele>1078</ele>
        <time>2015-08-19T12:32:57Z</time>
      </trkpt>
      <trkpt lat="44.92269" lon="5.22796">
        <ele>1076</ele>
        <time>2015-08-19T12:33:26Z</time>
      </trkpt>
      <trkpt lat="44.92271" lon="5.22798">
        <ele>1075</ele>
        <time>2015-08-19T12:33:29Z</time>
      </trkpt>
      <trkpt lat="44.92271" lon="5.22801">
        <ele>1075</ele>
        <time>2015-08-19T12:33:31Z</time>
      </trkpt>
      <trkpt lat="44.92269" lon="5.22813">
        <ele>1074</ele>
        <time>2015-08-19T12:33:42Z</time>
      </trkpt>
      <trkpt lat="44.92271" lon="5.22817">
        <ele>1074</ele>
        <time>2015-08-19T12:33:49Z</time>
      </trkpt>
      <trkpt lat="44.9228" lon="5.22848">
        <ele>1065</ele>
        <time>2015-08-19T12:34:17Z</time>
      </trkpt>
      <trkpt lat="44.92278" lon="5.22854">
        <ele>1065</ele>
        <time>2015-08-19T12:34:22Z</time>
      </trkpt>
      <trkpt lat="44.92278" lon="5.22856">
        <ele>1065</ele>
        <time>2015-08-19T12:34:24Z</time>
      </trkpt>
      <trkpt lat="44.9227" lon="5.22889">
        <ele>1063</ele>
        <time>2015-08-19T12:34:49Z</time>
      </trkpt>
      <trkpt lat="44.92274" lon="5.22895">
        <ele>1063</ele>
        <time>2015-08-19T12:34:55Z</time>
      </trkpt>
      <trkpt lat="44.92274" lon="5.22906">
        <ele>1062</ele>
        <time>2015-08-19T12:35:03Z</time>
      </trkpt>
      <trkpt lat="44.92286" lon="5.2292">
        <ele>1056</ele>
        <time>2015-08-19T12:35:17Z</time>
      </trkpt>
      <trkpt lat="44.92288" lon="5.2292">
        <ele>1056</ele>
        <time>2015-08-19T12:35:19Z</time>
      </trkpt>
      <trkpt lat="44.92294" lon="5.22925">
        <ele>1056</ele>
        <time>2015-08-19T12:35:31Z</time>
      </trkpt>
      <trkpt lat="44.92302" lon="5.22941">
        <ele>1055</ele>
        <time>2015-08-19T12:35:43Z</time>
      </trkpt>
      <trkpt lat="44.92303" lon="5.22945">
        <ele>1055</ele>
        <time>2015-08-19T12:35:45Z</time>
      </trkpt>
      <trkpt lat="44.92305" lon="5.22946">
        <ele>1055</ele>
        <time>2015-08-19T12:35:46Z</time>
      </trkpt>
      <trkpt lat="44.92307" lon="5.22949">
        <ele>1055</ele>
        <time>2015-08-19T12:35:48Z</time>
      </trkpt>
      <trkpt lat="44.92305" lon="5.22954">
        <ele>1054</ele>
        <time>2015-08-19T12:35:51Z</time>
      </trkpt>
      <trkpt lat="44.9232" lon="5.22986">
        <ele>1051</ele>
        <time>2015-08-19T12:36:15Z</time>
      </trkpt>
      <trkpt lat="44.92319" lon="5.22995">
        <ele>1051</ele>
        <time>2015-08-19T12:36:21Z</time>
      </trkpt>
      <trkpt lat="44.92321" lon="5.22998">
        <ele>1050</ele>
        <time>2015-08-19T12:36:23Z</time>
      </trkpt>
      <trkpt lat="44.92322" lon="5.23003">
        <ele>1049</ele>
        <time>2015-08-19T12:36:26Z</time>
      </trkpt>
      <trkpt lat="44.92348" lon="5.23036">
        <ele>1043</ele>
        <time>2015-08-19T12:36:51Z</time>
      </trkpt>
      <trkpt lat="44.92345" lon="5.23038">
        <ele>1043</ele>
        <time>2015-08-19T12:36:52Z</time>
      </trkpt>
      <trkpt lat="44.92346" lon="5.23041">
        <ele>1043</ele>
        <time>2015-08-19T12:36:54Z</time>
      </trkpt>
      <trkpt lat="44.92349" lon="5.23041">
        <ele>1043</ele>
        <time>2015-08-19T12:36:55Z</time>
      </trkpt>
      <trkpt lat="44.92348" lon="5.23051">
        <ele>1043</ele>
        <time>2015-08-19T12:37:01Z</time>
      </trkpt>
      <trkpt lat="44.92351" lon="5.23053">
        <ele>1043</ele>
        <time>2015-08-19T12:37:03Z</time>
      </trkpt>
      <trkpt lat="44.92351" lon="5.23058">
        <ele>1043</ele>
        <time>2015-08-19T12:37:06Z</time>
      </trkpt>
      <trkpt lat="44.92368" lon="5.23089">
        <ele>1044</ele>
        <time>2015-08-19T12:37:30Z</time>
      </trkpt>
      <trkpt lat="44.92367" lon="5.23091">
        <ele>1045</ele>
        <time>2015-08-19T12:37:32Z</time>
      </trkpt>
      <trkpt lat="44.92374" lon="5.23105">
        <ele>1044</ele>
        <time>2015-08-19T12:37:42Z</time>
      </trkpt>
      <trkpt lat="44.92373" lon="5.23108">
        <ele>1044</ele>
        <time>2015-08-19T12:37:44Z</time>
      </trkpt>
      <trkpt lat="44.92375" lon="5.23109">
        <ele>1044</ele>
        <time>2015-08-19T12:37:45Z</time>
      </trkpt>
      <trkpt lat="44.92376" lon="5.23114">
        <ele>1044</ele>
        <time>2015-08-19T12:37:49Z</time>
      </trkpt>
      <trkpt lat="44.92381" lon="5.23119">
        <ele>1044</ele>
        <time>2015-08-19T12:37:54Z</time>
      </trkpt>
      <trkpt lat="44.92381" lon="5.23122">
        <ele>1044</ele>
        <time>2015-08-19T12:37:56Z</time>
      </trkpt>
      <trkpt lat="44.92385" lon="5.23126">
        <ele>1044</ele>
        <time>2015-08-19T12:37:59Z</time>
      </trkpt>
      <trkpt lat="44.92393" lon="5.2314">
        <ele>1044</ele>
        <time>2015-08-19T12:38:09Z</time>
      </trkpt>
      <trkpt lat="44.92396" lon="5.23144">
        <ele>1044</ele>
        <time>2015-08-19T12:38:12Z</time>
      </trkpt>
      <trkpt lat="44.92398" lon="5.23144">
        <ele>1044</ele>
        <time>2015-08-19T12:38:13Z</time>
      </trkpt>
      <trkpt lat="44.92408" lon="5.23165">
        <ele>1044</ele>
        <time>2015-08-19T12:38:28Z</time>
      </trkpt>
      <trkpt lat="44.92408" lon="5.2317">
        <ele>1044</ele>
        <time>2015-08-19T12:38:32Z</time>
      </trkpt>
      <trkpt lat="44.92408" lon="5.23172">
        <ele>1044</ele>
        <time>2015-08-19T12:38:33Z</time>
      </trkpt>
      <trkpt lat="44.92408" lon="5.23178">
        <ele>1045</ele>
        <time>2015-08-19T12:38:37Z</time>
      </trkpt>
      <trkpt lat="44.92407" lon="5.23179">
        <ele>1045</ele>
        <time>2015-08-19T12:38:38Z</time>
      </trkpt>
      <trkpt lat="44.92407" lon="5.23182">
        <ele>1045</ele>
        <time>2015-08-19T12:38:40Z</time>
      </trkpt>
      <trkpt lat="44.92406" lon="5.23232">
        <ele>1044</ele>
        <time>2015-08-19T12:39:11Z</time>
      </trkpt>
      <trkpt lat="44.92414" lon="5.23284">
        <ele>1046</ele>
        <time>2015-08-19T12:39:42Z</time>
      </trkpt>
      <trkpt lat="44.92424" lon="5.23334">
        <ele>1040</ele>
        <time>2015-08-19T12:40:12Z</time>
      </trkpt>
      <trkpt lat="44.92435" lon="5.23377">
        <ele>1037</ele>
        <time>2015-08-19T12:40:42Z</time>
      </trkpt>
      <trkpt lat="44.92443" lon="5.23391">
        <ele>1037</ele>
        <time>2015-08-19T12:40:53Z</time>
      </trkpt>
      <trkpt lat="44.92442" lon="5.23393">
        <ele>1037</ele>
        <time>2015-08-19T12:40:55Z</time>
      </trkpt>
      <trkpt lat="44.92444" lon="5.23396">
        <ele>1037</ele>
        <time>2015-08-19T12:40:57Z</time>
      </trkpt>
      <trkpt lat="44.92445" lon="5.23402">
        <ele>1037</ele>
        <time>2015-08-19T12:41:01Z</time>
      </trkpt>
      <trkpt lat="44.92447" lon="5.23404">
        <ele>1037</ele>
        <time>2015-08-19T12:41:03Z</time>
      </trkpt>
      <trkpt lat="44.92447" lon="5.23408">
        <ele>1037</ele>
        <time>2015-08-19T12:41:05Z</time>
      </trkpt>
      <trkpt lat="44.92456" lon="5.23418">
        <ele>1037</ele>
        <time>2015-08-19T12:41:14Z</time>
      </trkpt>
      <trkpt lat="44.92458" lon="5.23424">
        <ele>1037</ele>
        <time>2015-08-19T12:41:19Z</time>
      </trkpt>
      <trkpt lat="44.92481" lon="5.23459">
        <ele>1035</ele>
        <time>2015-08-19T12:41:51Z</time>
      </trkpt>
      <trkpt lat="44.9251" lon="5.23489">
        <ele>1020</ele>
        <time>2015-08-19T12:42:21Z</time>
      </trkpt>
      <trkpt lat="44.92519" lon="5.23503">
        <ele>1021</ele>
        <time>2015-08-19T12:42:34Z</time>
      </trkpt>
      <trkpt lat="44.9253" lon="5.23524">
        <ele>1020</ele>
        <time>2015-08-19T12:42:51Z</time>
      </trkpt>
      <trkpt lat="44.92531" lon="5.23528">
        <ele>1020</ele>
        <time>2015-08-19T12:42:54Z</time>
      </trkpt>
      <trkpt lat="44.92541" lon="5.23542">
        <ele>1020</ele>
        <time>2015-08-19T12:43:06Z</time>
      </trkpt>
      <trkpt lat="44.92546" lon="5.2355">
        <ele>1020</ele>
        <time>2015-08-19T12:43:12Z</time>
      </trkpt>
      <trkpt lat="44.92551" lon="5.23553">
        <ele>1019</ele>
        <time>2015-08-19T12:43:16Z</time>
      </trkpt>
      <trkpt lat="44.92574" lon="5.23583">
        <ele>1016</ele>
        <time>2015-08-19T12:43:46Z</time>
      </trkpt>
      <trkpt lat="44.9259" lon="5.23593">
        <ele>1012</ele>
        <time>2015-08-19T12:43:58Z</time>
      </trkpt>
      <trkpt lat="44.92593" lon="5.23598">
        <ele>1011</ele>
        <time>2015-08-19T12:44:02Z</time>
      </trkpt>
      <trkpt lat="44.92617" lon="5.23632">
        <ele>1009</ele>
        <time>2015-08-19T12:44:32Z</time>
      </trkpt>
      <trkpt lat="44.92638" lon="5.23658">
        <ele>1006</ele>
        <time>2015-08-19T12:44:53Z</time>
      </trkpt>
      <trkpt lat="44.92638" lon="5.2366">
        <ele>1006</ele>
        <time>2015-08-19T12:44:56Z</time>
      </trkpt>
      <trkpt lat="44.92644" lon="5.23668">
        <ele>1006</ele>
        <time>2015-08-19T12:45:00Z</time>
      </trkpt>
      <trkpt lat="44.92645" lon="5.23671">
        <ele>1006</ele>
        <time>2015-08-19T12:45:03Z</time>
      </trkpt>
      <trkpt lat="44.92653" lon="5.23679">
        <ele>1004</ele>
        <time>2015-08-19T12:45:12Z</time>
      </trkpt>
      <trkpt lat="44.92652" lon="5.23687">
        <ele>1006</ele>
        <time>2015-08-19T12:45:19Z</time>
      </trkpt>
      <trkpt lat="44.92657" lon="5.23691">
        <ele>1005</ele>
        <time>2015-08-19T12:45:24Z</time>
      </trkpt>
      <trkpt lat="44.9266" lon="5.23698">
        <ele>1006</ele>
        <time>2015-08-19T12:45:29Z</time>
      </trkpt>
      <trkpt lat="44.92669" lon="5.23717">
        <ele>988</ele>
        <time>2015-08-19T12:45:54Z</time>
      </trkpt>
      <trkpt lat="44.92672" lon="5.23717">
        <ele>988</ele>
        <time>2015-08-19T12:45:57Z</time>
      </trkpt>
      <trkpt lat="44.92679" lon="5.2373">
        <ele>988</ele>
        <time>2015-08-19T12:46:09Z</time>
      </trkpt>
      <trkpt lat="44.9268" lon="5.23733">
        <ele>988</ele>
        <time>2015-08-19T12:46:14Z</time>
      </trkpt>
      <trkpt lat="44.92683" lon="5.23734">
        <ele>988</ele>
        <time>2015-08-19T12:46:15Z</time>
      </trkpt>
      <trkpt lat="44.92693" lon="5.23781">
        <ele>983</ele>
        <time>2015-08-19T12:46:46Z</time>
      </trkpt>
      <trkpt lat="44.92691" lon="5.23783">
        <ele>983</ele>
        <time>2015-08-19T12:46:48Z</time>
      </trkpt>
      <trkpt lat="44.9269" lon="5.23787">
        <ele>982</ele>
        <time>2015-08-19T12:46:50Z</time>
      </trkpt>
      <trkpt lat="44.92691" lon="5.2379">
        <ele>982</ele>
        <time>2015-08-19T12:46:52Z</time>
      </trkpt>
      <trkpt lat="44.92683" lon="5.23836">
        <ele>983</ele>
        <time>2015-08-19T12:47:23Z</time>
      </trkpt>
      <trkpt lat="44.9268" lon="5.2387">
        <ele>981</ele>
        <time>2015-08-19T12:47:47Z</time>
      </trkpt>
      <trkpt lat="44.92683" lon="5.23874">
        <ele>981</ele>
        <time>2015-08-19T12:47:52Z</time>
      </trkpt>
      <trkpt lat="44.92683" lon="5.23878">
        <ele>981</ele>
        <time>2015-08-19T12:47:54Z</time>
      </trkpt>
      <trkpt lat="44.92686" lon="5.23882">
        <ele>981</ele>
        <time>2015-08-19T12:47:59Z</time>
      </trkpt>
      <trkpt lat="44.92686" lon="5.23887">
        <ele>981</ele>
        <time>2015-08-19T12:48:02Z</time>
      </trkpt>
      <trkpt lat="44.92701" lon="5.23896">
        <ele>980</ele>
        <time>2015-08-19T12:48:16Z</time>
      </trkpt>
      <trkpt lat="44.92701" lon="5.23903">
        <ele>980</ele>
        <time>2015-08-19T12:48:22Z</time>
      </trkpt>
      <trkpt lat="44.92706" lon="5.2391">
        <ele>979</ele>
        <time>2015-08-19T12:48:28Z</time>
      </trkpt>
      <trkpt lat="44.92707" lon="5.23915">
        <ele>979</ele>
        <time>2015-08-19T12:48:33Z</time>
      </trkpt>
      <trkpt lat="44.92707" lon="5.23919">
        <ele>979</ele>
        <time>2015-08-19T12:48:35Z</time>
      </trkpt>
      <trkpt lat="44.92708" lon="5.23922">
        <ele>979</ele>
        <time>2015-08-19T12:48:37Z</time>
      </trkpt>
      <trkpt lat="44.92708" lon="5.23925">
        <ele>979</ele>
        <time>2015-08-19T12:48:39Z</time>
      </trkpt>
      <trkpt lat="44.92711" lon="5.23932">
        <ele>979</ele>
        <time>2015-08-19T12:48:45Z</time>
      </trkpt>
      <trkpt lat="44.92709" lon="5.23936">
        <ele>979</ele>
        <time>2015-08-19T12:48:50Z</time>
      </trkpt>
      <trkpt lat="44.92723" lon="5.23974">
        <ele>977</ele>
        <time>2015-08-19T12:49:14Z</time>
      </trkpt>
      <trkpt lat="44.92737" lon="5.23987">
        <ele>974</ele>
        <time>2015-08-19T12:49:39Z</time>
      </trkpt>
      <trkpt lat="44.92739" lon="5.23986">
        <ele>974</ele>
        <time>2015-08-19T12:49:44Z</time>
      </trkpt>
      <trkpt lat="44.92741" lon="5.23986">
        <ele>973</ele>
        <time>2015-08-19T12:49:46Z</time>
      </trkpt>
      <trkpt lat="44.92743" lon="5.23987">
        <ele>973</ele>
        <time>2015-08-19T12:49:54Z</time>
      </trkpt>
      <trkpt lat="44.92746" lon="5.2399">
        <ele>972</ele>
        <time>2015-08-19T12:49:59Z</time>
      </trkpt>
      <trkpt lat="44.92746" lon="5.23994">
        <ele>971</ele>
        <time>2015-08-19T12:50:01Z</time>
      </trkpt>
      <trkpt lat="44.92751" lon="5.23996">
        <ele>967</ele>
        <time>2015-08-19T12:50:05Z</time>
      </trkpt>
      <trkpt lat="44.92754" lon="5.23999">
        <ele>966</ele>
        <time>2015-08-19T12:50:08Z</time>
      </trkpt>
      <trkpt lat="44.92758" lon="5.24007">
        <ele>963</ele>
        <time>2015-08-19T12:50:17Z</time>
      </trkpt>
      <trkpt lat="44.9276" lon="5.24009">
        <ele>962</ele>
        <time>2015-08-19T12:50:20Z</time>
      </trkpt>
      <trkpt lat="44.92761" lon="5.24017">
        <ele>961</ele>
        <time>2015-08-19T12:50:24Z</time>
      </trkpt>
      <trkpt lat="44.92762" lon="5.24019">
        <ele>960</ele>
        <time>2015-08-19T12:50:26Z</time>
      </trkpt>
      <trkpt lat="44.92773" lon="5.24036">
        <ele>957</ele>
        <time>2015-08-19T12:50:44Z</time>
      </trkpt>
      <trkpt lat="44.92777" lon="5.24035">
        <ele>956</ele>
        <time>2015-08-19T12:50:48Z</time>
      </trkpt>
      <trkpt lat="44.92805" lon="5.24024">
        <ele>954</ele>
        <time>2015-08-19T12:51:15Z</time>
      </trkpt>
      <trkpt lat="44.92807" lon="5.24029">
        <ele>953</ele>
        <time>2015-08-19T12:51:18Z</time>
      </trkpt>
      <trkpt lat="44.92805" lon="5.24038">
        <ele>953</ele>
        <time>2015-08-19T12:51:24Z</time>
      </trkpt>
      <trkpt lat="44.92791" lon="5.24078">
        <ele>953</ele>
        <time>2015-08-19T12:51:54Z</time>
      </trkpt>
      <trkpt lat="44.92803" lon="5.2412">
        <ele>951</ele>
        <time>2015-08-19T12:52:24Z</time>
      </trkpt>
      <trkpt lat="44.92805" lon="5.24131">
        <ele>950</ele>
        <time>2015-08-19T12:52:31Z</time>
      </trkpt>
      <trkpt lat="44.92828" lon="5.24156">
        <ele>949</ele>
        <time>2015-08-19T12:52:55Z</time>
      </trkpt>
      <trkpt lat="44.9286" lon="5.24175">
        <ele>947</ele>
        <time>2015-08-19T12:53:25Z</time>
      </trkpt>
      <trkpt lat="44.92896" lon="5.2419">
        <ele>944</ele>
        <time>2015-08-19T12:53:55Z</time>
      </trkpt>
      <trkpt lat="44.92927" lon="5.24207">
        <ele>940</ele>
        <time>2015-08-19T12:54:25Z</time>
      </trkpt>
      <trkpt lat="44.9296" lon="5.24224">
        <ele>941</ele>
        <time>2015-08-19T12:54:55Z</time>
      </trkpt>
      <trkpt lat="44.92998" lon="5.24218">
        <ele>940</ele>
        <time>2015-08-19T12:55:26Z</time>
      </trkpt>
      <trkpt lat="44.93032" lon="5.24228">
        <ele>939</ele>
        <time>2015-08-19T12:55:56Z</time>
      </trkpt>
      <trkpt lat="44.9307" lon="5.2423">
        <ele>939</ele>
        <time>2015-08-19T12:56:26Z</time>
      </trkpt>
      <trkpt lat="44.93101" lon="5.24227">
        <ele>936</ele>
        <time>2015-08-19T12:56:54Z</time>
      </trkpt>
      <trkpt lat="44.93101" lon="5.24225">
        <ele>936</ele>
        <time>2015-08-19T12:58:15Z</time>
      </trkpt>
      <trkpt lat="44.93104" lon="5.24223">
        <ele>936</ele>
        <time>2015-08-19T12:58:52Z</time>
      </trkpt>
      <trkpt lat="44.93108" lon="5.24223">
        <ele>936</ele>
        <time>2015-08-19T12:58:55Z</time>
      </trkpt>
      <trkpt lat="44.9311" lon="5.24226">
        <ele>936</ele>
        <time>2015-08-19T12:58:57Z</time>
      </trkpt>
      <trkpt lat="44.93125" lon="5.24233">
        <ele>935</ele>
        <time>2015-08-19T12:59:09Z</time>
      </trkpt>
      <trkpt lat="44.93129" lon="5.24244">
        <ele>935</ele>
        <time>2015-08-19T12:59:16Z</time>
      </trkpt>
      <trkpt lat="44.93131" lon="5.24245">
        <ele>935</ele>
        <time>2015-08-19T12:59:17Z</time>
      </trkpt>
      <trkpt lat="44.93135" lon="5.24256">
        <ele>936</ele>
        <time>2015-08-19T12:59:24Z</time>
      </trkpt>
      <trkpt lat="44.93134" lon="5.24259">
        <ele>936</ele>
        <time>2015-08-19T12:59:45Z</time>
      </trkpt>
      <trkpt lat="44.93147" lon="5.24303">
        <ele>935</ele>
        <time>2015-08-19T13:00:16Z</time>
      </trkpt>
      <trkpt lat="44.93163" lon="5.24318">
        <ele>934</ele>
        <time>2015-08-19T13:00:34Z</time>
      </trkpt>
      <trkpt lat="44.93166" lon="5.24319">
        <ele>934</ele>
        <time>2015-08-19T13:00:36Z</time>
      </trkpt>
      <trkpt lat="44.9317" lon="5.24323">
        <ele>931</ele>
        <time>2015-08-19T13:00:39Z</time>
      </trkpt>
      <trkpt lat="44.93174" lon="5.24323">
        <ele>931</ele>
        <time>2015-08-19T13:00:42Z</time>
      </trkpt>
      <trkpt lat="44.93175" lon="5.24322">
        <ele>930</ele>
        <time>2015-08-19T13:00:50Z</time>
      </trkpt>
      <trkpt lat="44.93186" lon="5.24327">
        <ele>930</ele>
        <time>2015-08-19T13:01:16Z</time>
      </trkpt>
      <trkpt lat="44.93188" lon="5.24331">
        <ele>930</ele>
        <time>2015-08-19T13:01:19Z</time>
      </trkpt>
      <trkpt lat="44.93192" lon="5.24334">
        <ele>928</ele>
        <time>2015-08-19T13:01:24Z</time>
      </trkpt>
      <trkpt lat="44.93192" lon="5.24336">
        <ele>928</ele>
        <time>2015-08-19T13:01:26Z</time>
      </trkpt>
      <trkpt lat="44.93198" lon="5.24342">
        <ele>928</ele>
        <time>2015-08-19T13:01:32Z</time>
      </trkpt>
      <trkpt lat="44.9321" lon="5.24369">
        <ele>927</ele>
        <time>2015-08-19T13:01:53Z</time>
      </trkpt>
      <trkpt lat="44.93216" lon="5.24369">
        <ele>926</ele>
        <time>2015-08-19T13:01:57Z</time>
      </trkpt>
      <trkpt lat="44.93247" lon="5.24392">
        <ele>925</ele>
        <time>2015-08-19T13:02:28Z</time>
      </trkpt>
      <trkpt lat="44.93281" lon="5.2441">
        <ele>917</ele>
        <time>2015-08-19T13:02:59Z</time>
      </trkpt>
      <trkpt lat="44.93311" lon="5.24438">
        <ele>914</ele>
        <time>2015-08-19T13:03:29Z</time>
      </trkpt>
      <trkpt lat="44.93344" lon="5.24455">
        <ele>906</ele>
        <time>2015-08-19T13:03:59Z</time>
      </trkpt>
      <trkpt lat="44.93357" lon="5.24466">
        <ele>906</ele>
        <time>2015-08-19T13:04:13Z</time>
      </trkpt>
      <trkpt lat="44.93364" lon="5.2448">
        <ele>905</ele>
        <time>2015-08-19T13:04:22Z</time>
      </trkpt>
      <trkpt lat="44.93366" lon="5.2448">
        <ele>905</ele>
        <time>2015-08-19T13:04:24Z</time>
      </trkpt>
      <trkpt lat="44.93391" lon="5.24507">
        <ele>904</ele>
        <time>2015-08-19T13:04:48Z</time>
      </trkpt>
      <trkpt lat="44.93391" lon="5.24511">
        <ele>904</ele>
        <time>2015-08-19T13:04:50Z</time>
      </trkpt>
      <trkpt lat="44.93411" lon="5.24549">
        <ele>906</ele>
        <time>2015-08-19T13:05:21Z</time>
      </trkpt>
      <trkpt lat="44.93411" lon="5.24551">
        <ele>906</ele>
        <time>2015-08-19T13:05:22Z</time>
      </trkpt>
      <trkpt lat="44.93432" lon="5.2459">
        <ele>903</ele>
        <time>2015-08-19T13:05:52Z</time>
      </trkpt>
      <trkpt lat="44.93453" lon="5.24637">
        <ele>902</ele>
        <time>2015-08-19T13:06:23Z</time>
      </trkpt>
      <trkpt lat="44.93481" lon="5.24664">
        <ele>900</ele>
        <time>2015-08-19T13:06:54Z</time>
      </trkpt>
      <trkpt lat="44.93485" lon="5.24668">
        <ele>901</ele>
        <time>2015-08-19T13:06:59Z</time>
      </trkpt>
      <trkpt lat="44.93486" lon="5.24673">
        <ele>900</ele>
        <time>2015-08-19T13:07:03Z</time>
      </trkpt>
      <trkpt lat="44.93493" lon="5.24678">
        <ele>900</ele>
        <time>2015-08-19T13:07:16Z</time>
      </trkpt>
      <trkpt lat="44.93495" lon="5.24678">
        <ele>900</ele>
        <time>2015-08-19T13:07:22Z</time>
      </trkpt>
      <trkpt lat="44.93498" lon="5.24677">
        <ele>900</ele>
        <time>2015-08-19T13:07:31Z</time>
      </trkpt>
      <trkpt lat="44.93508" lon="5.24683">
        <ele>890</ele>
        <time>2015-08-19T13:07:55Z</time>
      </trkpt>
      <trkpt lat="44.93531" lon="5.24709">
        <ele>884</ele>
        <time>2015-08-19T13:08:26Z</time>
      </trkpt>
      <trkpt lat="44.93532" lon="5.2471">
        <ele>884</ele>
        <time>2015-08-19T13:08:31Z</time>
      </trkpt>
      <trkpt lat="44.93531" lon="5.24713">
        <ele>884</ele>
        <time>2015-08-19T13:08:32Z</time>
      </trkpt>
      <trkpt lat="44.93536" lon="5.24723">
        <ele>884</ele>
        <time>2015-08-19T13:08:38Z</time>
      </trkpt>
      <trkpt lat="44.93535" lon="5.24726">
        <ele>884</ele>
        <time>2015-08-19T13:08:40Z</time>
      </trkpt>
      <trkpt lat="44.93535" lon="5.24729">
        <ele>884</ele>
        <time>2015-08-19T13:08:42Z</time>
      </trkpt>
      <trkpt lat="44.93535" lon="5.24735">
        <ele>884</ele>
        <time>2015-08-19T13:08:46Z</time>
      </trkpt>
      <trkpt lat="44.93536" lon="5.24737">
        <ele>884</ele>
        <time>2015-08-19T13:08:48Z</time>
      </trkpt>
      <trkpt lat="44.93537" lon="5.24743">
        <ele>884</ele>
        <time>2015-08-19T13:08:53Z</time>
      </trkpt>
      <trkpt lat="44.93538" lon="5.24744">
        <ele>884</ele>
        <time>2015-08-19T13:08:55Z</time>
      </trkpt>
      <trkpt lat="44.93539" lon="5.24746">
        <ele>883</ele>
        <time>2015-08-19T13:08:57Z</time>
      </trkpt>
      <trkpt lat="44.93541" lon="5.24754">
        <ele>879</ele>
        <time>2015-08-19T13:09:03Z</time>
      </trkpt>
      <trkpt lat="44.93541" lon="5.24759">
        <ele>878</ele>
        <time>2015-08-19T13:09:07Z</time>
      </trkpt>
      <trkpt lat="44.9354" lon="5.24764">
        <ele>878</ele>
        <time>2015-08-19T13:09:11Z</time>
      </trkpt>
      <trkpt lat="44.93539" lon="5.24766">
        <ele>878</ele>
        <time>2015-08-19T13:09:12Z</time>
      </trkpt>
      <trkpt lat="44.9352" lon="5.24798">
        <ele>877</ele>
        <time>2015-08-19T13:09:42Z</time>
      </trkpt>
      <trkpt lat="44.93518" lon="5.24799">
        <ele>877</ele>
        <time>2015-08-19T13:09:44Z</time>
      </trkpt>
      <trkpt lat="44.93515" lon="5.24803">
        <ele>877</ele>
        <time>2015-08-19T13:09:47Z</time>
      </trkpt>
      <trkpt lat="44.93491" lon="5.24821">
        <ele>883</ele>
        <time>2015-08-19T13:10:18Z</time>
      </trkpt>
      <trkpt lat="44.93493" lon="5.24824">
        <ele>882</ele>
        <time>2015-08-19T13:10:29Z</time>
      </trkpt>
      <trkpt lat="44.93495" lon="5.24824">
        <ele>882</ele>
        <time>2015-08-19T13:10:31Z</time>
      </trkpt>
      <trkpt lat="44.93514" lon="5.24826">
        <ele>876</ele>
        <time>2015-08-19T13:10:49Z</time>
      </trkpt>
      <trkpt lat="44.93515" lon="5.24826">
        <ele>876</ele>
        <time>2015-08-19T13:10:51Z</time>
      </trkpt>
      <trkpt lat="44.93524" lon="5.24826">
        <ele>875</ele>
        <time>2015-08-19T13:11:00Z</time>
      </trkpt>
      <trkpt lat="44.93549" lon="5.24838">
        <ele>856</ele>
        <time>2015-08-19T13:11:31Z</time>
      </trkpt>
      <trkpt lat="44.93551" lon="5.24839">
        <ele>855</ele>
        <time>2015-08-19T13:11:35Z</time>
      </trkpt>
      <trkpt lat="44.93551" lon="5.24842">
        <ele>855</ele>
        <time>2015-08-19T13:11:38Z</time>
      </trkpt>
      <trkpt lat="44.9355" lon="5.24844">
        <ele>855</ele>
        <time>2015-08-19T13:11:44Z</time>
      </trkpt>
      <trkpt lat="44.93548" lon="5.24846">
        <ele>855</ele>
        <time>2015-08-19T13:11:47Z</time>
      </trkpt>
      <trkpt lat="44.93544" lon="5.24851">
        <ele>854</ele>
        <time>2015-08-19T13:11:56Z</time>
      </trkpt>
      <trkpt lat="44.93543" lon="5.24851">
        <ele>854</ele>
        <time>2015-08-19T13:11:58Z</time>
      </trkpt>
      <trkpt lat="44.9354" lon="5.24854">
        <ele>854</ele>
        <time>2015-08-19T13:12:03Z</time>
      </trkpt>
      <trkpt lat="44.93537" lon="5.24854">
        <ele>855</ele>
        <time>2015-08-19T13:12:06Z</time>
      </trkpt>
      <trkpt lat="44.93536" lon="5.24854">
        <ele>855</ele>
        <time>2015-08-19T13:12:09Z</time>
      </trkpt>
      <trkpt lat="44.93534" lon="5.24856">
        <ele>855</ele>
        <time>2015-08-19T13:12:11Z</time>
      </trkpt>
      <trkpt lat="44.93531" lon="5.24859">
        <ele>855</ele>
        <time>2015-08-19T13:12:18Z</time>
      </trkpt>
      <trkpt lat="44.93529" lon="5.24858">
        <ele>855</ele>
        <time>2015-08-19T13:12:21Z</time>
      </trkpt>
      <trkpt lat="44.93522" lon="5.24859">
        <ele>856</ele>
        <time>2015-08-19T13:12:28Z</time>
      </trkpt>
      <trkpt lat="44.93516" lon="5.24864">
        <ele>855</ele>
        <time>2015-08-19T13:12:34Z</time>
      </trkpt>
      <trkpt lat="44.93496" lon="5.24871">
        <ele>862</ele>
        <time>2015-08-19T13:12:56Z</time>
      </trkpt>
      <trkpt lat="44.93495" lon="5.24873">
        <ele>861</ele>
        <time>2015-08-19T13:12:57Z</time>
      </trkpt>
      <trkpt lat="44.93491" lon="5.24874">
        <ele>861</ele>
        <time>2015-08-19T13:13:03Z</time>
      </trkpt>
      <trkpt lat="44.93489" lon="5.24876">
        <ele>861</ele>
        <time>2015-08-19T13:13:05Z</time>
      </trkpt>
      <trkpt lat="44.93486" lon="5.24877">
        <ele>861</ele>
        <time>2015-08-19T13:13:09Z</time>
      </trkpt>
      <trkpt lat="44.93479" lon="5.24883">
        <ele>859</ele>
        <time>2015-08-19T13:13:16Z</time>
      </trkpt>
      <trkpt lat="44.93476" lon="5.24882">
        <ele>860</ele>
        <time>2015-08-19T13:13:21Z</time>
      </trkpt>
      <trkpt lat="44.9345" lon="5.24904">
        <ele>858</ele>
        <time>2015-08-19T13:13:52Z</time>
      </trkpt>
      <trkpt lat="44.93447" lon="5.24905">
        <ele>858</ele>
        <time>2015-08-19T13:13:55Z</time>
      </trkpt>
      <trkpt lat="44.93445" lon="5.24905">
        <ele>858</ele>
        <time>2015-08-19T13:13:58Z</time>
      </trkpt>
      <trkpt lat="44.93418" lon="5.24926">
        <ele>842</ele>
        <time>2015-08-19T13:14:30Z</time>
      </trkpt>
      <trkpt lat="44.93413" lon="5.2493">
        <ele>853</ele>
        <time>2015-08-19T13:14:36Z</time>
      </trkpt>
      <trkpt lat="44.93404" lon="5.24944">
        <ele>852</ele>
        <time>2015-08-19T13:14:52Z</time>
      </trkpt>
      <trkpt lat="44.93403" lon="5.24946">
        <ele>852</ele>
        <time>2015-08-19T13:15:07Z</time>
      </trkpt>
      <trkpt lat="44.93401" lon="5.24947">
        <ele>852</ele>
        <time>2015-08-19T13:15:12Z</time>
      </trkpt>
      <trkpt lat="44.93401" lon="5.24951">
        <ele>852</ele>
        <time>2015-08-19T13:15:22Z</time>
      </trkpt>
      <trkpt lat="44.93394" lon="5.2496">
        <ele>851</ele>
        <time>2015-08-19T13:15:30Z</time>
      </trkpt>
      <trkpt lat="44.93392" lon="5.24962">
        <ele>851</ele>
        <time>2015-08-19T13:15:34Z</time>
      </trkpt>
      <trkpt lat="44.93389" lon="5.24963">
        <ele>852</ele>
        <time>2015-08-19T13:15:36Z</time>
      </trkpt>
      <trkpt lat="44.93381" lon="5.24975">
        <ele>852</ele>
        <time>2015-08-19T13:15:47Z</time>
      </trkpt>
      <trkpt lat="44.93379" lon="5.24988">
        <ele>851</ele>
        <time>2015-08-19T13:15:52Z</time>
      </trkpt>
      <trkpt lat="44.93377" lon="5.2499">
        <ele>851</ele>
        <time>2015-08-19T13:15:58Z</time>
      </trkpt>
      <trkpt lat="44.93376" lon="5.24996">
        <ele>851</ele>
        <time>2015-08-19T13:16:00Z</time>
      </trkpt>
      <trkpt lat="44.93373" lon="5.25">
        <ele>852</ele>
        <time>2015-08-19T13:16:02Z</time>
      </trkpt>
      <trkpt lat="44.93367" lon="5.25004">
        <ele>835</ele>
        <time>2015-08-19T13:16:12Z</time>
      </trkpt>
      <trkpt lat="44.93364" lon="5.25011">
        <ele>836</ele>
        <time>2015-08-19T13:16:20Z</time>
      </trkpt>
      <trkpt lat="44.93363" lon="5.25018">
        <ele>834</ele>
        <time>2015-08-19T13:16:26Z</time>
      </trkpt>
      <trkpt lat="44.9336" lon="5.25023">
        <ele>835</ele>
        <time>2015-08-19T13:16:33Z</time>
      </trkpt>
      <trkpt lat="44.93359" lon="5.2503">
        <ele>832</ele>
        <time>2015-08-19T13:16:37Z</time>
      </trkpt>
      <trkpt lat="44.93356" lon="5.25036">
        <ele>832</ele>
        <time>2015-08-19T13:16:45Z</time>
      </trkpt>
      <trkpt lat="44.93357" lon="5.25041">
        <ele>830</ele>
        <time>2015-08-19T13:16:48Z</time>
      </trkpt>
      <trkpt lat="44.93356" lon="5.25049">
        <ele>828</ele>
        <time>2015-08-19T13:16:59Z</time>
      </trkpt>
      <trkpt lat="44.93353" lon="5.25061">
        <ele>827</ele>
        <time>2015-08-19T13:17:14Z</time>
      </trkpt>
      <trkpt lat="44.93354" lon="5.2507">
        <ele>826</ele>
        <time>2015-08-19T13:17:28Z</time>
      </trkpt>
      <trkpt lat="44.93355" lon="5.25073">
        <ele>825</ele>
        <time>2015-08-19T13:17:29Z</time>
      </trkpt>
      <trkpt lat="44.93354" lon="5.25078">
        <ele>826</ele>
        <time>2015-08-19T13:17:33Z</time>
      </trkpt>
      <trkpt lat="44.93355" lon="5.25082">
        <ele>825</ele>
        <time>2015-08-19T13:17:35Z</time>
      </trkpt>
      <trkpt lat="44.93354" lon="5.25085">
        <ele>809</ele>
        <time>2015-08-19T13:17:39Z</time>
      </trkpt>
      <trkpt lat="44.93354" lon="5.25088">
        <ele>809</ele>
        <time>2015-08-19T13:17:46Z</time>
      </trkpt>
      <trkpt lat="44.93353" lon="5.25091">
        <ele>809</ele>
        <time>2015-08-19T13:17:50Z</time>
      </trkpt>
      <trkpt lat="44.93348" lon="5.25096">
        <ele>810</ele>
        <time>2015-08-19T13:17:59Z</time>
      </trkpt>
      <trkpt lat="44.93346" lon="5.25097">
        <ele>811</ele>
        <time>2015-08-19T13:18:01Z</time>
      </trkpt>
      <trkpt lat="44.93344" lon="5.25099">
        <ele>811</ele>
        <time>2015-08-19T13:18:04Z</time>
      </trkpt>
      <trkpt lat="44.93341" lon="5.25105">
        <ele>808</ele>
        <time>2015-08-19T13:18:08Z</time>
      </trkpt>
      <trkpt lat="44.93338" lon="5.25105">
        <ele>809</ele>
        <time>2015-08-19T13:18:11Z</time>
      </trkpt>
      <trkpt lat="44.93331" lon="5.25117">
        <ele>828</ele>
        <time>2015-08-19T13:18:21Z</time>
      </trkpt>
      <trkpt lat="44.93333" lon="5.25126">
        <ele>826</ele>
        <time>2015-08-19T13:18:22Z</time>
      </trkpt>
      <trkpt lat="44.93332" lon="5.25141">
        <ele>820</ele>
        <time>2015-08-19T13:18:33Z</time>
      </trkpt>
      <trkpt lat="44.93335" lon="5.25141">
        <ele>798</ele>
        <time>2015-08-19T13:18:39Z</time>
      </trkpt>
      <trkpt lat="44.93337" lon="5.25138">
        <ele>798</ele>
        <time>2015-08-19T13:18:42Z</time>
      </trkpt>
      <trkpt lat="44.93342" lon="5.25138">
        <ele>798</ele>
        <time>2015-08-19T13:18:53Z</time>
      </trkpt>
      <trkpt lat="44.93363" lon="5.25117">
        <ele>797</ele>
        <time>2015-08-19T13:19:23Z</time>
      </trkpt>
      <trkpt lat="44.93387" lon="5.25099">
        <ele>791</ele>
        <time>2015-08-19T13:19:51Z</time>
      </trkpt>
      <trkpt lat="44.93386" lon="5.25104">
        <ele>791</ele>
        <time>2015-08-19T13:20:06Z</time>
      </trkpt>
      <trkpt lat="44.93383" lon="5.25112">
        <ele>792</ele>
        <time>2015-08-19T13:20:13Z</time>
      </trkpt>
      <trkpt lat="44.93382" lon="5.25119">
        <ele>791</ele>
        <time>2015-08-19T13:20:17Z</time>
      </trkpt>
      <trkpt lat="44.93378" lon="5.25123">
        <ele>791</ele>
        <time>2015-08-19T13:20:21Z</time>
      </trkpt>
      <trkpt lat="44.93373" lon="5.25137">
        <ele>791</ele>
        <time>2015-08-19T13:20:33Z</time>
      </trkpt>
      <trkpt lat="44.93373" lon="5.25142">
        <ele>790</ele>
        <time>2015-08-19T13:20:38Z</time>
      </trkpt>
      <trkpt lat="44.93368" lon="5.2515">
        <ele>791</ele>
        <time>2015-08-19T13:20:46Z</time>
      </trkpt>
      <trkpt lat="44.93366" lon="5.25151">
        <ele>791</ele>
        <time>2015-08-19T13:20:49Z</time>
      </trkpt>
      <trkpt lat="44.93365" lon="5.25154">
        <ele>791</ele>
        <time>2015-08-19T13:20:51Z</time>
      </trkpt>
      <trkpt lat="44.93363" lon="5.25162">
        <ele>792</ele>
        <time>2015-08-19T13:20:59Z</time>
      </trkpt>
      <trkpt lat="44.93363" lon="5.25164">
        <ele>791</ele>
        <time>2015-08-19T13:21:00Z</time>
      </trkpt>
      <trkpt lat="44.93362" lon="5.25166">
        <ele>792</ele>
        <time>2015-08-19T13:21:03Z</time>
      </trkpt>
      <trkpt lat="44.93361" lon="5.25169">
        <ele>777</ele>
        <time>2015-08-19T13:21:06Z</time>
      </trkpt>
      <trkpt lat="44.93358" lon="5.25179">
        <ele>777</ele>
        <time>2015-08-19T13:21:12Z</time>
      </trkpt>
      <trkpt lat="44.93358" lon="5.25182">
        <ele>776</ele>
        <time>2015-08-19T13:21:14Z</time>
      </trkpt>
      <trkpt lat="44.93355" lon="5.25184">
        <ele>777</ele>
        <time>2015-08-19T13:21:16Z</time>
      </trkpt>
      <trkpt lat="44.93354" lon="5.25191">
        <ele>775</ele>
        <time>2015-08-19T13:21:20Z</time>
      </trkpt>
      <trkpt lat="44.9335" lon="5.25196">
        <ele>775</ele>
        <time>2015-08-19T13:21:25Z</time>
      </trkpt>
      <trkpt lat="44.93349" lon="5.25201">
        <ele>774</ele>
        <time>2015-08-19T13:21:32Z</time>
      </trkpt>
      <trkpt lat="44.93347" lon="5.25203">
        <ele>774</ele>
        <time>2015-08-19T13:21:34Z</time>
      </trkpt>
      <trkpt lat="44.93343" lon="5.25213">
        <ele>772</ele>
        <time>2015-08-19T13:21:39Z</time>
      </trkpt>
      <trkpt lat="44.9334" lon="5.25216">
        <ele>772</ele>
        <time>2015-08-19T13:21:44Z</time>
      </trkpt>
      <trkpt lat="44.93341" lon="5.25222">
        <ele>771</ele>
        <time>2015-08-19T13:21:56Z</time>
      </trkpt>
      <trkpt lat="44.9334" lon="5.25233">
        <ele>771</ele>
        <time>2015-08-19T13:22:04Z</time>
      </trkpt>
      <trkpt lat="44.93343" lon="5.2524">
        <ele>771</ele>
        <time>2015-08-19T13:22:10Z</time>
      </trkpt>
      <trkpt lat="44.9335" lon="5.25259">
        <ele>759</ele>
        <time>2015-08-19T13:22:29Z</time>
      </trkpt>
      <trkpt lat="44.93349" lon="5.25263">
        <ele>758</ele>
        <time>2015-08-19T13:22:32Z</time>
      </trkpt>
      <trkpt lat="44.93343" lon="5.25274">
        <ele>756</ele>
        <time>2015-08-19T13:22:45Z</time>
      </trkpt>
      <trkpt lat="44.93343" lon="5.25279">
        <ele>755</ele>
        <time>2015-08-19T13:22:47Z</time>
      </trkpt>
      <trkpt lat="44.9334" lon="5.25282">
        <ele>754</ele>
        <time>2015-08-19T13:22:50Z</time>
      </trkpt>
      <trkpt lat="44.93337" lon="5.25289">
        <ele>753</ele>
        <time>2015-08-19T13:22:55Z</time>
      </trkpt>
      <trkpt lat="44.93337" lon="5.25294">
        <ele>753</ele>
        <time>2015-08-19T13:22:56Z</time>
      </trkpt>
      <trkpt lat="44.93333" lon="5.25335">
        <ele>758</ele>
        <time>2015-08-19T13:23:23Z</time>
      </trkpt>
      <trkpt lat="44.93332" lon="5.25337">
        <ele>760</ele>
        <time>2015-08-19T13:23:32Z</time>
      </trkpt>
      <trkpt lat="44.93331" lon="5.2534">
        <ele>762</ele>
        <time>2015-08-19T13:23:49Z</time>
      </trkpt>
      <trkpt lat="44.93329" lon="5.25341">
        <ele>763</ele>
        <time>2015-08-19T13:24:33Z</time>
      </trkpt>
      <trkpt lat="44.93332" lon="5.25343">
        <ele>763</ele>
        <time>2015-08-19T13:25:34Z</time>
      </trkpt>
      <trkpt lat="44.93332" lon="5.25348">
        <ele>764</ele>
        <time>2015-08-19T13:25:56Z</time>
      </trkpt>
      <trkpt lat="44.93332" lon="5.2535">
        <ele>765</ele>
        <time>2015-08-19T13:25:58Z</time>
      </trkpt>
      <trkpt lat="44.93331" lon="5.25354">
        <ele>766</ele>
        <time>2015-08-19T13:26:05Z</time>
      </trkpt>
      <trkpt lat="44.93329" lon="5.25359">
        <ele>767</ele>
        <time>2015-08-19T13:26:13Z</time>
      </trkpt>
      <trkpt lat="44.93327" lon="5.25367">
        <ele>767</ele>
        <time>2015-08-19T13:26:16Z</time>
      </trkpt>
      <trkpt lat="44.93328" lon="5.25412">
        <ele>751</ele>
        <time>2015-08-19T13:26:48Z</time>
      </trkpt>
      <trkpt lat="44.93333" lon="5.25438">
        <ele>747</ele>
        <time>2015-08-19T13:27:06Z</time>
      </trkpt>
      <trkpt lat="44.93335" lon="5.25447">
        <ele>725</ele>
        <time>2015-08-19T13:27:16Z</time>
      </trkpt>
      <trkpt lat="44.93333" lon="5.25452">
        <ele>747</ele>
        <time>2015-08-19T13:27:21Z</time>
      </trkpt>
      <trkpt lat="44.9333" lon="5.25455">
        <ele>746</ele>
        <time>2015-08-19T13:27:26Z</time>
      </trkpt>
      <trkpt lat="44.93331" lon="5.25459">
        <ele>746</ele>
        <time>2015-08-19T13:27:27Z</time>
      </trkpt>
      <trkpt lat="44.93322" lon="5.25476">
        <ele>742</ele>
        <time>2015-08-19T13:27:43Z</time>
      </trkpt>
      <trkpt lat="44.93323" lon="5.25481">
        <ele>741</ele>
        <time>2015-08-19T13:27:44Z</time>
      </trkpt>
      <trkpt lat="44.93319" lon="5.25499">
        <ele>737</ele>
        <time>2015-08-19T13:27:52Z</time>
      </trkpt>
      <trkpt lat="44.93317" lon="5.25506">
        <ele>726</ele>
        <time>2015-08-19T13:27:54Z</time>
      </trkpt>
      <trkpt lat="44.93317" lon="5.25512">
        <ele>725</ele>
        <time>2015-08-19T13:27:59Z</time>
      </trkpt>
      <trkpt lat="44.93309" lon="5.25526">
        <ele>725</ele>
        <time>2015-08-19T13:28:16Z</time>
      </trkpt>
      <trkpt lat="44.9331" lon="5.25528">
        <ele>724</ele>
        <time>2015-08-19T13:28:17Z</time>
      </trkpt>
      <trkpt lat="44.93309" lon="5.25531">
        <ele>724</ele>
        <time>2015-08-19T13:28:20Z</time>
      </trkpt>
      <trkpt lat="44.93306" lon="5.25533">
        <ele>724</ele>
        <time>2015-08-19T13:28:22Z</time>
      </trkpt>
      <trkpt lat="44.933" lon="5.25544">
        <ele>723</ele>
        <time>2015-08-19T13:28:31Z</time>
      </trkpt>
      <trkpt lat="44.93298" lon="5.25558">
        <ele>721</ele>
        <time>2015-08-19T13:28:37Z</time>
      </trkpt>
      <trkpt lat="44.93295" lon="5.2556">
        <ele>721</ele>
        <time>2015-08-19T13:28:39Z</time>
      </trkpt>
      <trkpt lat="44.93294" lon="5.25563">
        <ele>721</ele>
        <time>2015-08-19T13:28:41Z</time>
      </trkpt>
      <trkpt lat="44.93291" lon="5.25563">
        <ele>721</ele>
        <time>2015-08-19T13:28:45Z</time>
      </trkpt>
      <trkpt lat="44.93273" lon="5.25593">
        <ele>704</ele>
        <time>2015-08-19T13:29:15Z</time>
      </trkpt>
      <trkpt lat="44.93264" lon="5.256">
        <ele>705</ele>
        <time>2015-08-19T13:29:28Z</time>
      </trkpt>
      <trkpt lat="44.93258" lon="5.2561">
        <ele>703</ele>
        <time>2015-08-19T13:29:37Z</time>
      </trkpt>
      <trkpt lat="44.93255" lon="5.25612">
        <ele>702</ele>
        <time>2015-08-19T13:29:40Z</time>
      </trkpt>
      <trkpt lat="44.93245" lon="5.25622">
        <ele>709</ele>
        <time>2015-08-19T13:29:50Z</time>
      </trkpt>
      <trkpt lat="44.93238" lon="5.25631">
        <ele>707</ele>
        <time>2015-08-19T13:30:06Z</time>
      </trkpt>
      <trkpt lat="44.93233" lon="5.25633">
        <ele>707</ele>
        <time>2015-08-19T13:30:10Z</time>
      </trkpt>
      <trkpt lat="44.93227" lon="5.25643">
        <ele>705</ele>
        <time>2015-08-19T13:30:17Z</time>
      </trkpt>
      <trkpt lat="44.93224" lon="5.25645">
        <ele>705</ele>
        <time>2015-08-19T13:30:22Z</time>
      </trkpt>
      <trkpt lat="44.93223" lon="5.25648">
        <ele>705</ele>
        <time>2015-08-19T13:30:24Z</time>
      </trkpt>
      <trkpt lat="44.93221" lon="5.25652">
        <ele>704</ele>
        <time>2015-08-19T13:30:30Z</time>
      </trkpt>
      <trkpt lat="44.93219" lon="5.25652">
        <ele>705</ele>
        <time>2015-08-19T13:30:32Z</time>
      </trkpt>
      <trkpt lat="44.93217" lon="5.25654">
        <ele>705</ele>
        <time>2015-08-19T13:30:35Z</time>
      </trkpt>
      <trkpt lat="44.93206" lon="5.25655">
        <ele>706</ele>
        <time>2015-08-19T13:30:46Z</time>
      </trkpt>
      <trkpt lat="44.932" lon="5.25656">
        <ele>706</ele>
        <time>2015-08-19T13:30:51Z</time>
      </trkpt>
      <trkpt lat="44.93195" lon="5.25659">
        <ele>705</ele>
        <time>2015-08-19T13:31:10Z</time>
      </trkpt>
      <trkpt lat="44.9319" lon="5.25665">
        <ele>705</ele>
        <time>2015-08-19T13:31:15Z</time>
      </trkpt>
      <trkpt lat="44.93184" lon="5.25664">
        <ele>704</ele>
        <time>2015-08-19T13:31:22Z</time>
      </trkpt>
      <trkpt lat="44.93179" lon="5.25668">
        <ele>690</ele>
        <time>2015-08-19T13:31:25Z</time>
      </trkpt>
      <trkpt lat="44.93174" lon="5.25669">
        <ele>693</ele>
        <time>2015-08-19T13:31:30Z</time>
      </trkpt>
      <trkpt lat="44.93172" lon="5.25671">
        <ele>693</ele>
        <time>2015-08-19T13:31:31Z</time>
      </trkpt>
      <trkpt lat="44.9317" lon="5.2567">
        <ele>695</ele>
        <time>2015-08-19T13:31:33Z</time>
      </trkpt>
      <trkpt lat="44.93167" lon="5.2567">
        <ele>696</ele>
        <time>2015-08-19T13:31:36Z</time>
      </trkpt>
      <trkpt lat="44.93165" lon="5.25671">
        <ele>697</ele>
        <time>2015-08-19T13:31:38Z</time>
      </trkpt>
      <trkpt lat="44.93163" lon="5.25675">
        <ele>695</ele>
        <time>2015-08-19T13:31:40Z</time>
      </trkpt>
      <trkpt lat="44.9316" lon="5.25675">
        <ele>694</ele>
        <time>2015-08-19T13:31:43Z</time>
      </trkpt>
      <trkpt lat="44.93125" lon="5.25694">
        <ele>689</ele>
        <time>2015-08-19T13:32:15Z</time>
      </trkpt>
      <trkpt lat="44.93121" lon="5.25696">
        <ele>689</ele>
        <time>2015-08-19T13:32:17Z</time>
      </trkpt>
      <trkpt lat="44.9309" lon="5.25711">
        <ele>687</ele>
        <time>2015-08-19T13:32:48Z</time>
      </trkpt>
      <trkpt lat="44.93086" lon="5.25713">
        <ele>687</ele>
        <time>2015-08-19T13:33:37Z</time>
      </trkpt>
      <trkpt lat="44.93083" lon="5.25715">
        <ele>694</ele>
        <time>2015-08-19T13:34:20Z</time>
      </trkpt>
      <trkpt lat="44.93064" lon="5.25731">
        <ele>691</ele>
        <time>2015-08-19T13:34:35Z</time>
      </trkpt>
      <trkpt lat="44.93053" lon="5.2574">
        <ele>692</ele>
        <time>2015-08-19T13:34:44Z</time>
      </trkpt>
      <trkpt lat="44.93048" lon="5.2574">
        <ele>693</ele>
        <time>2015-08-19T13:34:49Z</time>
      </trkpt>
      <trkpt lat="44.93046" lon="5.25742">
        <ele>693</ele>
        <time>2015-08-19T13:34:51Z</time>
      </trkpt>
      <trkpt lat="44.93043" lon="5.2574">
        <ele>693</ele>
        <time>2015-08-19T13:34:54Z</time>
      </trkpt>
      <trkpt lat="44.9304" lon="5.25742">
        <ele>694</ele>
        <time>2015-08-19T13:34:57Z</time>
      </trkpt>
      <trkpt lat="44.93038" lon="5.25744">
        <ele>694</ele>
        <time>2015-08-19T13:35:00Z</time>
      </trkpt>
      <trkpt lat="44.93037" lon="5.25747">
        <ele>693</ele>
        <time>2015-08-19T13:35:02Z</time>
      </trkpt>
      <trkpt lat="44.93035" lon="5.25747">
        <ele>694</ele>
        <time>2015-08-19T13:35:05Z</time>
      </trkpt>
      <trkpt lat="44.93033" lon="5.25749">
        <ele>694</ele>
        <time>2015-08-19T13:35:06Z</time>
      </trkpt>
      <trkpt lat="44.93001" lon="5.2578">
        <ele>672</ele>
        <time>2015-08-19T13:35:36Z</time>
      </trkpt>
      <trkpt lat="44.92999" lon="5.2578">
        <ele>677</ele>
        <time>2015-08-19T13:35:38Z</time>
      </trkpt>
      <trkpt lat="44.92998" lon="5.25779">
        <ele>677</ele>
        <time>2015-08-19T13:35:40Z</time>
      </trkpt>
      <trkpt lat="44.92991" lon="5.25785">
        <ele>675</ele>
        <time>2015-08-19T13:35:45Z</time>
      </trkpt>
      <trkpt lat="44.92989" lon="5.25786">
        <ele>675</ele>
        <time>2015-08-19T13:35:47Z</time>
      </trkpt>
      <trkpt lat="44.92983" lon="5.25787">
        <ele>674</ele>
        <time>2015-08-19T13:35:53Z</time>
      </trkpt>
      <trkpt lat="44.92981" lon="5.25789">
        <ele>674</ele>
        <time>2015-08-19T13:35:55Z</time>
      </trkpt>
      <trkpt lat="44.9298" lon="5.2579">
        <ele>674</ele>
        <time>2015-08-19T13:35:56Z</time>
      </trkpt>
      <trkpt lat="44.92978" lon="5.25791">
        <ele>673</ele>
        <time>2015-08-19T13:35:58Z</time>
      </trkpt>
      <trkpt lat="44.92974" lon="5.25797">
        <ele>672</ele>
        <time>2015-08-19T13:36:01Z</time>
      </trkpt>
      <trkpt lat="44.92961" lon="5.25801">
        <ele>672</ele>
        <time>2015-08-19T13:36:14Z</time>
      </trkpt>
      <trkpt lat="44.9296" lon="5.25803">
        <ele>671</ele>
        <time>2015-08-19T13:36:15Z</time>
      </trkpt>
      <trkpt lat="44.92958" lon="5.25803">
        <ele>671</ele>
        <time>2015-08-19T13:36:17Z</time>
      </trkpt>
      <trkpt lat="44.92957" lon="5.25804">
        <ele>671</ele>
        <time>2015-08-19T13:36:18Z</time>
      </trkpt>
      <trkpt lat="44.92943" lon="5.25817">
        <ele>669</ele>
        <time>2015-08-19T13:36:31Z</time>
      </trkpt>
      <trkpt lat="44.92941" lon="5.25817">
        <ele>669</ele>
        <time>2015-08-19T13:36:32Z</time>
      </trkpt>
      <trkpt lat="44.92939" lon="5.25818">
        <ele>668</ele>
        <time>2015-08-19T13:36:34Z</time>
      </trkpt>
      <trkpt lat="44.92937" lon="5.25817">
        <ele>668</ele>
        <time>2015-08-19T13:36:36Z</time>
      </trkpt>
      <trkpt lat="44.92935" lon="5.25819">
        <ele>668</ele>
        <time>2015-08-19T13:36:38Z</time>
      </trkpt>
      <trkpt lat="44.92933" lon="5.2582">
        <ele>667</ele>
        <time>2015-08-19T13:36:40Z</time>
      </trkpt>
      <trkpt lat="44.92931" lon="5.25819">
        <ele>667</ele>
        <time>2015-08-19T13:36:41Z</time>
      </trkpt>
      <trkpt lat="44.92928" lon="5.25822">
        <ele>666</ele>
        <time>2015-08-19T13:36:45Z</time>
      </trkpt>
      <trkpt lat="44.92926" lon="5.25821">
        <ele>666</ele>
        <time>2015-08-19T13:36:47Z</time>
      </trkpt>
      <trkpt lat="44.92922" lon="5.25822">
        <ele>665</ele>
        <time>2015-08-19T13:36:50Z</time>
      </trkpt>
      <trkpt lat="44.92921" lon="5.25824">
        <ele>665</ele>
        <time>2015-08-19T13:36:51Z</time>
      </trkpt>
      <trkpt lat="44.92917" lon="5.25826">
        <ele>664</ele>
        <time>2015-08-19T13:36:55Z</time>
      </trkpt>
      <trkpt lat="44.92915" lon="5.25825">
        <ele>664</ele>
        <time>2015-08-19T13:36:57Z</time>
      </trkpt>
      <trkpt lat="44.92909" lon="5.25828">
        <ele>664</ele>
        <time>2015-08-19T13:37:03Z</time>
      </trkpt>
      <trkpt lat="44.92908" lon="5.2583">
        <ele>664</ele>
        <time>2015-08-19T13:37:04Z</time>
      </trkpt>
      <trkpt lat="44.92907" lon="5.2583">
        <ele>665</ele>
        <time>2015-08-19T13:37:05Z</time>
      </trkpt>
      <trkpt lat="44.92878" lon="5.25843">
        <ele>651</ele>
        <time>2015-08-19T13:37:34Z</time>
      </trkpt>
      <trkpt lat="44.92876" lon="5.25844">
        <ele>651</ele>
        <time>2015-08-19T13:37:37Z</time>
      </trkpt>
      <trkpt lat="44.92874" lon="5.25845">
        <ele>651</ele>
        <time>2015-08-19T13:37:39Z</time>
      </trkpt>
      <trkpt lat="44.92872" lon="5.25846">
        <ele>651</ele>
        <time>2015-08-19T13:37:41Z</time>
      </trkpt>
      <trkpt lat="44.92837" lon="5.25857">
        <ele>651</ele>
        <time>2015-08-19T13:38:11Z</time>
      </trkpt>
      <trkpt lat="44.92827" lon="5.25864">
        <ele>651</ele>
        <time>2015-08-19T13:38:19Z</time>
      </trkpt>
      <trkpt lat="44.92825" lon="5.25864">
        <ele>651</ele>
        <time>2015-08-19T13:38:22Z</time>
      </trkpt>
      <trkpt lat="44.92823" lon="5.25864">
        <ele>650</ele>
        <time>2015-08-19T13:38:24Z</time>
      </trkpt>
      <trkpt lat="44.92793" lon="5.2588">
        <ele>648</ele>
        <time>2015-08-19T13:38:54Z</time>
      </trkpt>
      <trkpt lat="44.9277" lon="5.25901">
        <ele>645</ele>
        <time>2015-08-19T13:39:24Z</time>
      </trkpt>
      <trkpt lat="44.92754" lon="5.25919">
        <ele>636</ele>
        <time>2015-08-19T13:39:45Z</time>
      </trkpt>
      <trkpt lat="44.92752" lon="5.25917">
        <ele>637</ele>
        <time>2015-08-19T13:39:49Z</time>
      </trkpt>
      <trkpt lat="44.92748" lon="5.25921">
        <ele>637</ele>
        <time>2015-08-19T13:39:52Z</time>
      </trkpt>
      <trkpt lat="44.92743" lon="5.25927">
        <ele>635</ele>
        <time>2015-08-19T13:39:57Z</time>
      </trkpt>
      <trkpt lat="44.92741" lon="5.25929">
        <ele>635</ele>
        <time>2015-08-19T13:40:03Z</time>
      </trkpt>
      <trkpt lat="44.92734" lon="5.25933">
        <ele>634</ele>
        <time>2015-08-19T13:40:07Z</time>
      </trkpt>
      <trkpt lat="44.92731" lon="5.25935">
        <ele>634</ele>
        <time>2015-08-19T13:40:09Z</time>
      </trkpt>
      <trkpt lat="44.92723" lon="5.25947">
        <ele>633</ele>
        <time>2015-08-19T13:40:17Z</time>
      </trkpt>
      <trkpt lat="44.92721" lon="5.25948">
        <ele>632</ele>
        <time>2015-08-19T13:40:21Z</time>
      </trkpt>
      <trkpt lat="44.92718" lon="5.25953">
        <ele>632</ele>
        <time>2015-08-19T13:40:24Z</time>
      </trkpt>
      <trkpt lat="44.92715" lon="5.25954">
        <ele>632</ele>
        <time>2015-08-19T13:40:27Z</time>
      </trkpt>
      <trkpt lat="44.92687" lon="5.25993">
        <ele>630</ele>
        <time>2015-08-19T13:40:59Z</time>
      </trkpt>
      <trkpt lat="44.92684" lon="5.25998">
        <ele>629</ele>
        <time>2015-08-19T13:41:02Z</time>
      </trkpt>
      <trkpt lat="44.92662" lon="5.26043">
        <ele>625</ele>
        <time>2015-08-19T13:41:32Z</time>
      </trkpt>
      <trkpt lat="44.92643" lon="5.26087">
        <ele>618</ele>
        <time>2015-08-19T13:42:03Z</time>
      </trkpt>
      <trkpt lat="44.92641" lon="5.26097">
        <ele>618</ele>
        <time>2015-08-19T13:42:08Z</time>
      </trkpt>
      <trkpt lat="44.92642" lon="5.26099">
        <ele>618</ele>
        <time>2015-08-19T13:42:11Z</time>
      </trkpt>
      <trkpt lat="44.92636" lon="5.26123">
        <ele>617</ele>
        <time>2015-08-19T13:42:25Z</time>
      </trkpt>
      <trkpt lat="44.92633" lon="5.26125">
        <ele>617</ele>
        <time>2015-08-19T13:42:28Z</time>
      </trkpt>
      <trkpt lat="44.92628" lon="5.26136">
        <ele>617</ele>
        <time>2015-08-19T13:42:38Z</time>
      </trkpt>
      <trkpt lat="44.92625" lon="5.26137">
        <ele>617</ele>
        <time>2015-08-19T13:42:42Z</time>
      </trkpt>
      <trkpt lat="44.92623" lon="5.2614">
        <ele>617</ele>
        <time>2015-08-19T13:42:44Z</time>
      </trkpt>
      <trkpt lat="44.92623" lon="5.26145">
        <ele>617</ele>
        <time>2015-08-19T13:42:53Z</time>
      </trkpt>
      <trkpt lat="44.92624" lon="5.26148">
        <ele>617</ele>
        <time>2015-08-19T13:43:00Z</time>
      </trkpt>
      <trkpt lat="44.92622" lon="5.2615">
        <ele>617</ele>
        <time>2015-08-19T13:43:30Z</time>
      </trkpt>
      <trkpt lat="44.92613" lon="5.26163">
        <ele>617</ele>
        <time>2015-08-19T13:43:39Z</time>
      </trkpt>
      <trkpt lat="44.92608" lon="5.26169">
        <ele>612</ele>
        <time>2015-08-19T13:43:44Z</time>
      </trkpt>
      <trkpt lat="44.92594" lon="5.26204">
        <ele>611</ele>
        <time>2015-08-19T13:44:05Z</time>
      </trkpt>
      <trkpt lat="44.92592" lon="5.26203">
        <ele>611</ele>
        <time>2015-08-19T13:44:08Z</time>
      </trkpt>
      <trkpt lat="44.92579" lon="5.26234">
        <ele>612</ele>
        <time>2015-08-19T13:44:29Z</time>
      </trkpt>
      <trkpt lat="44.92577" lon="5.26235">
        <ele>612</ele>
        <time>2015-08-19T13:44:31Z</time>
      </trkpt>
      <trkpt lat="44.92576" lon="5.26239">
        <ele>612</ele>
        <time>2015-08-19T13:44:33Z</time>
      </trkpt>
      <trkpt lat="44.92559" lon="5.26271">
        <ele>607</ele>
        <time>2015-08-19T13:44:53Z</time>
      </trkpt>
      <trkpt lat="44.92556" lon="5.26271">
        <ele>607</ele>
        <time>2015-08-19T13:44:58Z</time>
      </trkpt>
      <trkpt lat="44.92553" lon="5.2628">
        <ele>606</ele>
        <time>2015-08-19T13:45:04Z</time>
      </trkpt>
      <trkpt lat="44.92527" lon="5.26317">
        <ele>605</ele>
        <time>2015-08-19T13:45:35Z</time>
      </trkpt>
      <trkpt lat="44.92525" lon="5.26319">
        <ele>605</ele>
        <time>2015-08-19T13:45:37Z</time>
      </trkpt>
      <trkpt lat="44.92524" lon="5.2632">
        <ele>604</ele>
        <time>2015-08-19T13:45:38Z</time>
      </trkpt>
      <trkpt lat="44.92506" lon="5.26353">
        <ele>598</ele>
        <time>2015-08-19T13:45:59Z</time>
      </trkpt>
      <trkpt lat="44.92505" lon="5.2635">
        <ele>598</ele>
        <time>2015-08-19T13:46:02Z</time>
      </trkpt>
      <trkpt lat="44.92502" lon="5.26351">
        <ele>598</ele>
        <time>2015-08-19T13:46:04Z</time>
      </trkpt>
      <trkpt lat="44.925" lon="5.26353">
        <ele>599</ele>
        <time>2015-08-19T13:46:06Z</time>
      </trkpt>
      <trkpt lat="44.92497" lon="5.26355">
        <ele>599</ele>
        <time>2015-08-19T13:46:09Z</time>
      </trkpt>
      <trkpt lat="44.92494" lon="5.26355">
        <ele>599</ele>
        <time>2015-08-19T13:46:13Z</time>
      </trkpt>
      <trkpt lat="44.9249" lon="5.2636">
        <ele>598</ele>
        <time>2015-08-19T13:46:21Z</time>
      </trkpt>
      <trkpt lat="44.92481" lon="5.26365">
        <ele>598</ele>
        <time>2015-08-19T13:46:26Z</time>
      </trkpt>
      <trkpt lat="44.92478" lon="5.26365">
        <ele>598</ele>
        <time>2015-08-19T13:46:30Z</time>
      </trkpt>
      <trkpt lat="44.92474" lon="5.26367">
        <ele>598</ele>
        <time>2015-08-19T13:46:33Z</time>
      </trkpt>
      <trkpt lat="44.92468" lon="5.26371">
        <ele>597</ele>
        <time>2015-08-19T13:46:38Z</time>
      </trkpt>
      <trkpt lat="44.92459" lon="5.26373">
        <ele>597</ele>
        <time>2015-08-19T13:46:45Z</time>
      </trkpt>
      <trkpt lat="44.92456" lon="5.26371">
        <ele>597</ele>
        <time>2015-08-19T13:46:49Z</time>
      </trkpt>
      <trkpt lat="44.92442" lon="5.2637">
        <ele>598</ele>
        <time>2015-08-19T13:46:58Z</time>
      </trkpt>
      <trkpt lat="44.92428" lon="5.26365">
        <ele>598</ele>
        <time>2015-08-19T13:47:09Z</time>
      </trkpt>
      <trkpt lat="44.92425" lon="5.26367">
        <ele>598</ele>
        <time>2015-08-19T13:47:13Z</time>
      </trkpt>
      <trkpt lat="44.92422" lon="5.26367">
        <ele>598</ele>
        <time>2015-08-19T13:47:14Z</time>
      </trkpt>
      <trkpt lat="44.92409" lon="5.26364">
        <ele>599</ele>
        <time>2015-08-19T13:47:28Z</time>
      </trkpt>
      <trkpt lat="44.92407" lon="5.26362">
        <ele>599</ele>
        <time>2015-08-19T13:47:34Z</time>
      </trkpt>
      <trkpt lat="44.92391" lon="5.26361">
        <ele>599</ele>
        <time>2015-08-19T13:47:46Z</time>
      </trkpt>
      <trkpt lat="44.92389" lon="5.26361">
        <ele>599</ele>
        <time>2015-08-19T13:47:48Z</time>
      </trkpt>
      <trkpt lat="44.92387" lon="5.26361">
        <ele>599</ele>
        <time>2015-08-19T13:47:49Z</time>
      </trkpt>
      <trkpt lat="44.92385" lon="5.26358">
        <ele>599</ele>
        <time>2015-08-19T13:47:51Z</time>
      </trkpt>
      <trkpt lat="44.92375" lon="5.26357">
        <ele>599</ele>
        <time>2015-08-19T13:47:57Z</time>
      </trkpt>
      <trkpt lat="44.92367" lon="5.26352">
        <ele>600</ele>
        <time>2015-08-19T13:48:05Z</time>
      </trkpt>
      <trkpt lat="44.92364" lon="5.26356">
        <ele>599</ele>
        <time>2015-08-19T13:48:06Z</time>
      </trkpt>
      <trkpt lat="44.92342" lon="5.2635">
        <ele>601</ele>
        <time>2015-08-19T13:48:25Z</time>
      </trkpt>
      <trkpt lat="44.92333" lon="5.26341">
        <ele>603</ele>
        <time>2015-08-19T13:48:36Z</time>
      </trkpt>
      <trkpt lat="44.92331" lon="5.26341">
        <ele>603</ele>
        <time>2015-08-19T13:48:38Z</time>
      </trkpt>
      <trkpt lat="44.92329" lon="5.26343">
        <ele>602</ele>
        <time>2015-08-19T13:48:41Z</time>
      </trkpt>
      <trkpt lat="44.92326" lon="5.26343">
        <ele>602</ele>
        <time>2015-08-19T13:48:43Z</time>
      </trkpt>
      <trkpt lat="44.92313" lon="5.26347">
        <ele>600</ele>
        <time>2015-08-19T13:48:55Z</time>
      </trkpt>
      <trkpt lat="44.92309" lon="5.26352">
        <ele>600</ele>
        <time>2015-08-19T13:48:59Z</time>
      </trkpt>
      <trkpt lat="44.92306" lon="5.26351">
        <ele>600</ele>
        <time>2015-08-19T13:49:02Z</time>
      </trkpt>
      <trkpt lat="44.92305" lon="5.26353">
        <ele>600</ele>
        <time>2015-08-19T13:49:03Z</time>
      </trkpt>
      <trkpt lat="44.92271" lon="5.26368">
        <ele>598</ele>
        <time>2015-08-19T13:49:34Z</time>
      </trkpt>
      <trkpt lat="44.92268" lon="5.26367">
        <ele>598</ele>
        <time>2015-08-19T13:49:38Z</time>
      </trkpt>
      <trkpt lat="44.92266" lon="5.26369">
        <ele>598</ele>
        <time>2015-08-19T13:49:39Z</time>
      </trkpt>
      <trkpt lat="44.92261" lon="5.26371">
        <ele>598</ele>
        <time>2015-08-19T13:49:42Z</time>
      </trkpt>
      <trkpt lat="44.92261" lon="5.26368">
        <ele>598</ele>
        <time>2015-08-19T13:49:43Z</time>
      </trkpt>
      <trkpt lat="44.92258" lon="5.26366">
        <ele>599</ele>
        <time>2015-08-19T13:49:45Z</time>
      </trkpt>
      <trkpt lat="44.92256" lon="5.26365">
        <ele>599</ele>
        <time>2015-08-19T13:49:47Z</time>
      </trkpt>
      <trkpt lat="44.92254" lon="5.26366">
        <ele>599</ele>
        <time>2015-08-19T13:49:49Z</time>
      </trkpt>
      <trkpt lat="44.92241" lon="5.26354">
        <ele>599</ele>
        <time>2015-08-19T13:49:59Z</time>
      </trkpt>
      <trkpt lat="44.92232" lon="5.26352">
        <ele>599</ele>
        <time>2015-08-19T13:50:07Z</time>
      </trkpt>
      <trkpt lat="44.9223" lon="5.2635">
        <ele>599</ele>
        <time>2015-08-19T13:50:11Z</time>
      </trkpt>
      <trkpt lat="44.92226" lon="5.26347">
        <ele>599</ele>
        <time>2015-08-19T13:50:18Z</time>
      </trkpt>
      <trkpt lat="44.92216" lon="5.26344">
        <ele>598</ele>
        <time>2015-08-19T13:50:26Z</time>
      </trkpt>
      <trkpt lat="44.92211" lon="5.2634">
        <ele>598</ele>
        <time>2015-08-19T13:50:30Z</time>
      </trkpt>
      <trkpt lat="44.92168" lon="5.26341">
        <ele>598</ele>
        <time>2015-08-19T13:51:00Z</time>
      </trkpt>
      <trkpt lat="44.92167" lon="5.26339">
        <ele>598</ele>
        <time>2015-08-19T13:51:02Z</time>
      </trkpt>
      <trkpt lat="44.92158" lon="5.2634">
        <ele>597</ele>
        <time>2015-08-19T13:51:07Z</time>
      </trkpt>
      <trkpt lat="44.92157" lon="5.26339">
        <ele>597</ele>
        <time>2015-08-19T13:51:08Z</time>
      </trkpt>
      <trkpt lat="44.92155" lon="5.26339">
        <ele>597</ele>
        <time>2015-08-19T13:51:10Z</time>
      </trkpt>
      <trkpt lat="44.92152" lon="5.26339">
        <ele>597</ele>
        <time>2015-08-19T13:51:12Z</time>
      </trkpt>
      <trkpt lat="44.92147" lon="5.26336">
        <ele>597</ele>
        <time>2015-08-19T13:51:16Z</time>
      </trkpt>
      <trkpt lat="44.9214" lon="5.26337">
        <ele>596</ele>
        <time>2015-08-19T13:51:20Z</time>
      </trkpt>
      <trkpt lat="44.92138" lon="5.26339">
        <ele>596</ele>
        <time>2015-08-19T13:51:22Z</time>
      </trkpt>
      <trkpt lat="44.92135" lon="5.26339">
        <ele>596</ele>
        <time>2015-08-19T13:51:26Z</time>
      </trkpt>
      <trkpt lat="44.92133" lon="5.26338">
        <ele>596</ele>
        <time>2015-08-19T13:51:27Z</time>
      </trkpt>
      <trkpt lat="44.92132" lon="5.26338">
        <ele>596</ele>
        <time>2015-08-19T13:51:29Z</time>
      </trkpt>
      <trkpt lat="44.9213" lon="5.26339">
        <ele>596</ele>
        <time>2015-08-19T13:51:30Z</time>
      </trkpt>
      <trkpt lat="44.92129" lon="5.26342">
        <ele>596</ele>
        <time>2015-08-19T13:51:32Z</time>
      </trkpt>
      <trkpt lat="44.92126" lon="5.26341">
        <ele>596</ele>
        <time>2015-08-19T13:51:34Z</time>
      </trkpt>
      <trkpt lat="44.92122" lon="5.26343">
        <ele>596</ele>
        <time>2015-08-19T13:51:38Z</time>
      </trkpt>
      <trkpt lat="44.92118" lon="5.26343">
        <ele>596</ele>
        <time>2015-08-19T13:51:42Z</time>
      </trkpt>
      <trkpt lat="44.92112" lon="5.26344">
        <ele>596</ele>
        <time>2015-08-19T13:51:47Z</time>
      </trkpt>
      <trkpt lat="44.9211" lon="5.26344">
        <ele>596</ele>
        <time>2015-08-19T13:51:48Z</time>
      </trkpt>
      <trkpt lat="44.92105" lon="5.26345">
        <ele>596</ele>
        <time>2015-08-19T13:51:52Z</time>
      </trkpt>
      <trkpt lat="44.92103" lon="5.26347">
        <ele>596</ele>
        <time>2015-08-19T13:51:54Z</time>
      </trkpt>
      <trkpt lat="44.92101" lon="5.26346">
        <ele>596</ele>
        <time>2015-08-19T13:51:56Z</time>
      </trkpt>
      <trkpt lat="44.92099" lon="5.26348">
        <ele>596</ele>
        <time>2015-08-19T13:51:58Z</time>
      </trkpt>
      <trkpt lat="44.92072" lon="5.26353">
        <ele>597</ele>
        <time>2015-08-19T13:52:23Z</time>
      </trkpt>
      <trkpt lat="44.92071" lon="5.26356">
        <ele>596</ele>
        <time>2015-08-19T13:52:26Z</time>
      </trkpt>
      <trkpt lat="44.92069" lon="5.26357">
        <ele>596</ele>
        <time>2015-08-19T13:52:27Z</time>
      </trkpt>
      <trkpt lat="44.92067" lon="5.26361">
        <ele>596</ele>
        <time>2015-08-19T13:52:30Z</time>
      </trkpt>
      <trkpt lat="44.92068" lon="5.26364">
        <ele>596</ele>
        <time>2015-08-19T13:52:32Z</time>
      </trkpt>
      <trkpt lat="44.92068" lon="5.26367">
        <ele>596</ele>
        <time>2015-08-19T13:52:35Z</time>
      </trkpt>
      <trkpt lat="44.92073" lon="5.26372">
        <ele>596</ele>
        <time>2015-08-19T13:52:42Z</time>
      </trkpt>
      <trkpt lat="44.92075" lon="5.26373">
        <ele>596</ele>
        <time>2015-08-19T13:52:44Z</time>
      </trkpt>
      <trkpt lat="44.92077" lon="5.26385">
        <ele>595</ele>
        <time>2015-08-19T13:52:52Z</time>
      </trkpt>
      <trkpt lat="44.92084" lon="5.26387">
        <ele>595</ele>
        <time>2015-08-19T13:52:57Z</time>
      </trkpt>
      <trkpt lat="44.92094" lon="5.2639">
        <ele>594</ele>
        <time>2015-08-19T13:53:05Z</time>
      </trkpt>
      <trkpt lat="44.92125" lon="5.26415">
        <ele>594</ele>
        <time>2015-08-19T13:53:35Z</time>
      </trkpt>
      <trkpt lat="44.92126" lon="5.26417">
        <ele>594</ele>
        <time>2015-08-19T13:53:37Z</time>
      </trkpt>
      <trkpt lat="44.92128" lon="5.26417">
        <ele>594</ele>
        <time>2015-08-19T13:53:39Z</time>
      </trkpt>
      <trkpt lat="44.92161" lon="5.26438">
        <ele>593</ele>
        <time>2015-08-19T13:54:12Z</time>
      </trkpt>
      <trkpt lat="44.92166" lon="5.26444">
        <ele>594</ele>
        <time>2015-08-19T13:54:15Z</time>
      </trkpt>
      <trkpt lat="44.92178" lon="5.26451">
        <ele>592</ele>
        <time>2015-08-19T13:54:28Z</time>
      </trkpt>
      <trkpt lat="44.92193" lon="5.26461">
        <ele>591</ele>
        <time>2015-08-19T13:54:41Z</time>
      </trkpt>
      <trkpt lat="44.92196" lon="5.26463">
        <ele>591</ele>
        <time>2015-08-19T13:54:42Z</time>
      </trkpt>
      <trkpt lat="44.92198" lon="5.26466">
        <ele>591</ele>
        <time>2015-08-19T13:54:45Z</time>
      </trkpt>
      <trkpt lat="44.92201" lon="5.26468">
        <ele>591</ele>
        <time>2015-08-19T13:54:47Z</time>
      </trkpt>
      <trkpt lat="44.92241" lon="5.26495">
        <ele>589</ele>
        <time>2015-08-19T13:55:19Z</time>
      </trkpt>
      <trkpt lat="44.92272" lon="5.26527">
        <ele>590</ele>
        <time>2015-08-19T13:55:49Z</time>
      </trkpt>
      <trkpt lat="44.92293" lon="5.26553">
        <ele>590</ele>
        <time>2015-08-19T13:56:12Z</time>
      </trkpt>
      <trkpt lat="44.92293" lon="5.26556">
        <ele>590</ele>
        <time>2015-08-19T13:56:16Z</time>
      </trkpt>
      <trkpt lat="44.92309" lon="5.26571">
        <ele>589</ele>
        <time>2015-08-19T13:56:29Z</time>
      </trkpt>
      <trkpt lat="44.92314" lon="5.26574">
        <ele>589</ele>
        <time>2015-08-19T13:56:32Z</time>
      </trkpt>
      <trkpt lat="44.92316" lon="5.26579">
        <ele>589</ele>
        <time>2015-08-19T13:56:36Z</time>
      </trkpt>
      <trkpt lat="44.92343" lon="5.2661">
        <ele>588</ele>
        <time>2015-08-19T13:57:07Z</time>
      </trkpt>
      <trkpt lat="44.92379" lon="5.26638">
        <ele>588</ele>
        <time>2015-08-19T13:57:38Z</time>
      </trkpt>
      <trkpt lat="44.92409" lon="5.2665">
        <ele>588</ele>
        <time>2015-08-19T13:58:09Z</time>
      </trkpt>
      <trkpt lat="44.92453" lon="5.26649">
        <ele>587</ele>
        <time>2015-08-19T13:58:40Z</time>
      </trkpt>
      <trkpt lat="44.92468" lon="5.26647">
        <ele>588</ele>
        <time>2015-08-19T13:58:51Z</time>
      </trkpt>
      <trkpt lat="44.9247" lon="5.26642">
        <ele>587</ele>
        <time>2015-08-19T13:58:52Z</time>
      </trkpt>
      <trkpt lat="44.92472" lon="5.26644">
        <ele>588</ele>
        <time>2015-08-19T13:58:54Z</time>
      </trkpt>
      <trkpt lat="44.92476" lon="5.26642">
        <ele>588</ele>
        <time>2015-08-19T13:58:56Z</time>
      </trkpt>
      <trkpt lat="44.92486" lon="5.26647">
        <ele>589</ele>
        <time>2015-08-19T13:59:03Z</time>
      </trkpt>
      <trkpt lat="44.925" lon="5.26643">
        <ele>591</ele>
        <time>2015-08-19T13:59:12Z</time>
      </trkpt>
      <trkpt lat="44.92501" lon="5.26641">
        <ele>591</ele>
        <time>2015-08-19T13:59:14Z</time>
      </trkpt>
      <trkpt lat="44.92504" lon="5.26642">
        <ele>591</ele>
        <time>2015-08-19T13:59:16Z</time>
      </trkpt>
      <trkpt lat="44.92514" lon="5.26639">
        <ele>591</ele>
        <time>2015-08-19T13:59:25Z</time>
      </trkpt>
      <trkpt lat="44.92516" lon="5.26636">
        <ele>590</ele>
        <time>2015-08-19T13:59:27Z</time>
      </trkpt>
      <trkpt lat="44.92554" lon="5.26626">
        <ele>591</ele>
        <time>2015-08-19T13:59:57Z</time>
      </trkpt>
      <trkpt lat="44.92593" lon="5.26614">
        <ele>594</ele>
        <time>2015-08-19T14:00:27Z</time>
      </trkpt>
      <trkpt lat="44.92631" lon="5.26602">
        <ele>594</ele>
        <time>2015-08-19T14:00:57Z</time>
      </trkpt>
      <trkpt lat="44.92661" lon="5.26603">
        <ele>594</ele>
        <time>2015-08-19T14:01:27Z</time>
      </trkpt>
      <trkpt lat="44.92702" lon="5.26603">
        <ele>599</ele>
        <time>2015-08-19T14:01:57Z</time>
      </trkpt>
      <trkpt lat="44.92744" lon="5.266">
        <ele>598</ele>
        <time>2015-08-19T14:02:28Z</time>
      </trkpt>
      <trkpt lat="44.92745" lon="5.266">
        <ele>598</ele>
        <time>2015-08-19T14:02:29Z</time>
      </trkpt>
      <trkpt lat="44.92748" lon="5.26598">
        <ele>597</ele>
        <time>2015-08-19T14:02:32Z</time>
      </trkpt>
      <trkpt lat="44.92787" lon="5.26593">
        <ele>608</ele>
        <time>2015-08-19T14:03:02Z</time>
      </trkpt>
      <trkpt lat="44.92823" lon="5.26584">
        <ele>609</ele>
        <time>2015-08-19T14:03:32Z</time>
      </trkpt>
      <trkpt lat="44.92824" lon="5.26581">
        <ele>602</ele>
        <time>2015-08-19T14:03:34Z</time>
      </trkpt>
      <trkpt lat="44.92827" lon="5.26577">
        <ele>602</ele>
        <time>2015-08-19T14:03:38Z</time>
      </trkpt>
      <trkpt lat="44.92827" lon="5.26574">
        <ele>601</ele>
        <time>2015-08-19T14:03:39Z</time>
      </trkpt>
      <trkpt lat="44.92865" lon="5.26565">
        <ele>601</ele>
        <time>2015-08-19T14:04:09Z</time>
      </trkpt>
      <trkpt lat="44.92901" lon="5.26559">
        <ele>602</ele>
        <time>2015-08-19T14:04:39Z</time>
      </trkpt>
      <trkpt lat="44.92912" lon="5.26555">
        <ele>602</ele>
        <time>2015-08-19T14:04:48Z</time>
      </trkpt>
      <trkpt lat="44.92916" lon="5.26556">
        <ele>602</ele>
        <time>2015-08-19T14:04:50Z</time>
      </trkpt>
      <trkpt lat="44.9294" lon="5.26553">
        <ele>601</ele>
        <time>2015-08-19T14:05:12Z</time>
      </trkpt>
      <trkpt lat="44.92941" lon="5.26551">
        <ele>601</ele>
        <time>2015-08-19T14:05:13Z</time>
      </trkpt>
      <trkpt lat="44.92944" lon="5.26549">
        <ele>600</ele>
        <time>2015-08-19T14:05:15Z</time>
      </trkpt>
      <trkpt lat="44.92951" lon="5.26549">
        <ele>600</ele>
        <time>2015-08-19T14:05:19Z</time>
      </trkpt>
      <trkpt lat="44.92952" lon="5.26547">
        <ele>600</ele>
        <time>2015-08-19T14:05:20Z</time>
      </trkpt>
      <trkpt lat="44.92956" lon="5.26547">
        <ele>600</ele>
        <time>2015-08-19T14:05:23Z</time>
      </trkpt>
      <trkpt lat="44.92966" lon="5.26542">
        <ele>599</ele>
        <time>2015-08-19T14:05:32Z</time>
      </trkpt>
      <trkpt lat="44.92978" lon="5.26544">
        <ele>600</ele>
        <time>2015-08-19T14:06:18Z</time>
      </trkpt>
      <trkpt lat="44.92992" lon="5.26553">
        <ele>601</ele>
        <time>2015-08-19T14:06:50Z</time>
      </trkpt>
    </trkseg>
  </trk>
</gpx>